<?xml version="1.0" encoding="UTF-8"?>
<gpx
  version="1.0"
  creator="GPSBabel - http://www.gpsbabel.org"
  xmlns:xsi="http://www.w3.org/2001/XMLSchema-instance"
  xmlns="http://www.topografix.com/GPX/1/0"
  xsi:schemaLocation="http://www.topografix.com/GPX/1/0 http://www.topografix.com/GPX/1/0/gpx.xsd">
<time>2015-04-12T10:28:19Z</time>
<bounds minlat="53.832163000" minlon="-1.853313000" maxlat="53.858471000" maxlon="-1.800630000"/>
<trk>
  <name>Bingley&apos;s Hidden Secrets</name>
<trkseg>
<trkpt lat="53.847958108" lon="-1.838622756">
  <ele>94.212893</ele>
  <time>2015-02-24T09:35:34Z</time>
  <name>WPT 5</name>
</trkpt>
<trkpt lat="53.847791029" lon="-1.838696359">
  <ele>94.741950</ele>
  <time>2015-02-24T09:35:36Z</time>
  <name>WPT 6</name>
</trkpt>
<trkpt lat="53.847634772" lon="-1.838797280">
  <ele>95.287711</ele>
  <time>2015-02-24T09:35:38Z</time>
  <name>WPT 7</name>
</trkpt>
<trkpt lat="53.847519000" lon="-1.839439000">
  <ele>136.000000</ele>
  <time>2015-02-24T09:35:40Z</time>
  <name>WPT 8</name>
</trkpt>
<trkpt lat="53.847384000" lon="-1.839408000">
  <ele>152.000000</ele>
  <time>2015-02-24T09:35:43Z</time>
  <name>WPT 9</name>
</trkpt>
<trkpt lat="53.847334000" lon="-1.839481000">
  <ele>147.000000</ele>
  <time>2015-02-24T09:35:50Z</time>
  <name>WPT 10</name>
</trkpt>
<trkpt lat="53.847280000" lon="-1.839478000">
  <ele>146.000000</ele>
  <time>2015-02-24T09:35:53Z</time>
  <name>WPT 11</name>
</trkpt>
<trkpt lat="53.847191000" lon="-1.839533000">
  <ele>141.000000</ele>
  <time>2015-02-24T09:36:00Z</time>
  <name>WPT 12</name>
</trkpt>
<trkpt lat="53.847150000" lon="-1.839593000">
  <ele>139.000000</ele>
  <time>2015-02-24T09:36:05Z</time>
  <name>WPT 13</name>
</trkpt>
<trkpt lat="53.847111000" lon="-1.839645000">
  <ele>139.000000</ele>
  <time>2015-02-24T09:36:08Z</time>
  <name>WPT 14</name>
</trkpt>
<trkpt lat="53.847081000" lon="-1.839709000">
  <ele>140.000000</ele>
  <time>2015-02-24T09:36:17Z</time>
  <name>WPT 15</name>
</trkpt>
<trkpt lat="53.847049000" lon="-1.839796000">
  <ele>140.000000</ele>
  <time>2015-02-24T09:36:22Z</time>
  <name>WPT 16</name>
</trkpt>
<trkpt lat="53.847042000" lon="-1.839882000">
  <ele>141.000000</ele>
  <time>2015-02-24T09:36:33Z</time>
  <name>WPT 17</name>
</trkpt>
<trkpt lat="53.847002000" lon="-1.839953000">
  <ele>141.000000</ele>
  <time>2015-02-24T09:36:35Z</time>
  <name>WPT 18</name>
</trkpt>
<trkpt lat="53.846965000" lon="-1.839997000">
  <ele>142.000000</ele>
  <time>2015-02-24T09:36:38Z</time>
  <name>WPT 19</name>
</trkpt>
<trkpt lat="53.846916000" lon="-1.840049000">
  <ele>143.000000</ele>
  <time>2015-02-24T09:36:42Z</time>
  <name>WPT 20</name>
</trkpt>
<trkpt lat="53.846905000" lon="-1.840149000">
  <ele>143.000000</ele>
  <time>2015-02-24T09:36:48Z</time>
  <name>WPT 21</name>
</trkpt>
<trkpt lat="53.846856000" lon="-1.840199000">
  <ele>143.000000</ele>
  <time>2015-02-24T09:36:50Z</time>
  <name>WPT 22</name>
</trkpt>
<trkpt lat="53.846806000" lon="-1.840244000">
  <ele>144.000000</ele>
  <time>2015-02-24T09:36:53Z</time>
  <name>WPT 23</name>
</trkpt>
<trkpt lat="53.846762000" lon="-1.840324000">
  <ele>144.000000</ele>
  <time>2015-02-24T09:36:56Z</time>
  <name>WPT 24</name>
</trkpt>
<trkpt lat="53.846717000" lon="-1.840344000">
  <ele>145.000000</ele>
  <time>2015-02-24T09:37:00Z</time>
  <name>WPT 25</name>
</trkpt>
<trkpt lat="53.846678000" lon="-1.840399000">
  <ele>145.000000</ele>
  <time>2015-02-24T09:37:06Z</time>
  <name>WPT 26</name>
</trkpt>
<trkpt lat="53.846648000" lon="-1.840457000">
  <ele>145.000000</ele>
  <time>2015-02-24T09:37:08Z</time>
  <name>WPT 27</name>
</trkpt>
<trkpt lat="53.846610000" lon="-1.840506000">
  <ele>145.000000</ele>
  <time>2015-02-24T09:37:12Z</time>
  <name>WPT 28</name>
</trkpt>
<trkpt lat="53.846553000" lon="-1.840568000">
  <ele>146.000000</ele>
  <time>2015-02-24T09:37:17Z</time>
  <name>WPT 29</name>
</trkpt>
<trkpt lat="53.846523000" lon="-1.840631000">
  <ele>147.000000</ele>
  <time>2015-02-24T09:37:21Z</time>
  <name>WPT 30</name>
</trkpt>
<trkpt lat="53.846483000" lon="-1.840670000">
  <ele>148.000000</ele>
  <time>2015-02-24T09:37:25Z</time>
  <name>WPT 31</name>
</trkpt>
<trkpt lat="53.846437000" lon="-1.840662000">
  <ele>149.000000</ele>
  <time>2015-02-24T09:37:28Z</time>
  <name>WPT 32</name>
</trkpt>
<trkpt lat="53.846386000" lon="-1.840698000">
  <ele>150.000000</ele>
  <time>2015-02-24T09:37:33Z</time>
  <name>WPT 33</name>
</trkpt>
<trkpt lat="53.846337000" lon="-1.840710000">
  <ele>151.000000</ele>
  <time>2015-02-24T09:37:36Z</time>
  <name>WPT 34</name>
</trkpt>
<trkpt lat="53.846290000" lon="-1.840768000">
  <ele>151.000000</ele>
  <time>2015-02-24T09:37:43Z</time>
  <name>WPT 35</name>
</trkpt>
<trkpt lat="53.846251000" lon="-1.840830000">
  <ele>151.000000</ele>
  <time>2015-02-24T09:37:45Z</time>
  <name>WPT 36</name>
</trkpt>
<trkpt lat="53.846214000" lon="-1.840894000">
  <ele>150.000000</ele>
  <time>2015-02-24T09:37:48Z</time>
  <name>WPT 37</name>
</trkpt>
<trkpt lat="53.846185000" lon="-1.840962000">
  <ele>150.000000</ele>
  <time>2015-02-24T09:37:51Z</time>
  <name>WPT 38</name>
</trkpt>
<trkpt lat="53.846138000" lon="-1.840982000">
  <ele>150.000000</ele>
  <time>2015-02-24T09:37:56Z</time>
  <name>WPT 39</name>
</trkpt>
<trkpt lat="53.846087000" lon="-1.841013000">
  <ele>150.000000</ele>
  <time>2015-02-24T09:37:59Z</time>
  <name>WPT 40</name>
</trkpt>
<trkpt lat="53.846046000" lon="-1.841070000">
  <ele>149.000000</ele>
  <time>2015-02-24T09:38:03Z</time>
  <name>WPT 41</name>
</trkpt>
<trkpt lat="53.846005000" lon="-1.841108000">
  <ele>149.000000</ele>
  <time>2015-02-24T09:38:07Z</time>
  <name>WPT 42</name>
</trkpt>
<trkpt lat="53.845986000" lon="-1.841195000">
  <ele>148.000000</ele>
  <time>2015-02-24T09:38:11Z</time>
  <name>WPT 43</name>
</trkpt>
<trkpt lat="53.845932000" lon="-1.841237000">
  <ele>148.000000</ele>
  <time>2015-02-24T09:38:14Z</time>
  <name>WPT 44</name>
</trkpt>
<trkpt lat="53.845888000" lon="-1.841304000">
  <ele>148.000000</ele>
  <time>2015-02-24T09:38:20Z</time>
  <name>WPT 45</name>
</trkpt>
<trkpt lat="53.845834000" lon="-1.841319000">
  <ele>148.000000</ele>
  <time>2015-02-24T09:38:25Z</time>
  <name>WPT 46</name>
</trkpt>
<trkpt lat="53.845788000" lon="-1.841359000">
  <ele>148.000000</ele>
  <time>2015-02-24T09:38:28Z</time>
  <name>WPT 47</name>
</trkpt>
<trkpt lat="53.845745000" lon="-1.841429000">
  <ele>147.000000</ele>
  <time>2015-02-24T09:38:34Z</time>
  <name>WPT 48</name>
</trkpt>
<trkpt lat="53.845701000" lon="-1.841471000">
  <ele>147.000000</ele>
  <time>2015-02-24T09:38:38Z</time>
  <name>WPT 49</name>
</trkpt>
<trkpt lat="53.845663000" lon="-1.841530000">
  <ele>147.000000</ele>
  <time>2015-02-24T09:38:43Z</time>
  <name>WPT 50</name>
</trkpt>
<trkpt lat="53.845623000" lon="-1.841569000">
  <ele>146.000000</ele>
  <time>2015-02-24T09:38:45Z</time>
  <name>WPT 51</name>
</trkpt>
<trkpt lat="53.845579000" lon="-1.841589000">
  <ele>145.000000</ele>
  <time>2015-02-24T09:38:48Z</time>
  <name>WPT 52</name>
</trkpt>
<trkpt lat="53.845545000" lon="-1.841686000">
  <ele>144.000000</ele>
  <time>2015-02-24T09:38:55Z</time>
  <name>WPT 53</name>
</trkpt>
<trkpt lat="53.845502000" lon="-1.841714000">
  <ele>144.000000</ele>
  <time>2015-02-24T09:38:57Z</time>
  <name>WPT 54</name>
</trkpt>
<trkpt lat="53.845471000" lon="-1.841784000">
  <ele>143.000000</ele>
  <time>2015-02-24T09:39:01Z</time>
  <name>WPT 55</name>
</trkpt>
<trkpt lat="53.845452000" lon="-1.841855000">
  <ele>142.000000</ele>
  <time>2015-02-24T09:39:05Z</time>
  <name>WPT 56</name>
</trkpt>
<trkpt lat="53.845426000" lon="-1.841945000">
  <ele>142.000000</ele>
  <time>2015-02-24T09:39:08Z</time>
  <name>WPT 57</name>
</trkpt>
<trkpt lat="53.845397000" lon="-1.842044000">
  <ele>141.000000</ele>
  <time>2015-02-24T09:39:10Z</time>
  <name>WPT 58</name>
</trkpt>
<trkpt lat="53.845377000" lon="-1.842173000">
  <ele>141.000000</ele>
  <time>2015-02-24T09:39:12Z</time>
  <name>WPT 59</name>
</trkpt>
<trkpt lat="53.845360000" lon="-1.842246000">
  <ele>141.000000</ele>
  <time>2015-02-24T09:39:14Z</time>
  <name>WPT 60</name>
</trkpt>
<trkpt lat="53.845338000" lon="-1.842341000">
  <ele>140.000000</ele>
  <time>2015-02-24T09:39:19Z</time>
  <name>WPT 61</name>
</trkpt>
<trkpt lat="53.845303000" lon="-1.842403000">
  <ele>140.000000</ele>
  <time>2015-02-24T09:39:21Z</time>
  <name>WPT 62</name>
</trkpt>
<trkpt lat="53.845259000" lon="-1.842447000">
  <ele>140.000000</ele>
  <time>2015-02-24T09:39:24Z</time>
  <name>WPT 63</name>
</trkpt>
<trkpt lat="53.845208000" lon="-1.842448000">
  <ele>140.000000</ele>
  <time>2015-02-24T09:39:28Z</time>
  <name>WPT 64</name>
</trkpt>
<trkpt lat="53.845165000" lon="-1.842484000">
  <ele>139.000000</ele>
  <time>2015-02-24T09:39:31Z</time>
  <name>WPT 65</name>
</trkpt>
<trkpt lat="53.845112000" lon="-1.842509000">
  <ele>139.000000</ele>
  <time>2015-02-24T09:39:34Z</time>
  <name>WPT 66</name>
</trkpt>
<trkpt lat="53.845090000" lon="-1.842581000">
  <ele>138.000000</ele>
  <time>2015-02-24T09:39:39Z</time>
  <name>WPT 67</name>
</trkpt>
<trkpt lat="53.845105000" lon="-1.842664000">
  <ele>137.000000</ele>
  <time>2015-02-24T09:39:44Z</time>
  <name>WPT 68</name>
</trkpt>
<trkpt lat="53.845123000" lon="-1.842747000">
  <ele>137.000000</ele>
  <time>2015-02-24T09:39:48Z</time>
  <name>WPT 69</name>
</trkpt>
<trkpt lat="53.845152000" lon="-1.842842000">
  <ele>137.000000</ele>
  <time>2015-02-24T09:39:52Z</time>
  <name>WPT 70</name>
</trkpt>
<trkpt lat="53.845178000" lon="-1.842905000">
  <ele>137.000000</ele>
  <time>2015-02-24T09:39:54Z</time>
  <name>WPT 71</name>
</trkpt>
<trkpt lat="53.845190000" lon="-1.842985000">
  <ele>136.000000</ele>
  <time>2015-02-24T09:39:58Z</time>
  <name>WPT 72</name>
</trkpt>
<trkpt lat="53.845209000" lon="-1.843062000">
  <ele>136.000000</ele>
  <time>2015-02-24T09:40:01Z</time>
  <name>WPT 73</name>
</trkpt>
<trkpt lat="53.845222000" lon="-1.843149000">
  <ele>136.000000</ele>
  <time>2015-02-24T09:40:04Z</time>
  <name>WPT 74</name>
</trkpt>
<trkpt lat="53.845242000" lon="-1.843240000">
  <ele>135.000000</ele>
  <time>2015-02-24T09:40:09Z</time>
  <name>WPT 75</name>
</trkpt>
<trkpt lat="53.845242000" lon="-1.843331000">
  <ele>135.000000</ele>
  <time>2015-02-24T09:40:12Z</time>
  <name>WPT 76</name>
</trkpt>
<trkpt lat="53.845239000" lon="-1.843407000">
  <ele>135.000000</ele>
  <time>2015-02-24T09:40:15Z</time>
  <name>WPT 77</name>
</trkpt>
<trkpt lat="53.845237000" lon="-1.843487000">
  <ele>135.000000</ele>
  <time>2015-02-24T09:40:18Z</time>
  <name>WPT 78</name>
</trkpt>
<trkpt lat="53.845231000" lon="-1.843577000">
  <ele>134.000000</ele>
  <time>2015-02-24T09:40:23Z</time>
  <name>WPT 79</name>
</trkpt>
<trkpt lat="53.845231000" lon="-1.843662000">
  <ele>134.000000</ele>
  <time>2015-02-24T09:40:32Z</time>
  <name>WPT 80</name>
</trkpt>
<trkpt lat="53.845268000" lon="-1.843711000">
  <ele>134.000000</ele>
  <time>2015-02-24T09:40:36Z</time>
  <name>WPT 81</name>
</trkpt>
<trkpt lat="53.845294000" lon="-1.843788000">
  <ele>135.000000</ele>
  <time>2015-02-24T09:40:45Z</time>
  <name>WPT 82</name>
</trkpt>
<trkpt lat="53.845350000" lon="-1.843865000">
  <ele>135.000000</ele>
  <time>2015-02-24T09:40:51Z</time>
  <name>WPT 83</name>
</trkpt>
<trkpt lat="53.845297000" lon="-1.843873000">
  <ele>135.000000</ele>
  <time>2015-02-24T09:40:54Z</time>
  <name>WPT 84</name>
</trkpt>
<trkpt lat="53.845267000" lon="-1.843941000">
  <ele>136.000000</ele>
  <time>2015-02-24T09:41:07Z</time>
  <name>WPT 85</name>
</trkpt>
<trkpt lat="53.845237000" lon="-1.844004000">
  <ele>137.000000</ele>
  <time>2015-02-24T09:41:15Z</time>
  <name>WPT 86</name>
</trkpt>
<trkpt lat="53.845174000" lon="-1.844048000">
  <ele>137.000000</ele>
  <time>2015-02-24T09:41:22Z</time>
  <name>WPT 87</name>
</trkpt>
<trkpt lat="53.845125000" lon="-1.844088000">
  <ele>137.000000</ele>
  <time>2015-02-24T09:41:27Z</time>
  <name>WPT 88</name>
</trkpt>
<trkpt lat="53.845071000" lon="-1.844122000">
  <ele>138.000000</ele>
  <time>2015-02-24T09:41:31Z</time>
  <name>WPT 89</name>
</trkpt>
<trkpt lat="53.845013000" lon="-1.844146000">
  <ele>139.000000</ele>
  <time>2015-02-24T09:41:35Z</time>
  <name>WPT 90</name>
</trkpt>
<trkpt lat="53.845001000" lon="-1.844085000">
  <ele>142.000000</ele>
  <time>2015-02-24T09:42:19Z</time>
  <name>WPT 94</name>
</trkpt>
<trkpt lat="53.844965000" lon="-1.844133000">
  <ele>141.000000</ele>
  <time>2015-02-24T09:42:23Z</time>
  <name>WPT 95</name>
</trkpt>
<trkpt lat="53.844915000" lon="-1.844089000">
  <ele>141.000000</ele>
  <time>2015-02-24T09:42:43Z</time>
  <name>WPT 96</name>
</trkpt>
<trkpt lat="53.844870000" lon="-1.844105000">
  <ele>145.000000</ele>
  <time>2015-02-24T09:43:06Z</time>
  <name>WPT 97</name>
</trkpt>
<trkpt lat="53.844829000" lon="-1.844142000">
  <ele>145.000000</ele>
  <time>2015-02-24T09:43:15Z</time>
  <name>WPT 98</name>
</trkpt>
<trkpt lat="53.844778000" lon="-1.844151000">
  <ele>149.000000</ele>
  <time>2015-02-24T09:43:50Z</time>
  <name>WPT 99</name>
</trkpt>
<trkpt lat="53.844729000" lon="-1.844191000">
  <ele>149.000000</ele>
  <time>2015-02-24T09:43:53Z</time>
  <name>WPT 100</name>
</trkpt>
<trkpt lat="53.844689000" lon="-1.844237000">
  <ele>150.000000</ele>
  <time>2015-02-24T09:44:03Z</time>
  <name>WPT 101</name>
</trkpt>
<trkpt lat="53.844636000" lon="-1.844248000">
  <ele>149.000000</ele>
  <time>2015-02-24T09:44:08Z</time>
  <name>WPT 102</name>
</trkpt>
<trkpt lat="53.844587000" lon="-1.844265000">
  <ele>149.000000</ele>
  <time>2015-02-24T09:44:10Z</time>
  <name>WPT 103</name>
</trkpt>
<trkpt lat="53.844541000" lon="-1.844247000">
  <ele>149.000000</ele>
  <time>2015-02-24T09:44:13Z</time>
  <name>WPT 104</name>
</trkpt>
<trkpt lat="53.844467000" lon="-1.844242000">
  <ele>149.000000</ele>
  <time>2015-02-24T09:44:16Z</time>
  <name>WPT 105</name>
</trkpt>
<trkpt lat="53.844422000" lon="-1.844212000">
  <ele>149.000000</ele>
  <time>2015-02-24T09:44:20Z</time>
  <name>WPT 106</name>
</trkpt>
<trkpt lat="53.844376000" lon="-1.844220000">
  <ele>149.000000</ele>
  <time>2015-02-24T09:44:23Z</time>
  <name>WPT 107</name>
</trkpt>
<trkpt lat="53.844323000" lon="-1.844170000">
  <ele>150.000000</ele>
  <time>2015-02-24T09:44:27Z</time>
  <name>WPT 108</name>
</trkpt>
<trkpt lat="53.844296000" lon="-1.844098000">
  <ele>150.000000</ele>
  <time>2015-02-24T09:44:31Z</time>
  <name>WPT 109</name>
</trkpt>
<trkpt lat="53.844259000" lon="-1.843992000">
  <ele>150.000000</ele>
  <time>2015-02-24T09:44:35Z</time>
  <name>WPT 110</name>
</trkpt>
<trkpt lat="53.844233000" lon="-1.843908000">
  <ele>150.000000</ele>
  <time>2015-02-24T09:44:39Z</time>
  <name>WPT 111</name>
</trkpt>
<trkpt lat="53.844181000" lon="-1.843906000">
  <ele>150.000000</ele>
  <time>2015-02-24T09:44:45Z</time>
  <name>WPT 112</name>
</trkpt>
<trkpt lat="53.844140000" lon="-1.843868000">
  <ele>150.000000</ele>
  <time>2015-02-24T09:44:51Z</time>
  <name>WPT 113</name>
</trkpt>
<trkpt lat="53.844099000" lon="-1.843816000">
  <ele>150.000000</ele>
  <time>2015-02-24T09:44:55Z</time>
  <name>WPT 114</name>
</trkpt>
<trkpt lat="53.844043000" lon="-1.843710000">
  <ele>150.000000</ele>
  <time>2015-02-24T09:44:58Z</time>
  <name>WPT 115</name>
</trkpt>
<trkpt lat="53.843969000" lon="-1.843653000">
  <ele>152.000000</ele>
  <time>2015-02-24T09:45:08Z</time>
  <name>WPT 116</name>
</trkpt>
<trkpt lat="53.843926000" lon="-1.843582000">
  <ele>152.000000</ele>
  <time>2015-02-24T09:45:10Z</time>
  <name>WPT 117</name>
</trkpt>
<trkpt lat="53.843894000" lon="-1.843503000">
  <ele>152.000000</ele>
  <time>2015-02-24T09:45:14Z</time>
  <name>WPT 118</name>
</trkpt>
<trkpt lat="53.843853000" lon="-1.843471000">
  <ele>152.000000</ele>
  <time>2015-02-24T09:45:16Z</time>
  <name>WPT 119</name>
</trkpt>
<trkpt lat="53.843803000" lon="-1.843454000">
  <ele>152.000000</ele>
  <time>2015-02-24T09:45:21Z</time>
  <name>WPT 120</name>
</trkpt>
<trkpt lat="53.843743000" lon="-1.843409000">
  <ele>152.000000</ele>
  <time>2015-02-24T09:45:26Z</time>
  <name>WPT 121</name>
</trkpt>
<trkpt lat="53.843700000" lon="-1.843366000">
  <ele>152.000000</ele>
  <time>2015-02-24T09:45:29Z</time>
  <name>WPT 122</name>
</trkpt>
<trkpt lat="53.843664000" lon="-1.843303000">
  <ele>151.000000</ele>
  <time>2015-02-24T09:45:35Z</time>
  <name>WPT 123</name>
</trkpt>
<trkpt lat="53.843625000" lon="-1.843257000">
  <ele>151.000000</ele>
  <time>2015-02-24T09:45:42Z</time>
  <name>WPT 124</name>
</trkpt>
<trkpt lat="53.843576000" lon="-1.843197000">
  <ele>149.000000</ele>
  <time>2015-02-24T09:45:58Z</time>
  <name>WPT 125</name>
</trkpt>
<trkpt lat="53.843524000" lon="-1.843188000">
  <ele>149.000000</ele>
  <time>2015-02-24T09:46:01Z</time>
  <name>WPT 126</name>
</trkpt>
<trkpt lat="53.843479000" lon="-1.843182000">
  <ele>149.000000</ele>
  <time>2015-02-24T09:46:04Z</time>
  <name>WPT 127</name>
</trkpt>
<trkpt lat="53.843432000" lon="-1.843200000">
  <ele>149.000000</ele>
  <time>2015-02-24T09:46:07Z</time>
  <name>WPT 128</name>
</trkpt>
<trkpt lat="53.843396000" lon="-1.843252000">
  <ele>148.000000</ele>
  <time>2015-02-24T09:46:11Z</time>
  <name>WPT 129</name>
</trkpt>
<trkpt lat="53.843373000" lon="-1.843317000">
  <ele>148.000000</ele>
  <time>2015-02-24T09:46:15Z</time>
  <name>WPT 130</name>
</trkpt>
<trkpt lat="53.843336000" lon="-1.843378000">
  <ele>147.000000</ele>
  <time>2015-02-24T09:46:20Z</time>
  <name>WPT 131</name>
</trkpt>
<trkpt lat="53.843291000" lon="-1.843443000">
  <ele>147.000000</ele>
  <time>2015-02-24T09:46:24Z</time>
  <name>WPT 132</name>
</trkpt>
<trkpt lat="53.843258000" lon="-1.843535000">
  <ele>147.000000</ele>
  <time>2015-02-24T09:46:27Z</time>
  <name>WPT 133</name>
</trkpt>
<trkpt lat="53.843246000" lon="-1.843629000">
  <ele>146.000000</ele>
  <time>2015-02-24T09:46:31Z</time>
  <name>WPT 134</name>
</trkpt>
<trkpt lat="53.843226000" lon="-1.843714000">
  <ele>146.000000</ele>
  <time>2015-02-24T09:46:34Z</time>
  <name>WPT 135</name>
</trkpt>
<trkpt lat="53.843188000" lon="-1.843796000">
  <ele>145.000000</ele>
  <time>2015-02-24T09:46:39Z</time>
  <name>WPT 136</name>
</trkpt>
<trkpt lat="53.843161000" lon="-1.843865000">
  <ele>145.000000</ele>
  <time>2015-02-24T09:46:43Z</time>
  <name>WPT 137</name>
</trkpt>
<trkpt lat="53.843142000" lon="-1.843953000">
  <ele>144.000000</ele>
  <time>2015-02-24T09:46:46Z</time>
  <name>WPT 138</name>
</trkpt>
<trkpt lat="53.843116000" lon="-1.844033000">
  <ele>144.000000</ele>
  <time>2015-02-24T09:46:49Z</time>
  <name>WPT 139</name>
</trkpt>
<trkpt lat="53.843078000" lon="-1.844120000">
  <ele>143.000000</ele>
  <time>2015-02-24T09:46:53Z</time>
  <name>WPT 140</name>
</trkpt>
<trkpt lat="53.843059000" lon="-1.844196000">
  <ele>143.000000</ele>
  <time>2015-02-24T09:46:56Z</time>
  <name>WPT 141</name>
</trkpt>
<trkpt lat="53.843045000" lon="-1.844281000">
  <ele>143.000000</ele>
  <time>2015-02-24T09:47:00Z</time>
  <name>WPT 142</name>
</trkpt>
<trkpt lat="53.843061000" lon="-1.844410000">
  <ele>143.000000</ele>
  <time>2015-02-24T09:47:08Z</time>
  <name>WPT 143</name>
</trkpt>
<trkpt lat="53.843032000" lon="-1.844471000">
  <ele>143.000000</ele>
  <time>2015-02-24T09:47:12Z</time>
  <name>WPT 144</name>
</trkpt>
<trkpt lat="53.842968000" lon="-1.844498000">
  <ele>143.000000</ele>
  <time>2015-02-24T09:47:16Z</time>
  <name>WPT 145</name>
</trkpt>
<trkpt lat="53.842918000" lon="-1.844508000">
  <ele>143.000000</ele>
  <time>2015-02-24T09:47:21Z</time>
  <name>WPT 146</name>
</trkpt>
<trkpt lat="53.842876000" lon="-1.844475000">
  <ele>143.000000</ele>
  <time>2015-02-24T09:47:25Z</time>
  <name>WPT 147</name>
</trkpt>
<trkpt lat="53.842821000" lon="-1.844471000">
  <ele>143.000000</ele>
  <time>2015-02-24T09:47:28Z</time>
  <name>WPT 148</name>
</trkpt>
<trkpt lat="53.842760000" lon="-1.844459000">
  <ele>143.000000</ele>
  <time>2015-02-24T09:47:32Z</time>
  <name>WPT 149</name>
</trkpt>
<trkpt lat="53.842709000" lon="-1.844444000">
  <ele>142.000000</ele>
  <time>2015-02-24T09:47:35Z</time>
  <name>WPT 150</name>
</trkpt>
<trkpt lat="53.842658000" lon="-1.844428000">
  <ele>142.000000</ele>
  <time>2015-02-24T09:47:38Z</time>
  <name>WPT 151</name>
</trkpt>
<trkpt lat="53.842616000" lon="-1.844390000">
  <ele>142.000000</ele>
  <time>2015-02-24T09:47:41Z</time>
  <name>WPT 152</name>
</trkpt>
<trkpt lat="53.842573000" lon="-1.844364000">
  <ele>142.000000</ele>
  <time>2015-02-24T09:47:44Z</time>
  <name>WPT 153</name>
</trkpt>
<trkpt lat="53.842530000" lon="-1.844335000">
  <ele>142.000000</ele>
  <time>2015-02-24T09:47:48Z</time>
  <name>WPT 154</name>
</trkpt>
<trkpt lat="53.842525000" lon="-1.844246000">
  <ele>142.000000</ele>
  <time>2015-02-24T09:47:52Z</time>
  <name>WPT 155</name>
</trkpt>
<trkpt lat="53.842495000" lon="-1.844138000">
  <ele>141.000000</ele>
  <time>2015-02-24T09:47:56Z</time>
  <name>WPT 156</name>
</trkpt>
<trkpt lat="53.842450000" lon="-1.844171000">
  <ele>140.000000</ele>
  <time>2015-02-24T09:48:07Z</time>
  <name>WPT 157</name>
</trkpt>
<trkpt lat="53.842393000" lon="-1.844172000">
  <ele>140.000000</ele>
  <time>2015-02-24T09:48:10Z</time>
  <name>WPT 158</name>
</trkpt>
<trkpt lat="53.842343000" lon="-1.844177000">
  <ele>140.000000</ele>
  <time>2015-02-24T09:48:12Z</time>
  <name>WPT 159</name>
</trkpt>
<trkpt lat="53.842294000" lon="-1.844180000">
  <ele>140.000000</ele>
  <time>2015-02-24T09:48:14Z</time>
  <name>WPT 160</name>
</trkpt>
<trkpt lat="53.842245000" lon="-1.844200000">
  <ele>140.000000</ele>
  <time>2015-02-24T09:48:17Z</time>
  <name>WPT 161</name>
</trkpt>
<trkpt lat="53.842187000" lon="-1.844223000">
  <ele>140.000000</ele>
  <time>2015-02-24T09:48:20Z</time>
  <name>WPT 162</name>
</trkpt>
<trkpt lat="53.842140000" lon="-1.844262000">
  <ele>139.000000</ele>
  <time>2015-02-24T09:48:24Z</time>
  <name>WPT 163</name>
</trkpt>
<trkpt lat="53.842080000" lon="-1.844318000">
  <ele>136.000000</ele>
  <time>2015-02-24T09:48:26Z</time>
  <name>WPT 164</name>
</trkpt>
<trkpt lat="53.842029000" lon="-1.844345000">
  <ele>136.000000</ele>
  <time>2015-02-24T09:48:32Z</time>
  <name>WPT 165</name>
</trkpt>
<trkpt lat="53.841972000" lon="-1.844350000">
  <ele>136.000000</ele>
  <time>2015-02-24T09:48:37Z</time>
  <name>WPT 166</name>
</trkpt>
<trkpt lat="53.841920000" lon="-1.844346000">
  <ele>136.000000</ele>
  <time>2015-02-24T09:48:41Z</time>
  <name>WPT 167</name>
</trkpt>
<trkpt lat="53.841859000" lon="-1.844360000">
  <ele>135.000000</ele>
  <time>2015-02-24T09:48:46Z</time>
  <name>WPT 168</name>
</trkpt>
<trkpt lat="53.841821000" lon="-1.844400000">
  <ele>135.000000</ele>
  <time>2015-02-24T09:48:49Z</time>
  <name>WPT 169</name>
</trkpt>
<trkpt lat="53.841789000" lon="-1.844466000">
  <ele>135.000000</ele>
  <time>2015-02-24T09:48:55Z</time>
  <name>WPT 170</name>
</trkpt>
<trkpt lat="53.841730000" lon="-1.844506000">
  <ele>135.000000</ele>
  <time>2015-02-24T09:49:01Z</time>
  <name>WPT 171</name>
</trkpt>
<trkpt lat="53.841688000" lon="-1.844552000">
  <ele>135.000000</ele>
  <time>2015-02-24T09:49:05Z</time>
  <name>WPT 172</name>
</trkpt>
<trkpt lat="53.841638000" lon="-1.844605000">
  <ele>136.000000</ele>
  <time>2015-02-24T09:49:12Z</time>
  <name>WPT 173</name>
</trkpt>
<trkpt lat="53.841583000" lon="-1.844631000">
  <ele>136.000000</ele>
  <time>2015-02-24T09:49:16Z</time>
  <name>WPT 174</name>
</trkpt>
<trkpt lat="53.841524000" lon="-1.844674000">
  <ele>136.000000</ele>
  <time>2015-02-24T09:49:20Z</time>
  <name>WPT 175</name>
</trkpt>
<trkpt lat="53.841476000" lon="-1.844705000">
  <ele>137.000000</ele>
  <time>2015-02-24T09:49:23Z</time>
  <name>WPT 176</name>
</trkpt>
<trkpt lat="53.841421000" lon="-1.844747000">
  <ele>137.000000</ele>
  <time>2015-02-24T09:49:27Z</time>
  <name>WPT 177</name>
</trkpt>
<trkpt lat="53.841378000" lon="-1.844771000">
  <ele>137.000000</ele>
  <time>2015-02-24T09:49:30Z</time>
  <name>WPT 178</name>
</trkpt>
<trkpt lat="53.841323000" lon="-1.844801000">
  <ele>137.000000</ele>
  <time>2015-02-24T09:49:34Z</time>
  <name>WPT 179</name>
</trkpt>
<trkpt lat="53.841277000" lon="-1.844841000">
  <ele>137.000000</ele>
  <time>2015-02-24T09:49:37Z</time>
  <name>WPT 180</name>
</trkpt>
<trkpt lat="53.841225000" lon="-1.844856000">
  <ele>138.000000</ele>
  <time>2015-02-24T09:49:40Z</time>
  <name>WPT 181</name>
</trkpt>
<trkpt lat="53.841174000" lon="-1.844858000">
  <ele>138.000000</ele>
  <time>2015-02-24T09:49:45Z</time>
  <name>WPT 182</name>
</trkpt>
<trkpt lat="53.841125000" lon="-1.844868000">
  <ele>138.000000</ele>
  <time>2015-02-24T09:49:49Z</time>
  <name>WPT 183</name>
</trkpt>
<trkpt lat="53.841069000" lon="-1.844896000">
  <ele>138.000000</ele>
  <time>2015-02-24T09:49:52Z</time>
  <name>WPT 184</name>
</trkpt>
<trkpt lat="53.841018000" lon="-1.844968000">
  <ele>137.000000</ele>
  <time>2015-02-24T09:49:56Z</time>
  <name>WPT 185</name>
</trkpt>
<trkpt lat="53.840982000" lon="-1.845023000">
  <ele>137.000000</ele>
  <time>2015-02-24T09:49:59Z</time>
  <name>WPT 186</name>
</trkpt>
<trkpt lat="53.840928000" lon="-1.845088000">
  <ele>137.000000</ele>
  <time>2015-02-24T09:50:04Z</time>
  <name>WPT 187</name>
</trkpt>
<trkpt lat="53.840905000" lon="-1.845175000">
  <ele>137.000000</ele>
  <time>2015-02-24T09:50:08Z</time>
  <name>WPT 188</name>
</trkpt>
<trkpt lat="53.840900000" lon="-1.845260000">
  <ele>137.000000</ele>
  <time>2015-02-24T09:50:13Z</time>
  <name>WPT 189</name>
</trkpt>
<trkpt lat="53.840892000" lon="-1.845342000">
  <ele>138.000000</ele>
  <time>2015-02-24T09:50:23Z</time>
  <name>WPT 190</name>
</trkpt>
<trkpt lat="53.840862000" lon="-1.845405000">
  <ele>138.000000</ele>
  <time>2015-02-24T09:50:29Z</time>
  <name>WPT 191</name>
</trkpt>
<trkpt lat="53.840810000" lon="-1.845436000">
  <ele>139.000000</ele>
  <time>2015-02-24T09:50:34Z</time>
  <name>WPT 192</name>
</trkpt>
<trkpt lat="53.840771000" lon="-1.845503000">
  <ele>139.000000</ele>
  <time>2015-02-24T09:50:42Z</time>
  <name>WPT 193</name>
</trkpt>
<trkpt lat="53.840744000" lon="-1.845565000">
  <ele>140.000000</ele>
  <time>2015-02-24T09:50:47Z</time>
  <name>WPT 194</name>
</trkpt>
<trkpt lat="53.840710000" lon="-1.845656000">
  <ele>141.000000</ele>
  <time>2015-02-24T09:50:52Z</time>
  <name>WPT 195</name>
</trkpt>
<trkpt lat="53.840668000" lon="-1.845721000">
  <ele>141.000000</ele>
  <time>2015-02-24T09:50:58Z</time>
  <name>WPT 196</name>
</trkpt>
<trkpt lat="53.840653000" lon="-1.845808000">
  <ele>142.000000</ele>
  <time>2015-02-24T09:51:03Z</time>
  <name>WPT 197</name>
</trkpt>
<trkpt lat="53.840628000" lon="-1.845872000">
  <ele>142.000000</ele>
  <time>2015-02-24T09:51:07Z</time>
  <name>WPT 198</name>
</trkpt>
<trkpt lat="53.840600000" lon="-1.845939000">
  <ele>142.000000</ele>
  <time>2015-02-24T09:51:10Z</time>
  <name>WPT 199</name>
</trkpt>
<trkpt lat="53.840575000" lon="-1.846021000">
  <ele>142.000000</ele>
  <time>2015-02-24T09:51:13Z</time>
  <name>WPT 200</name>
</trkpt>
<trkpt lat="53.840569000" lon="-1.846097000">
  <ele>143.000000</ele>
  <time>2015-02-24T09:51:20Z</time>
  <name>WPT 201</name>
</trkpt>
<trkpt lat="53.840538000" lon="-1.846156000">
  <ele>142.000000</ele>
  <time>2015-02-24T09:51:25Z</time>
  <name>WPT 202</name>
</trkpt>
<trkpt lat="53.840508000" lon="-1.846217000">
  <ele>143.000000</ele>
  <time>2015-02-24T09:51:30Z</time>
  <name>WPT 203</name>
</trkpt>
<trkpt lat="53.840475000" lon="-1.846277000">
  <ele>143.000000</ele>
  <time>2015-02-24T09:51:32Z</time>
  <name>WPT 204</name>
</trkpt>
<trkpt lat="53.840439000" lon="-1.846330000">
  <ele>143.000000</ele>
  <time>2015-02-24T09:51:34Z</time>
  <name>WPT 205</name>
</trkpt>
<trkpt lat="53.840391000" lon="-1.846371000">
  <ele>143.000000</ele>
  <time>2015-02-24T09:51:36Z</time>
  <name>WPT 206</name>
</trkpt>
<trkpt lat="53.840370000" lon="-1.846448000">
  <ele>143.000000</ele>
  <time>2015-02-24T09:51:41Z</time>
  <name>WPT 207</name>
</trkpt>
<trkpt lat="53.840322000" lon="-1.846517000">
  <ele>143.000000</ele>
  <time>2015-02-24T09:51:44Z</time>
  <name>WPT 208</name>
</trkpt>
<trkpt lat="53.840285000" lon="-1.846596000">
  <ele>143.000000</ele>
  <time>2015-02-24T09:51:48Z</time>
  <name>WPT 209</name>
</trkpt>
<trkpt lat="53.840260000" lon="-1.846683000">
  <ele>143.000000</ele>
  <time>2015-02-24T09:51:53Z</time>
  <name>WPT 210</name>
</trkpt>
<trkpt lat="53.840235000" lon="-1.846756000">
  <ele>143.000000</ele>
  <time>2015-02-24T09:51:57Z</time>
  <name>WPT 211</name>
</trkpt>
<trkpt lat="53.840214000" lon="-1.846839000">
  <ele>143.000000</ele>
  <time>2015-02-24T09:52:00Z</time>
  <name>WPT 212</name>
</trkpt>
<trkpt lat="53.840188000" lon="-1.846932000">
  <ele>143.000000</ele>
  <time>2015-02-24T09:52:04Z</time>
  <name>WPT 213</name>
</trkpt>
<trkpt lat="53.840204000" lon="-1.847035000">
  <ele>143.000000</ele>
  <time>2015-02-24T09:52:15Z</time>
  <name>WPT 214</name>
</trkpt>
<trkpt lat="53.840180000" lon="-1.847116000">
  <ele>143.000000</ele>
  <time>2015-02-24T09:52:22Z</time>
  <name>WPT 215</name>
</trkpt>
<trkpt lat="53.840181000" lon="-1.847193000">
  <ele>144.000000</ele>
  <time>2015-02-24T09:52:25Z</time>
  <name>WPT 216</name>
</trkpt>
<trkpt lat="53.840170000" lon="-1.847275000">
  <ele>144.000000</ele>
  <time>2015-02-24T09:52:30Z</time>
  <name>WPT 217</name>
</trkpt>
<trkpt lat="53.840133000" lon="-1.847368000">
  <ele>144.000000</ele>
  <time>2015-02-24T09:52:35Z</time>
  <name>WPT 218</name>
</trkpt>
<trkpt lat="53.840114000" lon="-1.847442000">
  <ele>144.000000</ele>
  <time>2015-02-24T09:52:46Z</time>
  <name>WPT 219</name>
</trkpt>
<trkpt lat="53.840080000" lon="-1.847509000">
  <ele>145.000000</ele>
  <time>2015-02-24T09:52:53Z</time>
  <name>WPT 220</name>
</trkpt>
<trkpt lat="53.840048000" lon="-1.847568000">
  <ele>145.000000</ele>
  <time>2015-02-24T09:52:56Z</time>
  <name>WPT 221</name>
</trkpt>
<trkpt lat="53.840015000" lon="-1.847646000">
  <ele>145.000000</ele>
  <time>2015-02-24T09:52:58Z</time>
  <name>WPT 222</name>
</trkpt>
<trkpt lat="53.839982000" lon="-1.847715000">
  <ele>145.000000</ele>
  <time>2015-02-24T09:53:01Z</time>
  <name>WPT 223</name>
</trkpt>
<trkpt lat="53.839950000" lon="-1.847780000">
  <ele>145.000000</ele>
  <time>2015-02-24T09:53:05Z</time>
  <name>WPT 224</name>
</trkpt>
<trkpt lat="53.839927000" lon="-1.847868000">
  <ele>146.000000</ele>
  <time>2015-02-24T09:53:11Z</time>
  <name>WPT 225</name>
</trkpt>
<trkpt lat="53.839892000" lon="-1.847930000">
  <ele>146.000000</ele>
  <time>2015-02-24T09:53:16Z</time>
  <name>WPT 226</name>
</trkpt>
<trkpt lat="53.839884000" lon="-1.848026000">
  <ele>147.000000</ele>
  <time>2015-02-24T09:53:21Z</time>
  <name>WPT 227</name>
</trkpt>
<trkpt lat="53.839836000" lon="-1.848056000">
  <ele>147.000000</ele>
  <time>2015-02-24T09:53:24Z</time>
  <name>WPT 228</name>
</trkpt>
<trkpt lat="53.839799000" lon="-1.848115000">
  <ele>147.000000</ele>
  <time>2015-02-24T09:53:28Z</time>
  <name>WPT 229</name>
</trkpt>
<trkpt lat="53.839792000" lon="-1.848193000">
  <ele>148.000000</ele>
  <time>2015-02-24T09:53:35Z</time>
  <name>WPT 230</name>
</trkpt>
<trkpt lat="53.839783000" lon="-1.848278000">
  <ele>150.000000</ele>
  <time>2015-02-24T09:53:45Z</time>
  <name>WPT 231</name>
</trkpt>
<trkpt lat="53.839742000" lon="-1.848332000">
  <ele>150.000000</ele>
  <time>2015-02-24T09:53:48Z</time>
  <name>WPT 232</name>
</trkpt>
<trkpt lat="53.839700000" lon="-1.848383000">
  <ele>150.000000</ele>
  <time>2015-02-24T09:53:53Z</time>
  <name>WPT 233</name>
</trkpt>
<trkpt lat="53.839687000" lon="-1.848463000">
  <ele>150.000000</ele>
  <time>2015-02-24T09:53:58Z</time>
  <name>WPT 234</name>
</trkpt>
<trkpt lat="53.839677000" lon="-1.848548000">
  <ele>150.000000</ele>
  <time>2015-02-24T09:54:06Z</time>
  <name>WPT 235</name>
</trkpt>
<trkpt lat="53.839674000" lon="-1.848669000">
  <ele>150.000000</ele>
  <time>2015-02-24T09:54:09Z</time>
  <name>WPT 236</name>
</trkpt>
<trkpt lat="53.839650000" lon="-1.848746000">
  <ele>150.000000</ele>
  <time>2015-02-24T09:54:12Z</time>
  <name>WPT 237</name>
</trkpt>
<trkpt lat="53.839603000" lon="-1.848779000">
  <ele>149.000000</ele>
  <time>2015-02-24T09:54:17Z</time>
  <name>WPT 238</name>
</trkpt>
<trkpt lat="53.839563000" lon="-1.848825000">
  <ele>150.000000</ele>
  <time>2015-02-24T09:54:22Z</time>
  <name>WPT 239</name>
</trkpt>
<trkpt lat="53.839554000" lon="-1.848901000">
  <ele>150.000000</ele>
  <time>2015-02-24T09:54:27Z</time>
  <name>WPT 240</name>
</trkpt>
<trkpt lat="53.839579000" lon="-1.848980000">
  <ele>151.000000</ele>
  <time>2015-02-24T09:54:31Z</time>
  <name>WPT 241</name>
</trkpt>
<trkpt lat="53.839545000" lon="-1.848926000">
  <ele>151.000000</ele>
  <time>2015-02-24T09:54:36Z</time>
  <name>WPT 242</name>
</trkpt>
<trkpt lat="53.839542000" lon="-1.849024000">
  <ele>151.000000</ele>
  <time>2015-02-24T09:54:43Z</time>
  <name>WPT 243</name>
</trkpt>
<trkpt lat="53.839523000" lon="-1.849103000">
  <ele>151.000000</ele>
  <time>2015-02-24T09:54:49Z</time>
  <name>WPT 244</name>
</trkpt>
<trkpt lat="53.839473000" lon="-1.849185000">
  <ele>151.000000</ele>
  <time>2015-02-24T09:54:54Z</time>
  <name>WPT 245</name>
</trkpt>
<trkpt lat="53.839454000" lon="-1.849261000">
  <ele>151.000000</ele>
  <time>2015-02-24T09:54:58Z</time>
  <name>WPT 246</name>
</trkpt>
<trkpt lat="53.839422000" lon="-1.849315000">
  <ele>151.000000</ele>
  <time>2015-02-24T09:55:00Z</time>
  <name>WPT 247</name>
</trkpt>
<trkpt lat="53.839410000" lon="-1.849391000">
  <ele>151.000000</ele>
  <time>2015-02-24T09:55:07Z</time>
  <name>WPT 248</name>
</trkpt>
<trkpt lat="53.839369000" lon="-1.849442000">
  <ele>152.000000</ele>
  <time>2015-02-24T09:55:11Z</time>
  <name>WPT 249</name>
</trkpt>
<trkpt lat="53.839338000" lon="-1.849504000">
  <ele>151.000000</ele>
  <time>2015-02-24T09:55:17Z</time>
  <name>WPT 250</name>
</trkpt>
<trkpt lat="53.839319000" lon="-1.849601000">
  <ele>151.000000</ele>
  <time>2015-02-24T09:55:23Z</time>
  <name>WPT 251</name>
</trkpt>
<trkpt lat="53.839284000" lon="-1.849661000">
  <ele>151.000000</ele>
  <time>2015-02-24T09:55:26Z</time>
  <name>WPT 252</name>
</trkpt>
<trkpt lat="53.839245000" lon="-1.849704000">
  <ele>151.000000</ele>
  <time>2015-02-24T09:55:31Z</time>
  <name>WPT 253</name>
</trkpt>
<trkpt lat="53.839187000" lon="-1.849717000">
  <ele>151.000000</ele>
  <time>2015-02-24T09:55:36Z</time>
  <name>WPT 254</name>
</trkpt>
<trkpt lat="53.839129000" lon="-1.849751000">
  <ele>152.000000</ele>
  <time>2015-02-24T09:55:41Z</time>
  <name>WPT 255</name>
</trkpt>
<trkpt lat="53.839086000" lon="-1.849776000">
  <ele>152.000000</ele>
  <time>2015-02-24T09:55:47Z</time>
  <name>WPT 256</name>
</trkpt>
<trkpt lat="53.839027000" lon="-1.849819000">
  <ele>152.000000</ele>
  <time>2015-02-24T09:55:52Z</time>
  <name>WPT 257</name>
</trkpt>
<trkpt lat="53.838996000" lon="-1.849876000">
  <ele>152.000000</ele>
  <time>2015-02-24T09:55:54Z</time>
  <name>WPT 258</name>
</trkpt>
<trkpt lat="53.838971000" lon="-1.849973000">
  <ele>153.000000</ele>
  <time>2015-02-24T09:55:56Z</time>
  <name>WPT 259</name>
</trkpt>
<trkpt lat="53.838959000" lon="-1.850050000">
  <ele>153.000000</ele>
  <time>2015-02-24T09:56:00Z</time>
  <name>WPT 260</name>
</trkpt>
<trkpt lat="53.838945000" lon="-1.850129000">
  <ele>154.000000</ele>
  <time>2015-02-24T09:56:06Z</time>
  <name>WPT 261</name>
</trkpt>
<trkpt lat="53.838952000" lon="-1.850220000">
  <ele>155.000000</ele>
  <time>2015-02-24T09:56:16Z</time>
  <name>WPT 262</name>
</trkpt>
<trkpt lat="53.838937000" lon="-1.850295000">
  <ele>155.000000</ele>
  <time>2015-02-24T09:56:21Z</time>
  <name>WPT 263</name>
</trkpt>
<trkpt lat="53.838914000" lon="-1.850360000">
  <ele>156.000000</ele>
  <time>2015-02-24T09:56:25Z</time>
  <name>WPT 264</name>
</trkpt>
<trkpt lat="53.838881000" lon="-1.850426000">
  <ele>156.000000</ele>
  <time>2015-02-24T09:56:32Z</time>
  <name>WPT 265</name>
</trkpt>
<trkpt lat="53.838841000" lon="-1.850480000">
  <ele>155.000000</ele>
  <time>2015-02-24T09:56:36Z</time>
  <name>WPT 266</name>
</trkpt>
<trkpt lat="53.838800000" lon="-1.850543000">
  <ele>156.000000</ele>
  <time>2015-02-24T09:56:41Z</time>
  <name>WPT 267</name>
</trkpt>
<trkpt lat="53.838756000" lon="-1.850628000">
  <ele>156.000000</ele>
  <time>2015-02-24T09:56:44Z</time>
  <name>WPT 268</name>
</trkpt>
<trkpt lat="53.838730000" lon="-1.850700000">
  <ele>157.000000</ele>
  <time>2015-02-24T09:56:51Z</time>
  <name>WPT 269</name>
</trkpt>
<trkpt lat="53.838719000" lon="-1.850779000">
  <ele>158.000000</ele>
  <time>2015-02-24T09:56:56Z</time>
  <name>WPT 270</name>
</trkpt>
<trkpt lat="53.838696000" lon="-1.850847000">
  <ele>158.000000</ele>
  <time>2015-02-24T09:57:00Z</time>
  <name>WPT 271</name>
</trkpt>
<trkpt lat="53.838652000" lon="-1.850900000">
  <ele>158.000000</ele>
  <time>2015-02-24T09:57:05Z</time>
  <name>WPT 272</name>
</trkpt>
<trkpt lat="53.838628000" lon="-1.850978000">
  <ele>160.000000</ele>
  <time>2015-02-24T09:57:17Z</time>
  <name>WPT 273</name>
</trkpt>
<trkpt lat="53.838556000" lon="-1.850930000">
  <ele>161.000000</ele>
  <time>2015-02-24T09:57:52Z</time>
  <name>WPT 274</name>
</trkpt>
<trkpt lat="53.838614000" lon="-1.850940000">
  <ele>162.000000</ele>
  <time>2015-02-24T09:58:52Z</time>
  <name>WPT 275</name>
</trkpt>
<trkpt lat="53.838571000" lon="-1.850964000">
  <ele>163.000000</ele>
  <time>2015-02-24T09:59:17Z</time>
  <name>WPT 276</name>
</trkpt>
<trkpt lat="53.838614000" lon="-1.850874000">
  <ele>162.000000</ele>
  <time>2015-02-24T10:00:00Z</time>
  <name>WPT 277</name>
</trkpt>
<trkpt lat="53.838632000" lon="-1.850956000">
  <ele>161.000000</ele>
  <time>2015-02-24T10:01:04Z</time>
  <name>WPT 278</name>
</trkpt>
<trkpt lat="53.838580000" lon="-1.850973000">
  <ele>156.000000</ele>
  <time>2015-02-24T10:02:09Z</time>
  <name>WPT 279</name>
</trkpt>
<trkpt lat="53.838529000" lon="-1.850968000">
  <ele>161.000000</ele>
  <time>2015-02-24T10:02:30Z</time>
  <name>WPT 280</name>
</trkpt>
<trkpt lat="53.838489000" lon="-1.851004000">
  <ele>165.000000</ele>
  <time>2015-02-24T10:02:40Z</time>
  <name>WPT 281</name>
</trkpt>
<trkpt lat="53.838504000" lon="-1.851076000">
  <ele>171.000000</ele>
  <time>2015-02-24T10:02:55Z</time>
  <name>WPT 282</name>
</trkpt>
<trkpt lat="53.838472000" lon="-1.851139000">
  <ele>172.000000</ele>
  <time>2015-02-24T10:03:01Z</time>
  <name>WPT 283</name>
</trkpt>
<trkpt lat="53.838447000" lon="-1.851214000">
  <ele>175.000000</ele>
  <time>2015-02-24T10:03:07Z</time>
  <name>WPT 284</name>
</trkpt>
<trkpt lat="53.838426000" lon="-1.851292000">
  <ele>176.000000</ele>
  <time>2015-02-24T10:03:12Z</time>
  <name>WPT 285</name>
</trkpt>
<trkpt lat="53.838413000" lon="-1.851382000">
  <ele>177.000000</ele>
  <time>2015-02-24T10:03:15Z</time>
  <name>WPT 286</name>
</trkpt>
<trkpt lat="53.838374000" lon="-1.851437000">
  <ele>181.000000</ele>
  <time>2015-02-24T10:03:32Z</time>
  <name>WPT 287</name>
</trkpt>
<trkpt lat="53.838371000" lon="-1.851542000">
  <ele>182.000000</ele>
  <time>2015-02-24T10:03:34Z</time>
  <name>WPT 288</name>
</trkpt>
<trkpt lat="53.838403000" lon="-1.851621000">
  <ele>183.000000</ele>
  <time>2015-02-24T10:03:39Z</time>
  <name>WPT 289</name>
</trkpt>
<trkpt lat="53.838437000" lon="-1.851685000">
  <ele>184.000000</ele>
  <time>2015-02-24T10:03:43Z</time>
  <name>WPT 290</name>
</trkpt>
<trkpt lat="53.838451000" lon="-1.851759000">
  <ele>184.000000</ele>
  <time>2015-02-24T10:03:48Z</time>
  <name>WPT 291</name>
</trkpt>
<trkpt lat="53.838457000" lon="-1.851835000">
  <ele>185.000000</ele>
  <time>2015-02-24T10:03:50Z</time>
  <name>WPT 292</name>
</trkpt>
<trkpt lat="53.838456000" lon="-1.851928000">
  <ele>186.000000</ele>
  <time>2015-02-24T10:03:57Z</time>
  <name>WPT 293</name>
</trkpt>
<trkpt lat="53.838403000" lon="-1.851969000">
  <ele>187.000000</ele>
  <time>2015-02-24T10:04:01Z</time>
  <name>WPT 294</name>
</trkpt>
<trkpt lat="53.838415000" lon="-1.852043000">
  <ele>188.000000</ele>
  <time>2015-02-24T10:04:05Z</time>
  <name>WPT 295</name>
</trkpt>
<trkpt lat="53.838383000" lon="-1.852105000">
  <ele>188.000000</ele>
  <time>2015-02-24T10:04:08Z</time>
  <name>WPT 296</name>
</trkpt>
<trkpt lat="53.838398000" lon="-1.852178000">
  <ele>188.000000</ele>
  <time>2015-02-24T10:04:10Z</time>
  <name>WPT 297</name>
</trkpt>
<trkpt lat="53.838335000" lon="-1.852242000">
  <ele>188.000000</ele>
  <time>2015-02-24T10:04:12Z</time>
  <name>WPT 298</name>
</trkpt>
<trkpt lat="53.838291000" lon="-1.852265000">
  <ele>188.000000</ele>
  <time>2015-02-24T10:04:16Z</time>
  <name>WPT 299</name>
</trkpt>
<trkpt lat="53.838271000" lon="-1.852338000">
  <ele>188.000000</ele>
  <time>2015-02-24T10:04:20Z</time>
  <name>WPT 300</name>
</trkpt>
<trkpt lat="53.838236000" lon="-1.852393000">
  <ele>189.000000</ele>
  <time>2015-02-24T10:04:32Z</time>
  <name>WPT 301</name>
</trkpt>
<trkpt lat="53.838230000" lon="-1.852474000">
  <ele>189.000000</ele>
  <time>2015-02-24T10:04:40Z</time>
  <name>WPT 302</name>
</trkpt>
<trkpt lat="53.838201000" lon="-1.852544000">
  <ele>189.000000</ele>
  <time>2015-02-24T10:04:52Z</time>
  <name>WPT 303</name>
</trkpt>
<trkpt lat="53.838165000" lon="-1.852597000">
  <ele>191.000000</ele>
  <time>2015-02-24T10:05:05Z</time>
  <name>WPT 304</name>
</trkpt>
<trkpt lat="53.838126000" lon="-1.852663000">
  <ele>193.000000</ele>
  <time>2015-02-24T10:05:09Z</time>
  <name>WPT 305</name>
</trkpt>
<trkpt lat="53.838098000" lon="-1.852727000">
  <ele>195.000000</ele>
  <time>2015-02-24T10:05:24Z</time>
  <name>WPT 306</name>
</trkpt>
<trkpt lat="53.838047000" lon="-1.852760000">
  <ele>195.000000</ele>
  <time>2015-02-24T10:05:32Z</time>
  <name>WPT 307</name>
</trkpt>
<trkpt lat="53.838007000" lon="-1.852813000">
  <ele>194.000000</ele>
  <time>2015-02-24T10:05:36Z</time>
  <name>WPT 308</name>
</trkpt>
<trkpt lat="53.837979000" lon="-1.852880000">
  <ele>194.000000</ele>
  <time>2015-02-24T10:05:46Z</time>
  <name>WPT 309</name>
</trkpt>
<trkpt lat="53.837934000" lon="-1.852899000">
  <ele>195.000000</ele>
  <time>2015-02-24T10:05:58Z</time>
  <name>WPT 310</name>
</trkpt>
<trkpt lat="53.837882000" lon="-1.852950000">
  <ele>195.000000</ele>
  <time>2015-02-24T10:06:02Z</time>
  <name>WPT 311</name>
</trkpt>
<trkpt lat="53.837845000" lon="-1.853003000">
  <ele>196.000000</ele>
  <time>2015-02-24T10:06:06Z</time>
  <name>WPT 312</name>
</trkpt>
<trkpt lat="53.837790000" lon="-1.853036000">
  <ele>198.000000</ele>
  <time>2015-02-24T10:06:23Z</time>
  <name>WPT 313</name>
</trkpt>
<trkpt lat="53.837766000" lon="-1.853109000">
  <ele>198.000000</ele>
  <time>2015-02-24T10:06:30Z</time>
  <name>WPT 314</name>
</trkpt>
<trkpt lat="53.837727000" lon="-1.853176000">
  <ele>198.000000</ele>
  <time>2015-02-24T10:06:53Z</time>
  <name>WPT 315</name>
</trkpt>
<trkpt lat="53.837726000" lon="-1.853272000">
  <ele>200.000000</ele>
  <time>2015-02-24T10:06:58Z</time>
  <name>WPT 316</name>
</trkpt>
<trkpt lat="53.837679000" lon="-1.853278000">
  <ele>201.000000</ele>
  <time>2015-02-24T10:07:02Z</time>
  <name>WPT 317</name>
</trkpt>
<trkpt lat="53.837628000" lon="-1.853253000">
  <ele>201.000000</ele>
  <time>2015-02-24T10:07:05Z</time>
  <name>WPT 318</name>
</trkpt>
<trkpt lat="53.837541000" lon="-1.853313000">
  <ele>209.000000</ele>
  <time>2015-02-24T10:09:12Z</time>
  <name>WPT 328</name>
</trkpt>
<trkpt lat="53.837518000" lon="-1.853173000">
  <ele>210.000000</ele>
  <time>2015-02-24T10:09:33Z</time>
  <name>WPT 330</name>
</trkpt>
<trkpt lat="53.837540000" lon="-1.853097000">
  <ele>210.000000</ele>
  <time>2015-02-24T10:09:48Z</time>
  <name>WPT 331</name>
</trkpt>
<trkpt lat="53.837554000" lon="-1.853005000">
  <ele>210.000000</ele>
  <time>2015-02-24T10:09:59Z</time>
  <name>WPT 332</name>
</trkpt>
<trkpt lat="53.837562000" lon="-1.852923000">
  <ele>210.000000</ele>
  <time>2015-02-24T10:10:01Z</time>
  <name>WPT 333</name>
</trkpt>
<trkpt lat="53.837539000" lon="-1.852854000">
  <ele>210.000000</ele>
  <time>2015-02-24T10:10:04Z</time>
  <name>WPT 334</name>
</trkpt>
<trkpt lat="53.837539000" lon="-1.852748000">
  <ele>210.000000</ele>
  <time>2015-02-24T10:10:07Z</time>
  <name>WPT 335</name>
</trkpt>
<trkpt lat="53.837529000" lon="-1.852651000">
  <ele>210.000000</ele>
  <time>2015-02-24T10:10:11Z</time>
  <name>WPT 336</name>
</trkpt>
<trkpt lat="53.837520000" lon="-1.852570000">
  <ele>210.000000</ele>
  <time>2015-02-24T10:10:18Z</time>
  <name>WPT 337</name>
</trkpt>
<trkpt lat="53.837494000" lon="-1.852491000">
  <ele>210.000000</ele>
  <time>2015-02-24T10:10:22Z</time>
  <name>WPT 338</name>
</trkpt>
<trkpt lat="53.837487000" lon="-1.852409000">
  <ele>211.000000</ele>
  <time>2015-02-24T10:10:26Z</time>
  <name>WPT 339</name>
</trkpt>
<trkpt lat="53.837480000" lon="-1.852318000">
  <ele>211.000000</ele>
  <time>2015-02-24T10:10:31Z</time>
  <name>WPT 340</name>
</trkpt>
<trkpt lat="53.837453000" lon="-1.852238000">
  <ele>212.000000</ele>
  <time>2015-02-24T10:10:34Z</time>
  <name>WPT 341</name>
</trkpt>
<trkpt lat="53.837454000" lon="-1.852150000">
  <ele>213.000000</ele>
  <time>2015-02-24T10:10:39Z</time>
  <name>WPT 342</name>
</trkpt>
<trkpt lat="53.837468000" lon="-1.852021000">
  <ele>213.000000</ele>
  <time>2015-02-24T10:10:45Z</time>
  <name>WPT 343</name>
</trkpt>
<trkpt lat="53.837451000" lon="-1.851913000">
  <ele>214.000000</ele>
  <time>2015-02-24T10:10:50Z</time>
  <name>WPT 344</name>
</trkpt>
<trkpt lat="53.837443000" lon="-1.851833000">
  <ele>215.000000</ele>
  <time>2015-02-24T10:10:56Z</time>
  <name>WPT 345</name>
</trkpt>
<trkpt lat="53.837427000" lon="-1.851744000">
  <ele>215.000000</ele>
  <time>2015-02-24T10:10:59Z</time>
  <name>WPT 346</name>
</trkpt>
<trkpt lat="53.837429000" lon="-1.851649000">
  <ele>215.000000</ele>
  <time>2015-02-24T10:11:01Z</time>
  <name>WPT 347</name>
</trkpt>
<trkpt lat="53.837449000" lon="-1.851545000">
  <ele>215.000000</ele>
  <time>2015-02-24T10:11:03Z</time>
  <name>WPT 348</name>
</trkpt>
<trkpt lat="53.837462000" lon="-1.851451000">
  <ele>215.000000</ele>
  <time>2015-02-24T10:11:05Z</time>
  <name>WPT 349</name>
</trkpt>
<trkpt lat="53.837459000" lon="-1.851372000">
  <ele>216.000000</ele>
  <time>2015-02-24T10:11:08Z</time>
  <name>WPT 350</name>
</trkpt>
<trkpt lat="53.837471000" lon="-1.851287000">
  <ele>216.000000</ele>
  <time>2015-02-24T10:11:11Z</time>
  <name>WPT 351</name>
</trkpt>
<trkpt lat="53.837484000" lon="-1.851183000">
  <ele>216.000000</ele>
  <time>2015-02-24T10:11:15Z</time>
  <name>WPT 352</name>
</trkpt>
<trkpt lat="53.837455000" lon="-1.851088000">
  <ele>217.000000</ele>
  <time>2015-02-24T10:11:21Z</time>
  <name>WPT 353</name>
</trkpt>
<trkpt lat="53.837429000" lon="-1.850973000">
  <ele>217.000000</ele>
  <time>2015-02-24T10:11:24Z</time>
  <name>WPT 354</name>
</trkpt>
<trkpt lat="53.837424000" lon="-1.850896000">
  <ele>218.000000</ele>
  <time>2015-02-24T10:11:27Z</time>
  <name>WPT 355</name>
</trkpt>
<trkpt lat="53.837431000" lon="-1.850818000">
  <ele>218.000000</ele>
  <time>2015-02-24T10:11:31Z</time>
  <name>WPT 356</name>
</trkpt>
<trkpt lat="53.837424000" lon="-1.850724000">
  <ele>218.000000</ele>
  <time>2015-02-24T10:11:39Z</time>
  <name>WPT 357</name>
</trkpt>
<trkpt lat="53.837409000" lon="-1.850626000">
  <ele>218.000000</ele>
  <time>2015-02-24T10:11:41Z</time>
  <name>WPT 358</name>
</trkpt>
<trkpt lat="53.837386000" lon="-1.850536000">
  <ele>218.000000</ele>
  <time>2015-02-24T10:11:46Z</time>
  <name>WPT 359</name>
</trkpt>
<trkpt lat="53.837374000" lon="-1.850435000">
  <ele>218.000000</ele>
  <time>2015-02-24T10:11:49Z</time>
  <name>WPT 360</name>
</trkpt>
<trkpt lat="53.837378000" lon="-1.850351000">
  <ele>218.000000</ele>
  <time>2015-02-24T10:11:53Z</time>
  <name>WPT 361</name>
</trkpt>
<trkpt lat="53.837376000" lon="-1.850247000">
  <ele>219.000000</ele>
  <time>2015-02-24T10:11:58Z</time>
  <name>WPT 362</name>
</trkpt>
<trkpt lat="53.837355000" lon="-1.850146000">
  <ele>219.000000</ele>
  <time>2015-02-24T10:12:03Z</time>
  <name>WPT 363</name>
</trkpt>
<trkpt lat="53.837343000" lon="-1.850059000">
  <ele>219.000000</ele>
  <time>2015-02-24T10:12:05Z</time>
  <name>WPT 364</name>
</trkpt>
<trkpt lat="53.837324000" lon="-1.849986000">
  <ele>219.000000</ele>
  <time>2015-02-24T10:12:09Z</time>
  <name>WPT 365</name>
</trkpt>
<trkpt lat="53.837308000" lon="-1.849906000">
  <ele>219.000000</ele>
  <time>2015-02-24T10:12:15Z</time>
  <name>WPT 366</name>
</trkpt>
<trkpt lat="53.837332000" lon="-1.849839000">
  <ele>219.000000</ele>
  <time>2015-02-24T10:12:19Z</time>
  <name>WPT 367</name>
</trkpt>
<trkpt lat="53.837318000" lon="-1.849763000">
  <ele>219.000000</ele>
  <time>2015-02-24T10:12:21Z</time>
  <name>WPT 368</name>
</trkpt>
<trkpt lat="53.837292000" lon="-1.849658000">
  <ele>219.000000</ele>
  <time>2015-02-24T10:12:23Z</time>
  <name>WPT 369</name>
</trkpt>
<trkpt lat="53.837280000" lon="-1.849544000">
  <ele>218.000000</ele>
  <time>2015-02-24T10:12:30Z</time>
  <name>WPT 370</name>
</trkpt>
<trkpt lat="53.837276000" lon="-1.849462000">
  <ele>218.000000</ele>
  <time>2015-02-24T10:12:36Z</time>
  <name>WPT 371</name>
</trkpt>
<trkpt lat="53.837239000" lon="-1.849335000">
  <ele>218.000000</ele>
  <time>2015-02-24T10:12:40Z</time>
  <name>WPT 372</name>
</trkpt>
<trkpt lat="53.837156000" lon="-1.849323000">
  <ele>218.000000</ele>
  <time>2015-02-24T10:12:44Z</time>
  <name>WPT 373</name>
</trkpt>
<trkpt lat="53.837169000" lon="-1.849242000">
  <ele>218.000000</ele>
  <time>2015-02-24T10:12:50Z</time>
  <name>WPT 374</name>
</trkpt>
<trkpt lat="53.837151000" lon="-1.849121000">
  <ele>218.000000</ele>
  <time>2015-02-24T10:12:52Z</time>
  <name>WPT 375</name>
</trkpt>
<trkpt lat="53.837112000" lon="-1.849049000">
  <ele>218.000000</ele>
  <time>2015-02-24T10:12:59Z</time>
  <name>WPT 376</name>
</trkpt>
<trkpt lat="53.837091000" lon="-1.848980000">
  <ele>218.000000</ele>
  <time>2015-02-24T10:13:04Z</time>
  <name>WPT 377</name>
</trkpt>
<trkpt lat="53.837092000" lon="-1.848882000">
  <ele>218.000000</ele>
  <time>2015-02-24T10:13:08Z</time>
  <name>WPT 378</name>
</trkpt>
<trkpt lat="53.837116000" lon="-1.848808000">
  <ele>217.000000</ele>
  <time>2015-02-24T10:13:10Z</time>
  <name>WPT 379</name>
</trkpt>
<trkpt lat="53.837111000" lon="-1.848705000">
  <ele>217.000000</ele>
  <time>2015-02-24T10:13:13Z</time>
  <name>WPT 380</name>
</trkpt>
<trkpt lat="53.837093000" lon="-1.848576000">
  <ele>217.000000</ele>
  <time>2015-02-24T10:13:15Z</time>
  <name>WPT 381</name>
</trkpt>
<trkpt lat="53.837077000" lon="-1.848489000">
  <ele>217.000000</ele>
  <time>2015-02-24T10:13:19Z</time>
  <name>WPT 382</name>
</trkpt>
<trkpt lat="53.837086000" lon="-1.848387000">
  <ele>216.000000</ele>
  <time>2015-02-24T10:13:23Z</time>
  <name>WPT 383</name>
</trkpt>
<trkpt lat="53.837046000" lon="-1.848337000">
  <ele>217.000000</ele>
  <time>2015-02-24T10:13:33Z</time>
  <name>WPT 384</name>
</trkpt>
<trkpt lat="53.837072000" lon="-1.848246000">
  <ele>218.000000</ele>
  <time>2015-02-24T10:13:41Z</time>
  <name>WPT 385</name>
</trkpt>
<trkpt lat="53.837080000" lon="-1.848154000">
  <ele>218.000000</ele>
  <time>2015-02-24T10:13:48Z</time>
  <name>WPT 386</name>
</trkpt>
<trkpt lat="53.837095000" lon="-1.848075000">
  <ele>218.000000</ele>
  <time>2015-02-24T10:13:51Z</time>
  <name>WPT 387</name>
</trkpt>
<trkpt lat="53.837114000" lon="-1.847990000">
  <ele>218.000000</ele>
  <time>2015-02-24T10:13:56Z</time>
  <name>WPT 388</name>
</trkpt>
<trkpt lat="53.837109000" lon="-1.847830000">
  <ele>218.000000</ele>
  <time>2015-02-24T10:13:58Z</time>
  <name>WPT 389</name>
</trkpt>
<trkpt lat="53.837090000" lon="-1.847722000">
  <ele>218.000000</ele>
  <time>2015-02-24T10:14:00Z</time>
  <name>WPT 390</name>
</trkpt>
<trkpt lat="53.837095000" lon="-1.847646000">
  <ele>218.000000</ele>
  <time>2015-02-24T10:14:03Z</time>
  <name>WPT 391</name>
</trkpt>
<trkpt lat="53.837093000" lon="-1.847569000">
  <ele>218.000000</ele>
  <time>2015-02-24T10:14:09Z</time>
  <name>WPT 392</name>
</trkpt>
<trkpt lat="53.837103000" lon="-1.847486000">
  <ele>217.000000</ele>
  <time>2015-02-24T10:14:13Z</time>
  <name>WPT 393</name>
</trkpt>
<trkpt lat="53.837090000" lon="-1.847402000">
  <ele>217.000000</ele>
  <time>2015-02-24T10:14:19Z</time>
  <name>WPT 394</name>
</trkpt>
<trkpt lat="53.837057000" lon="-1.847349000">
  <ele>216.000000</ele>
  <time>2015-02-24T10:14:22Z</time>
  <name>WPT 395</name>
</trkpt>
<trkpt lat="53.837055000" lon="-1.847271000">
  <ele>216.000000</ele>
  <time>2015-02-24T10:14:25Z</time>
  <name>WPT 396</name>
</trkpt>
<trkpt lat="53.837010000" lon="-1.847225000">
  <ele>216.000000</ele>
  <time>2015-02-24T10:14:28Z</time>
  <name>WPT 397</name>
</trkpt>
<trkpt lat="53.836977000" lon="-1.847166000">
  <ele>216.000000</ele>
  <time>2015-02-24T10:14:31Z</time>
  <name>WPT 398</name>
</trkpt>
<trkpt lat="53.836944000" lon="-1.847104000">
  <ele>216.000000</ele>
  <time>2015-02-24T10:14:34Z</time>
  <name>WPT 399</name>
</trkpt>
<trkpt lat="53.836921000" lon="-1.847016000">
  <ele>216.000000</ele>
  <time>2015-02-24T10:14:37Z</time>
  <name>WPT 400</name>
</trkpt>
<trkpt lat="53.836891000" lon="-1.846918000">
  <ele>216.000000</ele>
  <time>2015-02-24T10:14:47Z</time>
  <name>WPT 401</name>
</trkpt>
<trkpt lat="53.836904000" lon="-1.846786000">
  <ele>216.000000</ele>
  <time>2015-02-24T10:14:51Z</time>
  <name>WPT 402</name>
</trkpt>
<trkpt lat="53.836913000" lon="-1.846686000">
  <ele>216.000000</ele>
  <time>2015-02-24T10:14:53Z</time>
  <name>WPT 403</name>
</trkpt>
<trkpt lat="53.836933000" lon="-1.846602000">
  <ele>215.000000</ele>
  <time>2015-02-24T10:14:56Z</time>
  <name>WPT 404</name>
</trkpt>
<trkpt lat="53.836926000" lon="-1.846500000">
  <ele>216.000000</ele>
  <time>2015-02-24T10:15:00Z</time>
  <name>WPT 405</name>
</trkpt>
<trkpt lat="53.836914000" lon="-1.846423000">
  <ele>216.000000</ele>
  <time>2015-02-24T10:15:02Z</time>
  <name>WPT 406</name>
</trkpt>
<trkpt lat="53.836899000" lon="-1.846336000">
  <ele>215.000000</ele>
  <time>2015-02-24T10:15:04Z</time>
  <name>WPT 407</name>
</trkpt>
<trkpt lat="53.836887000" lon="-1.846236000">
  <ele>215.000000</ele>
  <time>2015-02-24T10:15:10Z</time>
  <name>WPT 408</name>
</trkpt>
<trkpt lat="53.836885000" lon="-1.846145000">
  <ele>215.000000</ele>
  <time>2015-02-24T10:15:14Z</time>
  <name>WPT 409</name>
</trkpt>
<trkpt lat="53.836870000" lon="-1.846052000">
  <ele>215.000000</ele>
  <time>2015-02-24T10:15:19Z</time>
  <name>WPT 410</name>
</trkpt>
<trkpt lat="53.836877000" lon="-1.845974000">
  <ele>215.000000</ele>
  <time>2015-02-24T10:15:22Z</time>
  <name>WPT 411</name>
</trkpt>
<trkpt lat="53.836849000" lon="-1.845887000">
  <ele>214.000000</ele>
  <time>2015-02-24T10:15:25Z</time>
  <name>WPT 412</name>
</trkpt>
<trkpt lat="53.836863000" lon="-1.845805000">
  <ele>214.000000</ele>
  <time>2015-02-24T10:15:30Z</time>
  <name>WPT 413</name>
</trkpt>
<trkpt lat="53.836840000" lon="-1.845685000">
  <ele>215.000000</ele>
  <time>2015-02-24T10:15:34Z</time>
  <name>WPT 414</name>
</trkpt>
<trkpt lat="53.836818000" lon="-1.845575000">
  <ele>215.000000</ele>
  <time>2015-02-24T10:15:37Z</time>
  <name>WPT 415</name>
</trkpt>
<trkpt lat="53.836804000" lon="-1.845486000">
  <ele>215.000000</ele>
  <time>2015-02-24T10:15:40Z</time>
  <name>WPT 416</name>
</trkpt>
<trkpt lat="53.836776000" lon="-1.845420000">
  <ele>215.000000</ele>
  <time>2015-02-24T10:15:45Z</time>
  <name>WPT 417</name>
</trkpt>
<trkpt lat="53.836764000" lon="-1.845344000">
  <ele>215.000000</ele>
  <time>2015-02-24T10:15:49Z</time>
  <name>WPT 418</name>
</trkpt>
<trkpt lat="53.836774000" lon="-1.845246000">
  <ele>215.000000</ele>
  <time>2015-02-24T10:15:54Z</time>
  <name>WPT 419</name>
</trkpt>
<trkpt lat="53.836753000" lon="-1.845158000">
  <ele>215.000000</ele>
  <time>2015-02-24T10:16:00Z</time>
  <name>WPT 420</name>
</trkpt>
<trkpt lat="53.836727000" lon="-1.845068000">
  <ele>215.000000</ele>
  <time>2015-02-24T10:16:03Z</time>
  <name>WPT 421</name>
</trkpt>
<trkpt lat="53.836693000" lon="-1.845000000">
  <ele>215.000000</ele>
  <time>2015-02-24T10:16:06Z</time>
  <name>WPT 422</name>
</trkpt>
<trkpt lat="53.836653000" lon="-1.844965000">
  <ele>215.000000</ele>
  <time>2015-02-24T10:16:09Z</time>
  <name>WPT 423</name>
</trkpt>
<trkpt lat="53.836620000" lon="-1.844907000">
  <ele>215.000000</ele>
  <time>2015-02-24T10:16:12Z</time>
  <name>WPT 424</name>
</trkpt>
<trkpt lat="53.836600000" lon="-1.844828000">
  <ele>215.000000</ele>
  <time>2015-02-24T10:16:16Z</time>
  <name>WPT 425</name>
</trkpt>
<trkpt lat="53.836576000" lon="-1.844730000">
  <ele>216.000000</ele>
  <time>2015-02-24T10:16:19Z</time>
  <name>WPT 426</name>
</trkpt>
<trkpt lat="53.836568000" lon="-1.844651000">
  <ele>216.000000</ele>
  <time>2015-02-24T10:16:21Z</time>
  <name>WPT 427</name>
</trkpt>
<trkpt lat="53.836579000" lon="-1.844574000">
  <ele>216.000000</ele>
  <time>2015-02-24T10:16:25Z</time>
  <name>WPT 428</name>
</trkpt>
<trkpt lat="53.836573000" lon="-1.844482000">
  <ele>215.000000</ele>
  <time>2015-02-24T10:16:29Z</time>
  <name>WPT 429</name>
</trkpt>
<trkpt lat="53.836553000" lon="-1.844384000">
  <ele>215.000000</ele>
  <time>2015-02-24T10:16:33Z</time>
  <name>WPT 430</name>
</trkpt>
<trkpt lat="53.836507000" lon="-1.844326000">
  <ele>216.000000</ele>
  <time>2015-02-24T10:16:40Z</time>
  <name>WPT 431</name>
</trkpt>
<trkpt lat="53.836473000" lon="-1.844270000">
  <ele>216.000000</ele>
  <time>2015-02-24T10:16:44Z</time>
  <name>WPT 432</name>
</trkpt>
<trkpt lat="53.836442000" lon="-1.844210000">
  <ele>217.000000</ele>
  <time>2015-02-24T10:16:52Z</time>
  <name>WPT 433</name>
</trkpt>
<trkpt lat="53.836432000" lon="-1.844121000">
  <ele>217.000000</ele>
  <time>2015-02-24T10:16:55Z</time>
  <name>WPT 434</name>
</trkpt>
<trkpt lat="53.836386000" lon="-1.844066000">
  <ele>217.000000</ele>
  <time>2015-02-24T10:16:58Z</time>
  <name>WPT 435</name>
</trkpt>
<trkpt lat="53.836343000" lon="-1.844040000">
  <ele>217.000000</ele>
  <time>2015-02-24T10:17:00Z</time>
  <name>WPT 436</name>
</trkpt>
<trkpt lat="53.836298000" lon="-1.843957000">
  <ele>218.000000</ele>
  <time>2015-02-24T10:17:04Z</time>
  <name>WPT 437</name>
</trkpt>
<trkpt lat="53.836243000" lon="-1.843988000">
  <ele>218.000000</ele>
  <time>2015-02-24T10:17:06Z</time>
  <name>WPT 438</name>
</trkpt>
<trkpt lat="53.836190000" lon="-1.843924000">
  <ele>217.000000</ele>
  <time>2015-02-24T10:17:10Z</time>
  <name>WPT 439</name>
</trkpt>
<trkpt lat="53.836142000" lon="-1.843862000">
  <ele>217.000000</ele>
  <time>2015-02-24T10:17:13Z</time>
  <name>WPT 440</name>
</trkpt>
<trkpt lat="53.836086000" lon="-1.843817000">
  <ele>217.000000</ele>
  <time>2015-02-24T10:17:17Z</time>
  <name>WPT 441</name>
</trkpt>
<trkpt lat="53.836058000" lon="-1.843739000">
  <ele>216.000000</ele>
  <time>2015-02-24T10:17:22Z</time>
  <name>WPT 442</name>
</trkpt>
<trkpt lat="53.836012000" lon="-1.843701000">
  <ele>216.000000</ele>
  <time>2015-02-24T10:17:25Z</time>
  <name>WPT 443</name>
</trkpt>
<trkpt lat="53.835964000" lon="-1.843743000">
  <ele>216.000000</ele>
  <time>2015-02-24T10:17:28Z</time>
  <name>WPT 444</name>
</trkpt>
<trkpt lat="53.835917000" lon="-1.843708000">
  <ele>216.000000</ele>
  <time>2015-02-24T10:17:33Z</time>
  <name>WPT 445</name>
</trkpt>
<trkpt lat="53.835867000" lon="-1.843694000">
  <ele>216.000000</ele>
  <time>2015-02-24T10:17:36Z</time>
  <name>WPT 446</name>
</trkpt>
<trkpt lat="53.835814000" lon="-1.843678000">
  <ele>216.000000</ele>
  <time>2015-02-24T10:17:38Z</time>
  <name>WPT 447</name>
</trkpt>
<trkpt lat="53.835770000" lon="-1.843624000">
  <ele>217.000000</ele>
  <time>2015-02-24T10:17:41Z</time>
  <name>WPT 448</name>
</trkpt>
<trkpt lat="53.835749000" lon="-1.843550000">
  <ele>217.000000</ele>
  <time>2015-02-24T10:17:45Z</time>
  <name>WPT 449</name>
</trkpt>
<trkpt lat="53.835712000" lon="-1.843506000">
  <ele>217.000000</ele>
  <time>2015-02-24T10:17:48Z</time>
  <name>WPT 450</name>
</trkpt>
<trkpt lat="53.835675000" lon="-1.843461000">
  <ele>217.000000</ele>
  <time>2015-02-24T10:17:51Z</time>
  <name>WPT 451</name>
</trkpt>
<trkpt lat="53.835657000" lon="-1.843369000">
  <ele>216.000000</ele>
  <time>2015-02-24T10:17:55Z</time>
  <name>WPT 452</name>
</trkpt>
<trkpt lat="53.835669000" lon="-1.843273000">
  <ele>216.000000</ele>
  <time>2015-02-24T10:18:00Z</time>
  <name>WPT 453</name>
</trkpt>
<trkpt lat="53.835626000" lon="-1.843194000">
  <ele>216.000000</ele>
  <time>2015-02-24T10:18:02Z</time>
  <name>WPT 454</name>
</trkpt>
<trkpt lat="53.835591000" lon="-1.843131000">
  <ele>216.000000</ele>
  <time>2015-02-24T10:18:06Z</time>
  <name>WPT 455</name>
</trkpt>
<trkpt lat="53.835560000" lon="-1.843075000">
  <ele>216.000000</ele>
  <time>2015-02-24T10:18:08Z</time>
  <name>WPT 456</name>
</trkpt>
<trkpt lat="53.835492000" lon="-1.843029000">
  <ele>217.000000</ele>
  <time>2015-02-24T10:18:13Z</time>
  <name>WPT 457</name>
</trkpt>
<trkpt lat="53.835450000" lon="-1.842960000">
  <ele>216.000000</ele>
  <time>2015-02-24T10:18:15Z</time>
  <name>WPT 458</name>
</trkpt>
<trkpt lat="53.835432000" lon="-1.842890000">
  <ele>216.000000</ele>
  <time>2015-02-24T10:18:18Z</time>
  <name>WPT 459</name>
</trkpt>
<trkpt lat="53.835432000" lon="-1.842806000">
  <ele>216.000000</ele>
  <time>2015-02-24T10:18:22Z</time>
  <name>WPT 460</name>
</trkpt>
<trkpt lat="53.835411000" lon="-1.842712000">
  <ele>215.000000</ele>
  <time>2015-02-24T10:18:28Z</time>
  <name>WPT 461</name>
</trkpt>
<trkpt lat="53.835383000" lon="-1.842639000">
  <ele>214.000000</ele>
  <time>2015-02-24T10:18:32Z</time>
  <name>WPT 462</name>
</trkpt>
<trkpt lat="53.835357000" lon="-1.842569000">
  <ele>213.000000</ele>
  <time>2015-02-24T10:18:37Z</time>
  <name>WPT 463</name>
</trkpt>
<trkpt lat="53.835356000" lon="-1.842475000">
  <ele>213.000000</ele>
  <time>2015-02-24T10:18:40Z</time>
  <name>WPT 464</name>
</trkpt>
<trkpt lat="53.835293000" lon="-1.842398000">
  <ele>213.000000</ele>
  <time>2015-02-24T10:18:44Z</time>
  <name>WPT 465</name>
</trkpt>
<trkpt lat="53.835273000" lon="-1.842330000">
  <ele>212.000000</ele>
  <time>2015-02-24T10:18:47Z</time>
  <name>WPT 466</name>
</trkpt>
<trkpt lat="53.835240000" lon="-1.842262000">
  <ele>212.000000</ele>
  <time>2015-02-24T10:18:49Z</time>
  <name>WPT 467</name>
</trkpt>
<trkpt lat="53.835220000" lon="-1.842173000">
  <ele>211.000000</ele>
  <time>2015-02-24T10:18:52Z</time>
  <name>WPT 468</name>
</trkpt>
<trkpt lat="53.835199000" lon="-1.842098000">
  <ele>211.000000</ele>
  <time>2015-02-24T10:18:56Z</time>
  <name>WPT 469</name>
</trkpt>
<trkpt lat="53.835143000" lon="-1.842068000">
  <ele>211.000000</ele>
  <time>2015-02-24T10:18:59Z</time>
  <name>WPT 470</name>
</trkpt>
<trkpt lat="53.835104000" lon="-1.842023000">
  <ele>210.000000</ele>
  <time>2015-02-24T10:19:01Z</time>
  <name>WPT 471</name>
</trkpt>
<trkpt lat="53.835053000" lon="-1.842000000">
  <ele>210.000000</ele>
  <time>2015-02-24T10:19:03Z</time>
  <name>WPT 472</name>
</trkpt>
<trkpt lat="53.835012000" lon="-1.841959000">
  <ele>210.000000</ele>
  <time>2015-02-24T10:19:06Z</time>
  <name>WPT 473</name>
</trkpt>
<trkpt lat="53.834963000" lon="-1.841927000">
  <ele>209.000000</ele>
  <time>2015-02-24T10:19:09Z</time>
  <name>WPT 474</name>
</trkpt>
<trkpt lat="53.834931000" lon="-1.841852000">
  <ele>209.000000</ele>
  <time>2015-02-24T10:19:14Z</time>
  <name>WPT 475</name>
</trkpt>
<trkpt lat="53.834890000" lon="-1.841792000">
  <ele>208.000000</ele>
  <time>2015-02-24T10:19:18Z</time>
  <name>WPT 476</name>
</trkpt>
<trkpt lat="53.834845000" lon="-1.841739000">
  <ele>208.000000</ele>
  <time>2015-02-24T10:19:21Z</time>
  <name>WPT 477</name>
</trkpt>
<trkpt lat="53.834794000" lon="-1.841716000">
  <ele>208.000000</ele>
  <time>2015-02-24T10:19:24Z</time>
  <name>WPT 478</name>
</trkpt>
<trkpt lat="53.834748000" lon="-1.841693000">
  <ele>208.000000</ele>
  <time>2015-02-24T10:19:27Z</time>
  <name>WPT 479</name>
</trkpt>
<trkpt lat="53.834690000" lon="-1.841655000">
  <ele>208.000000</ele>
  <time>2015-02-24T10:19:31Z</time>
  <name>WPT 480</name>
</trkpt>
<trkpt lat="53.834647000" lon="-1.841630000">
  <ele>208.000000</ele>
  <time>2015-02-24T10:19:34Z</time>
  <name>WPT 481</name>
</trkpt>
<trkpt lat="53.834598000" lon="-1.841602000">
  <ele>208.000000</ele>
  <time>2015-02-24T10:19:38Z</time>
  <name>WPT 482</name>
</trkpt>
<trkpt lat="53.834543000" lon="-1.841591000">
  <ele>207.000000</ele>
  <time>2015-02-24T10:19:45Z</time>
  <name>WPT 483</name>
</trkpt>
<trkpt lat="53.834494000" lon="-1.841561000">
  <ele>207.000000</ele>
  <time>2015-02-24T10:19:47Z</time>
  <name>WPT 484</name>
</trkpt>
<trkpt lat="53.834449000" lon="-1.841539000">
  <ele>207.000000</ele>
  <time>2015-02-24T10:19:49Z</time>
  <name>WPT 485</name>
</trkpt>
<trkpt lat="53.834389000" lon="-1.841529000">
  <ele>207.000000</ele>
  <time>2015-02-24T10:19:52Z</time>
  <name>WPT 486</name>
</trkpt>
<trkpt lat="53.834332000" lon="-1.841538000">
  <ele>208.000000</ele>
  <time>2015-02-24T10:19:55Z</time>
  <name>WPT 487</name>
</trkpt>
<trkpt lat="53.834283000" lon="-1.841543000">
  <ele>208.000000</ele>
  <time>2015-02-24T10:20:00Z</time>
  <name>WPT 488</name>
</trkpt>
<trkpt lat="53.834234000" lon="-1.841549000">
  <ele>207.000000</ele>
  <time>2015-02-24T10:20:03Z</time>
  <name>WPT 489</name>
</trkpt>
<trkpt lat="53.834178000" lon="-1.841553000">
  <ele>207.000000</ele>
  <time>2015-02-24T10:20:06Z</time>
  <name>WPT 490</name>
</trkpt>
<trkpt lat="53.834136000" lon="-1.841519000">
  <ele>207.000000</ele>
  <time>2015-02-24T10:20:09Z</time>
  <name>WPT 491</name>
</trkpt>
<trkpt lat="53.834086000" lon="-1.841487000">
  <ele>207.000000</ele>
  <time>2015-02-24T10:20:13Z</time>
  <name>WPT 492</name>
</trkpt>
<trkpt lat="53.834040000" lon="-1.841475000">
  <ele>208.000000</ele>
  <time>2015-02-24T10:20:17Z</time>
  <name>WPT 493</name>
</trkpt>
<trkpt lat="53.834008000" lon="-1.841410000">
  <ele>208.000000</ele>
  <time>2015-02-24T10:20:20Z</time>
  <name>WPT 494</name>
</trkpt>
<trkpt lat="53.833968000" lon="-1.841355000">
  <ele>207.000000</ele>
  <time>2015-02-24T10:20:26Z</time>
  <name>WPT 495</name>
</trkpt>
<trkpt lat="53.833921000" lon="-1.841296000">
  <ele>207.000000</ele>
  <time>2015-02-24T10:20:30Z</time>
  <name>WPT 496</name>
</trkpt>
<trkpt lat="53.833883000" lon="-1.841224000">
  <ele>207.000000</ele>
  <time>2015-02-24T10:20:34Z</time>
  <name>WPT 497</name>
</trkpt>
<trkpt lat="53.833853000" lon="-1.841167000">
  <ele>207.000000</ele>
  <time>2015-02-24T10:20:37Z</time>
  <name>WPT 498</name>
</trkpt>
<trkpt lat="53.833836000" lon="-1.841081000">
  <ele>208.000000</ele>
  <time>2015-02-24T10:20:45Z</time>
  <name>WPT 499</name>
</trkpt>
<trkpt lat="53.833798000" lon="-1.840980000">
  <ele>208.000000</ele>
  <time>2015-02-24T10:20:47Z</time>
  <name>WPT 500</name>
</trkpt>
<trkpt lat="53.833771000" lon="-1.840893000">
  <ele>208.000000</ele>
  <time>2015-02-24T10:20:50Z</time>
  <name>WPT 501</name>
</trkpt>
<trkpt lat="53.833727000" lon="-1.840861000">
  <ele>208.000000</ele>
  <time>2015-02-24T10:20:56Z</time>
  <name>WPT 502</name>
</trkpt>
<trkpt lat="53.833702000" lon="-1.840797000">
  <ele>208.000000</ele>
  <time>2015-02-24T10:20:59Z</time>
  <name>WPT 503</name>
</trkpt>
<trkpt lat="53.833679000" lon="-1.840721000">
  <ele>208.000000</ele>
  <time>2015-02-24T10:21:01Z</time>
  <name>WPT 504</name>
</trkpt>
<trkpt lat="53.833646000" lon="-1.840668000">
  <ele>208.000000</ele>
  <time>2015-02-24T10:21:03Z</time>
  <name>WPT 505</name>
</trkpt>
<trkpt lat="53.833598000" lon="-1.840631000">
  <ele>208.000000</ele>
  <time>2015-02-24T10:21:05Z</time>
  <name>WPT 506</name>
</trkpt>
<trkpt lat="53.833552000" lon="-1.840578000">
  <ele>207.000000</ele>
  <time>2015-02-24T10:21:08Z</time>
  <name>WPT 507</name>
</trkpt>
<trkpt lat="53.833529000" lon="-1.840513000">
  <ele>207.000000</ele>
  <time>2015-02-24T10:21:13Z</time>
  <name>WPT 508</name>
</trkpt>
<trkpt lat="53.833480000" lon="-1.840445000">
  <ele>207.000000</ele>
  <time>2015-02-24T10:21:17Z</time>
  <name>WPT 509</name>
</trkpt>
<trkpt lat="53.833454000" lon="-1.840381000">
  <ele>207.000000</ele>
  <time>2015-02-24T10:21:19Z</time>
  <name>WPT 510</name>
</trkpt>
<trkpt lat="53.833420000" lon="-1.840296000">
  <ele>207.000000</ele>
  <time>2015-02-24T10:21:22Z</time>
  <name>WPT 511</name>
</trkpt>
<trkpt lat="53.833403000" lon="-1.840224000">
  <ele>207.000000</ele>
  <time>2015-02-24T10:21:25Z</time>
  <name>WPT 512</name>
</trkpt>
<trkpt lat="53.833363000" lon="-1.840119000">
  <ele>206.000000</ele>
  <time>2015-02-24T10:21:30Z</time>
  <name>WPT 513</name>
</trkpt>
<trkpt lat="53.833340000" lon="-1.840028000">
  <ele>205.000000</ele>
  <time>2015-02-24T10:21:33Z</time>
  <name>WPT 514</name>
</trkpt>
<trkpt lat="53.833318000" lon="-1.839948000">
  <ele>205.000000</ele>
  <time>2015-02-24T10:21:37Z</time>
  <name>WPT 515</name>
</trkpt>
<trkpt lat="53.833285000" lon="-1.839862000">
  <ele>204.000000</ele>
  <time>2015-02-24T10:21:42Z</time>
  <name>WPT 516</name>
</trkpt>
<trkpt lat="53.833247000" lon="-1.839781000">
  <ele>204.000000</ele>
  <time>2015-02-24T10:21:45Z</time>
  <name>WPT 517</name>
</trkpt>
<trkpt lat="53.833206000" lon="-1.839696000">
  <ele>204.000000</ele>
  <time>2015-02-24T10:21:48Z</time>
  <name>WPT 518</name>
</trkpt>
<trkpt lat="53.833180000" lon="-1.839615000">
  <ele>204.000000</ele>
  <time>2015-02-24T10:21:51Z</time>
  <name>WPT 519</name>
</trkpt>
<trkpt lat="53.833156000" lon="-1.839523000">
  <ele>204.000000</ele>
  <time>2015-02-24T10:21:55Z</time>
  <name>WPT 520</name>
</trkpt>
<trkpt lat="53.833123000" lon="-1.839460000">
  <ele>204.000000</ele>
  <time>2015-02-24T10:21:58Z</time>
  <name>WPT 521</name>
</trkpt>
<trkpt lat="53.833086000" lon="-1.839386000">
  <ele>204.000000</ele>
  <time>2015-02-24T10:22:03Z</time>
  <name>WPT 522</name>
</trkpt>
<trkpt lat="53.833037000" lon="-1.839364000">
  <ele>204.000000</ele>
  <time>2015-02-24T10:22:06Z</time>
  <name>WPT 523</name>
</trkpt>
<trkpt lat="53.833002000" lon="-1.839255000">
  <ele>204.000000</ele>
  <time>2015-02-24T10:22:09Z</time>
  <name>WPT 524</name>
</trkpt>
<trkpt lat="53.832970000" lon="-1.839199000">
  <ele>204.000000</ele>
  <time>2015-02-24T10:22:11Z</time>
  <name>WPT 525</name>
</trkpt>
<trkpt lat="53.832935000" lon="-1.839129000">
  <ele>204.000000</ele>
  <time>2015-02-24T10:22:14Z</time>
  <name>WPT 526</name>
</trkpt>
<trkpt lat="53.832925000" lon="-1.839033000">
  <ele>204.000000</ele>
  <time>2015-02-24T10:22:18Z</time>
  <name>WPT 527</name>
</trkpt>
<trkpt lat="53.832901000" lon="-1.838925000">
  <ele>204.000000</ele>
  <time>2015-02-24T10:22:24Z</time>
  <name>WPT 528</name>
</trkpt>
<trkpt lat="53.832899000" lon="-1.838821000">
  <ele>203.000000</ele>
  <time>2015-02-24T10:22:28Z</time>
  <name>WPT 529</name>
</trkpt>
<trkpt lat="53.832858000" lon="-1.838742000">
  <ele>203.000000</ele>
  <time>2015-02-24T10:22:31Z</time>
  <name>WPT 530</name>
</trkpt>
<trkpt lat="53.832830000" lon="-1.838660000">
  <ele>202.000000</ele>
  <time>2015-02-24T10:22:34Z</time>
  <name>WPT 531</name>
</trkpt>
<trkpt lat="53.832813000" lon="-1.838570000">
  <ele>202.000000</ele>
  <time>2015-02-24T10:22:38Z</time>
  <name>WPT 532</name>
</trkpt>
<trkpt lat="53.832788000" lon="-1.838483000">
  <ele>202.000000</ele>
  <time>2015-02-24T10:22:44Z</time>
  <name>WPT 533</name>
</trkpt>
<trkpt lat="53.832757000" lon="-1.838420000">
  <ele>202.000000</ele>
  <time>2015-02-24T10:22:46Z</time>
  <name>WPT 534</name>
</trkpt>
<trkpt lat="53.832737000" lon="-1.838333000">
  <ele>201.000000</ele>
  <time>2015-02-24T10:22:49Z</time>
  <name>WPT 535</name>
</trkpt>
<trkpt lat="53.832755000" lon="-1.838259000">
  <ele>201.000000</ele>
  <time>2015-02-24T10:22:52Z</time>
  <name>WPT 536</name>
</trkpt>
<trkpt lat="53.832748000" lon="-1.838166000">
  <ele>200.000000</ele>
  <time>2015-02-24T10:22:56Z</time>
  <name>WPT 537</name>
</trkpt>
<trkpt lat="53.832723000" lon="-1.838099000">
  <ele>200.000000</ele>
  <time>2015-02-24T10:22:59Z</time>
  <name>WPT 538</name>
</trkpt>
<trkpt lat="53.832714000" lon="-1.838007000">
  <ele>200.000000</ele>
  <time>2015-02-24T10:23:03Z</time>
  <name>WPT 539</name>
</trkpt>
<trkpt lat="53.832700000" lon="-1.837904000">
  <ele>200.000000</ele>
  <time>2015-02-24T10:23:06Z</time>
  <name>WPT 540</name>
</trkpt>
<trkpt lat="53.832691000" lon="-1.837807000">
  <ele>199.000000</ele>
  <time>2015-02-24T10:23:09Z</time>
  <name>WPT 541</name>
</trkpt>
<trkpt lat="53.832663000" lon="-1.837746000">
  <ele>199.000000</ele>
  <time>2015-02-24T10:23:13Z</time>
  <name>WPT 542</name>
</trkpt>
<trkpt lat="53.832627000" lon="-1.837666000">
  <ele>198.000000</ele>
  <time>2015-02-24T10:23:16Z</time>
  <name>WPT 543</name>
</trkpt>
<trkpt lat="53.832609000" lon="-1.837595000">
  <ele>198.000000</ele>
  <time>2015-02-24T10:23:18Z</time>
  <name>WPT 544</name>
</trkpt>
<trkpt lat="53.832579000" lon="-1.837471000">
  <ele>198.000000</ele>
  <time>2015-02-24T10:23:24Z</time>
  <name>WPT 545</name>
</trkpt>
<trkpt lat="53.832551000" lon="-1.837381000">
  <ele>198.000000</ele>
  <time>2015-02-24T10:23:27Z</time>
  <name>WPT 546</name>
</trkpt>
<trkpt lat="53.832516000" lon="-1.837326000">
  <ele>198.000000</ele>
  <time>2015-02-24T10:23:34Z</time>
  <name>WPT 547</name>
</trkpt>
<trkpt lat="53.832476000" lon="-1.837242000">
  <ele>198.000000</ele>
  <time>2015-02-24T10:23:37Z</time>
  <name>WPT 548</name>
</trkpt>
<trkpt lat="53.832497000" lon="-1.837141000">
  <ele>197.000000</ele>
  <time>2015-02-24T10:23:42Z</time>
  <name>WPT 549</name>
</trkpt>
<trkpt lat="53.832519000" lon="-1.837062000">
  <ele>197.000000</ele>
  <time>2015-02-24T10:23:44Z</time>
  <name>WPT 550</name>
</trkpt>
<trkpt lat="53.832495000" lon="-1.836995000">
  <ele>197.000000</ele>
  <time>2015-02-24T10:23:47Z</time>
  <name>WPT 551</name>
</trkpt>
<trkpt lat="53.832475000" lon="-1.836925000">
  <ele>197.000000</ele>
  <time>2015-02-24T10:23:49Z</time>
  <name>WPT 552</name>
</trkpt>
<trkpt lat="53.832437000" lon="-1.836849000">
  <ele>197.000000</ele>
  <time>2015-02-24T10:23:52Z</time>
  <name>WPT 553</name>
</trkpt>
<trkpt lat="53.832396000" lon="-1.836772000">
  <ele>197.000000</ele>
  <time>2015-02-24T10:23:55Z</time>
  <name>WPT 554</name>
</trkpt>
<trkpt lat="53.832371000" lon="-1.836667000">
  <ele>197.000000</ele>
  <time>2015-02-24T10:23:58Z</time>
  <name>WPT 555</name>
</trkpt>
<trkpt lat="53.832359000" lon="-1.836573000">
  <ele>197.000000</ele>
  <time>2015-02-24T10:24:02Z</time>
  <name>WPT 556</name>
</trkpt>
<trkpt lat="53.832344000" lon="-1.836468000">
  <ele>196.000000</ele>
  <time>2015-02-24T10:24:06Z</time>
  <name>WPT 557</name>
</trkpt>
<trkpt lat="53.832322000" lon="-1.836396000">
  <ele>196.000000</ele>
  <time>2015-02-24T10:24:10Z</time>
  <name>WPT 558</name>
</trkpt>
<trkpt lat="53.832305000" lon="-1.836314000">
  <ele>196.000000</ele>
  <time>2015-02-24T10:24:13Z</time>
  <name>WPT 559</name>
</trkpt>
<trkpt lat="53.832292000" lon="-1.836197000">
  <ele>195.000000</ele>
  <time>2015-02-24T10:24:16Z</time>
  <name>WPT 560</name>
</trkpt>
<trkpt lat="53.832260000" lon="-1.836121000">
  <ele>195.000000</ele>
  <time>2015-02-24T10:24:20Z</time>
  <name>WPT 561</name>
</trkpt>
<trkpt lat="53.832264000" lon="-1.836038000">
  <ele>195.000000</ele>
  <time>2015-02-24T10:24:25Z</time>
  <name>WPT 562</name>
</trkpt>
<trkpt lat="53.832260000" lon="-1.835930000">
  <ele>194.000000</ele>
  <time>2015-02-24T10:24:30Z</time>
  <name>WPT 563</name>
</trkpt>
<trkpt lat="53.832269000" lon="-1.835839000">
  <ele>194.000000</ele>
  <time>2015-02-24T10:24:33Z</time>
  <name>WPT 564</name>
</trkpt>
<trkpt lat="53.832270000" lon="-1.835748000">
  <ele>193.000000</ele>
  <time>2015-02-24T10:24:38Z</time>
  <name>WPT 565</name>
</trkpt>
<trkpt lat="53.832284000" lon="-1.835641000">
  <ele>193.000000</ele>
  <time>2015-02-24T10:24:41Z</time>
  <name>WPT 566</name>
</trkpt>
<trkpt lat="53.832305000" lon="-1.835553000">
  <ele>192.000000</ele>
  <time>2015-02-24T10:24:45Z</time>
  <name>WPT 567</name>
</trkpt>
<trkpt lat="53.832325000" lon="-1.835458000">
  <ele>192.000000</ele>
  <time>2015-02-24T10:24:49Z</time>
  <name>WPT 568</name>
</trkpt>
<trkpt lat="53.832334000" lon="-1.835366000">
  <ele>191.000000</ele>
  <time>2015-02-24T10:24:59Z</time>
  <name>WPT 569</name>
</trkpt>
<trkpt lat="53.832347000" lon="-1.835250000">
  <ele>191.000000</ele>
  <time>2015-02-24T10:25:02Z</time>
  <name>WPT 570</name>
</trkpt>
<trkpt lat="53.832345000" lon="-1.835162000">
  <ele>191.000000</ele>
  <time>2015-02-24T10:25:06Z</time>
  <name>WPT 571</name>
</trkpt>
<trkpt lat="53.832370000" lon="-1.835083000">
  <ele>191.000000</ele>
  <time>2015-02-24T10:25:25Z</time>
  <name>WPT 572</name>
</trkpt>
<trkpt lat="53.832358000" lon="-1.834991000">
  <ele>188.000000</ele>
  <time>2015-02-24T10:26:06Z</time>
  <name>WPT 573</name>
</trkpt>
<trkpt lat="53.832353000" lon="-1.834911000">
  <ele>188.000000</ele>
  <time>2015-02-24T10:26:09Z</time>
  <name>WPT 574</name>
</trkpt>
<trkpt lat="53.832339000" lon="-1.834830000">
  <ele>189.000000</ele>
  <time>2015-02-24T10:26:14Z</time>
  <name>WPT 575</name>
</trkpt>
<trkpt lat="53.832297000" lon="-1.834756000">
  <ele>188.000000</ele>
  <time>2015-02-24T10:27:03Z</time>
  <name>WPT 576</name>
</trkpt>
<trkpt lat="53.832342000" lon="-1.834724000">
  <ele>189.000000</ele>
  <time>2015-02-24T10:27:12Z</time>
  <name>WPT 577</name>
</trkpt>
<trkpt lat="53.832314000" lon="-1.834658000">
  <ele>189.000000</ele>
  <time>2015-02-24T10:27:27Z</time>
  <name>WPT 578</name>
</trkpt>
<trkpt lat="53.832277000" lon="-1.834591000">
  <ele>189.000000</ele>
  <time>2015-02-24T10:27:34Z</time>
  <name>WPT 579</name>
</trkpt>
<trkpt lat="53.832248000" lon="-1.834510000">
  <ele>189.000000</ele>
  <time>2015-02-24T10:27:38Z</time>
  <name>WPT 580</name>
</trkpt>
<trkpt lat="53.832225000" lon="-1.834423000">
  <ele>189.000000</ele>
  <time>2015-02-24T10:27:41Z</time>
  <name>WPT 581</name>
</trkpt>
<trkpt lat="53.832217000" lon="-1.834346000">
  <ele>189.000000</ele>
  <time>2015-02-24T10:27:45Z</time>
  <name>WPT 582</name>
</trkpt>
<trkpt lat="53.832200000" lon="-1.834272000">
  <ele>189.000000</ele>
  <time>2015-02-24T10:27:50Z</time>
  <name>WPT 583</name>
</trkpt>
<trkpt lat="53.832189000" lon="-1.834168000">
  <ele>188.000000</ele>
  <time>2015-02-24T10:27:57Z</time>
  <name>WPT 584</name>
</trkpt>
<trkpt lat="53.832199000" lon="-1.834081000">
  <ele>188.000000</ele>
  <time>2015-02-24T10:28:01Z</time>
  <name>WPT 585</name>
</trkpt>
<trkpt lat="53.832216000" lon="-1.833961000">
  <ele>188.000000</ele>
  <time>2015-02-24T10:28:10Z</time>
  <name>WPT 586</name>
</trkpt>
<trkpt lat="53.832203000" lon="-1.833872000">
  <ele>188.000000</ele>
  <time>2015-02-24T10:28:12Z</time>
  <name>WPT 587</name>
</trkpt>
<trkpt lat="53.832180000" lon="-1.833791000">
  <ele>188.000000</ele>
  <time>2015-02-24T10:28:15Z</time>
  <name>WPT 588</name>
</trkpt>
<trkpt lat="53.832163000" lon="-1.833681000">
  <ele>188.000000</ele>
  <time>2015-02-24T10:28:19Z</time>
  <name>WPT 589</name>
</trkpt>
<trkpt lat="53.832205000" lon="-1.833553000">
  <ele>189.000000</ele>
  <time>2015-02-24T10:28:24Z</time>
  <name>WPT 590</name>
</trkpt>
<trkpt lat="53.832240000" lon="-1.833460000">
  <ele>189.000000</ele>
  <time>2015-02-24T10:28:27Z</time>
  <name>WPT 591</name>
</trkpt>
<trkpt lat="53.832248000" lon="-1.833378000">
  <ele>188.000000</ele>
  <time>2015-02-24T10:28:31Z</time>
  <name>WPT 592</name>
</trkpt>
<trkpt lat="53.832277000" lon="-1.833294000">
  <ele>188.000000</ele>
  <time>2015-02-24T10:28:34Z</time>
  <name>WPT 593</name>
</trkpt>
<trkpt lat="53.832324000" lon="-1.833231000">
  <ele>188.000000</ele>
  <time>2015-02-24T10:28:41Z</time>
  <name>WPT 594</name>
</trkpt>
<trkpt lat="53.832364000" lon="-1.833184000">
  <ele>188.000000</ele>
  <time>2015-02-24T10:28:45Z</time>
  <name>WPT 595</name>
</trkpt>
<trkpt lat="53.832386000" lon="-1.833116000">
  <ele>188.000000</ele>
  <time>2015-02-24T10:28:48Z</time>
  <name>WPT 596</name>
</trkpt>
<trkpt lat="53.832415000" lon="-1.833030000">
  <ele>187.000000</ele>
  <time>2015-02-24T10:28:51Z</time>
  <name>WPT 597</name>
</trkpt>
<trkpt lat="53.832453000" lon="-1.832958000">
  <ele>187.000000</ele>
  <time>2015-02-24T10:28:54Z</time>
  <name>WPT 598</name>
</trkpt>
<trkpt lat="53.832471000" lon="-1.832887000">
  <ele>187.000000</ele>
  <time>2015-02-24T10:28:56Z</time>
  <name>WPT 599</name>
</trkpt>
<trkpt lat="53.832497000" lon="-1.832811000">
  <ele>187.000000</ele>
  <time>2015-02-24T10:28:59Z</time>
  <name>WPT 600</name>
</trkpt>
<trkpt lat="53.832522000" lon="-1.832725000">
  <ele>187.000000</ele>
  <time>2015-02-24T10:29:04Z</time>
  <name>WPT 601</name>
</trkpt>
<trkpt lat="53.832549000" lon="-1.832659000">
  <ele>186.000000</ele>
  <time>2015-02-24T10:29:07Z</time>
  <name>WPT 602</name>
</trkpt>
<trkpt lat="53.832595000" lon="-1.832576000">
  <ele>186.000000</ele>
  <time>2015-02-24T10:29:11Z</time>
  <name>WPT 603</name>
</trkpt>
<trkpt lat="53.832618000" lon="-1.832485000">
  <ele>186.000000</ele>
  <time>2015-02-24T10:29:15Z</time>
  <name>WPT 604</name>
</trkpt>
<trkpt lat="53.832660000" lon="-1.832408000">
  <ele>186.000000</ele>
  <time>2015-02-24T10:29:18Z</time>
  <name>WPT 605</name>
</trkpt>
<trkpt lat="53.832672000" lon="-1.832328000">
  <ele>186.000000</ele>
  <time>2015-02-24T10:29:21Z</time>
  <name>WPT 606</name>
</trkpt>
<trkpt lat="53.832712000" lon="-1.832260000">
  <ele>185.000000</ele>
  <time>2015-02-24T10:29:24Z</time>
  <name>WPT 607</name>
</trkpt>
<trkpt lat="53.832732000" lon="-1.832184000">
  <ele>185.000000</ele>
  <time>2015-02-24T10:29:28Z</time>
  <name>WPT 608</name>
</trkpt>
<trkpt lat="53.832756000" lon="-1.832111000">
  <ele>185.000000</ele>
  <time>2015-02-24T10:29:32Z</time>
  <name>WPT 609</name>
</trkpt>
<trkpt lat="53.832785000" lon="-1.832023000">
  <ele>184.000000</ele>
  <time>2015-02-24T10:29:38Z</time>
  <name>WPT 610</name>
</trkpt>
<trkpt lat="53.832816000" lon="-1.831947000">
  <ele>184.000000</ele>
  <time>2015-02-24T10:29:40Z</time>
  <name>WPT 611</name>
</trkpt>
<trkpt lat="53.832832000" lon="-1.831876000">
  <ele>183.000000</ele>
  <time>2015-02-24T10:29:44Z</time>
  <name>WPT 612</name>
</trkpt>
<trkpt lat="53.832845000" lon="-1.831791000">
  <ele>183.000000</ele>
  <time>2015-02-24T10:29:48Z</time>
  <name>WPT 613</name>
</trkpt>
<trkpt lat="53.832865000" lon="-1.831719000">
  <ele>183.000000</ele>
  <time>2015-02-24T10:29:50Z</time>
  <name>WPT 614</name>
</trkpt>
<trkpt lat="53.832887000" lon="-1.831626000">
  <ele>183.000000</ele>
  <time>2015-02-24T10:29:56Z</time>
  <name>WPT 615</name>
</trkpt>
<trkpt lat="53.832916000" lon="-1.831533000">
  <ele>183.000000</ele>
  <time>2015-02-24T10:30:01Z</time>
  <name>WPT 616</name>
</trkpt>
<trkpt lat="53.832953000" lon="-1.831468000">
  <ele>184.000000</ele>
  <time>2015-02-24T10:30:13Z</time>
  <name>WPT 617</name>
</trkpt>
<trkpt lat="53.832991000" lon="-1.831423000">
  <ele>183.000000</ele>
  <time>2015-02-24T10:30:24Z</time>
  <name>WPT 618</name>
</trkpt>
<trkpt lat="53.832946000" lon="-1.831450000">
  <ele>181.000000</ele>
  <time>2015-02-24T10:30:41Z</time>
  <name>WPT 619</name>
</trkpt>
<trkpt lat="53.832990000" lon="-1.831429000">
  <ele>181.000000</ele>
  <time>2015-02-24T10:30:56Z</time>
  <name>WPT 620</name>
</trkpt>
<trkpt lat="53.832997000" lon="-1.831349000">
  <ele>180.000000</ele>
  <time>2015-02-24T10:31:04Z</time>
  <name>WPT 621</name>
</trkpt>
<trkpt lat="53.833015000" lon="-1.831277000">
  <ele>180.000000</ele>
  <time>2015-02-24T10:31:10Z</time>
  <name>WPT 622</name>
</trkpt>
<trkpt lat="53.833062000" lon="-1.831244000">
  <ele>180.000000</ele>
  <time>2015-02-24T10:31:13Z</time>
  <name>WPT 623</name>
</trkpt>
<trkpt lat="53.833076000" lon="-1.831170000">
  <ele>181.000000</ele>
  <time>2015-02-24T10:31:20Z</time>
  <name>WPT 624</name>
</trkpt>
<trkpt lat="53.833125000" lon="-1.831155000">
  <ele>181.000000</ele>
  <time>2015-02-24T10:31:28Z</time>
  <name>WPT 625</name>
</trkpt>
<trkpt lat="53.833158000" lon="-1.831094000">
  <ele>181.000000</ele>
  <time>2015-02-24T10:31:32Z</time>
  <name>WPT 626</name>
</trkpt>
<trkpt lat="53.833197000" lon="-1.831031000">
  <ele>182.000000</ele>
  <time>2015-02-24T10:31:39Z</time>
  <name>WPT 627</name>
</trkpt>
<trkpt lat="53.833243000" lon="-1.831018000">
  <ele>182.000000</ele>
  <time>2015-02-24T10:31:44Z</time>
  <name>WPT 628</name>
</trkpt>
<trkpt lat="53.833268000" lon="-1.830945000">
  <ele>182.000000</ele>
  <time>2015-02-24T10:31:51Z</time>
  <name>WPT 629</name>
</trkpt>
<trkpt lat="53.833308000" lon="-1.830900000">
  <ele>182.000000</ele>
  <time>2015-02-24T10:31:57Z</time>
  <name>WPT 630</name>
</trkpt>
<trkpt lat="53.833359000" lon="-1.830883000">
  <ele>182.000000</ele>
  <time>2015-02-24T10:32:04Z</time>
  <name>WPT 631</name>
</trkpt>
<trkpt lat="53.833402000" lon="-1.830843000">
  <ele>182.000000</ele>
  <time>2015-02-24T10:32:06Z</time>
  <name>WPT 632</name>
</trkpt>
<trkpt lat="53.833453000" lon="-1.830783000">
  <ele>182.000000</ele>
  <time>2015-02-24T10:32:10Z</time>
  <name>WPT 633</name>
</trkpt>
<trkpt lat="53.833477000" lon="-1.830715000">
  <ele>180.000000</ele>
  <time>2015-02-24T10:32:19Z</time>
  <name>WPT 634</name>
</trkpt>
<trkpt lat="53.833504000" lon="-1.830652000">
  <ele>179.000000</ele>
  <time>2015-02-24T10:32:26Z</time>
  <name>WPT 635</name>
</trkpt>
<trkpt lat="53.833517000" lon="-1.830569000">
  <ele>177.000000</ele>
  <time>2015-02-24T10:32:34Z</time>
  <name>WPT 636</name>
</trkpt>
<trkpt lat="53.833549000" lon="-1.830509000">
  <ele>177.000000</ele>
  <time>2015-02-24T10:32:42Z</time>
  <name>WPT 637</name>
</trkpt>
<trkpt lat="53.833583000" lon="-1.830449000">
  <ele>176.000000</ele>
  <time>2015-02-24T10:32:49Z</time>
  <name>WPT 638</name>
</trkpt>
<trkpt lat="53.833627000" lon="-1.830381000">
  <ele>176.000000</ele>
  <time>2015-02-24T10:32:53Z</time>
  <name>WPT 639</name>
</trkpt>
<trkpt lat="53.833629000" lon="-1.830300000">
  <ele>174.000000</ele>
  <time>2015-02-24T10:33:00Z</time>
  <name>WPT 640</name>
</trkpt>
<trkpt lat="53.833619000" lon="-1.830219000">
  <ele>173.000000</ele>
  <time>2015-02-24T10:33:02Z</time>
  <name>WPT 641</name>
</trkpt>
<trkpt lat="53.833616000" lon="-1.830134000">
  <ele>172.000000</ele>
  <time>2015-02-24T10:33:05Z</time>
  <name>WPT 642</name>
</trkpt>
<trkpt lat="53.833622000" lon="-1.830031000">
  <ele>171.000000</ele>
  <time>2015-02-24T10:33:09Z</time>
  <name>WPT 643</name>
</trkpt>
<trkpt lat="53.833621000" lon="-1.829946000">
  <ele>170.000000</ele>
  <time>2015-02-24T10:33:14Z</time>
  <name>WPT 644</name>
</trkpt>
<trkpt lat="53.833655000" lon="-1.829869000">
  <ele>169.000000</ele>
  <time>2015-02-24T10:33:18Z</time>
  <name>WPT 645</name>
</trkpt>
<trkpt lat="53.833704000" lon="-1.829836000">
  <ele>169.000000</ele>
  <time>2015-02-24T10:33:20Z</time>
  <name>WPT 646</name>
</trkpt>
<trkpt lat="53.833754000" lon="-1.829821000">
  <ele>168.000000</ele>
  <time>2015-02-24T10:33:22Z</time>
  <name>WPT 647</name>
</trkpt>
<trkpt lat="53.833804000" lon="-1.829812000">
  <ele>167.000000</ele>
  <time>2015-02-24T10:33:27Z</time>
  <name>WPT 648</name>
</trkpt>
<trkpt lat="53.833856000" lon="-1.829821000">
  <ele>167.000000</ele>
  <time>2015-02-24T10:33:32Z</time>
  <name>WPT 649</name>
</trkpt>
<trkpt lat="53.833908000" lon="-1.829816000">
  <ele>167.000000</ele>
  <time>2015-02-24T10:33:37Z</time>
  <name>WPT 650</name>
</trkpt>
<trkpt lat="53.833956000" lon="-1.829814000">
  <ele>167.000000</ele>
  <time>2015-02-24T10:33:40Z</time>
  <name>WPT 651</name>
</trkpt>
<trkpt lat="53.834008000" lon="-1.829788000">
  <ele>167.000000</ele>
  <time>2015-02-24T10:33:43Z</time>
  <name>WPT 652</name>
</trkpt>
<trkpt lat="53.834057000" lon="-1.829760000">
  <ele>167.000000</ele>
  <time>2015-02-24T10:33:47Z</time>
  <name>WPT 653</name>
</trkpt>
<trkpt lat="53.834110000" lon="-1.829780000">
  <ele>167.000000</ele>
  <time>2015-02-24T10:33:51Z</time>
  <name>WPT 654</name>
</trkpt>
<trkpt lat="53.834179000" lon="-1.829766000">
  <ele>167.000000</ele>
  <time>2015-02-24T10:33:54Z</time>
  <name>WPT 655</name>
</trkpt>
<trkpt lat="53.834230000" lon="-1.829733000">
  <ele>166.000000</ele>
  <time>2015-02-24T10:33:59Z</time>
  <name>WPT 656</name>
</trkpt>
<trkpt lat="53.834274000" lon="-1.829756000">
  <ele>166.000000</ele>
  <time>2015-02-24T10:34:07Z</time>
  <name>WPT 657</name>
</trkpt>
<trkpt lat="53.834325000" lon="-1.829759000">
  <ele>166.000000</ele>
  <time>2015-02-24T10:34:14Z</time>
  <name>WPT 658</name>
</trkpt>
<trkpt lat="53.834369000" lon="-1.829731000">
  <ele>166.000000</ele>
  <time>2015-02-24T10:34:18Z</time>
  <name>WPT 659</name>
</trkpt>
<trkpt lat="53.834419000" lon="-1.829697000">
  <ele>166.000000</ele>
  <time>2015-02-24T10:34:21Z</time>
  <name>WPT 660</name>
</trkpt>
<trkpt lat="53.834466000" lon="-1.829662000">
  <ele>166.000000</ele>
  <time>2015-02-24T10:34:24Z</time>
  <name>WPT 661</name>
</trkpt>
<trkpt lat="53.834513000" lon="-1.829655000">
  <ele>165.000000</ele>
  <time>2015-02-24T10:34:29Z</time>
  <name>WPT 662</name>
</trkpt>
<trkpt lat="53.834559000" lon="-1.829631000">
  <ele>165.000000</ele>
  <time>2015-02-24T10:34:33Z</time>
  <name>WPT 663</name>
</trkpt>
<trkpt lat="53.834611000" lon="-1.829618000">
  <ele>164.000000</ele>
  <time>2015-02-24T10:34:37Z</time>
  <name>WPT 664</name>
</trkpt>
<trkpt lat="53.834663000" lon="-1.829608000">
  <ele>163.000000</ele>
  <time>2015-02-24T10:34:42Z</time>
  <name>WPT 665</name>
</trkpt>
<trkpt lat="53.834720000" lon="-1.829594000">
  <ele>163.000000</ele>
  <time>2015-02-24T10:34:48Z</time>
  <name>WPT 666</name>
</trkpt>
<trkpt lat="53.834778000" lon="-1.829575000">
  <ele>162.000000</ele>
  <time>2015-02-24T10:34:51Z</time>
  <name>WPT 667</name>
</trkpt>
<trkpt lat="53.834825000" lon="-1.829526000">
  <ele>161.000000</ele>
  <time>2015-02-24T10:34:56Z</time>
  <name>WPT 668</name>
</trkpt>
<trkpt lat="53.834870000" lon="-1.829501000">
  <ele>160.000000</ele>
  <time>2015-02-24T10:35:05Z</time>
  <name>WPT 669</name>
</trkpt>
<trkpt lat="53.834920000" lon="-1.829462000">
  <ele>159.000000</ele>
  <time>2015-02-24T10:35:09Z</time>
  <name>WPT 670</name>
</trkpt>
<trkpt lat="53.834959000" lon="-1.829415000">
  <ele>158.000000</ele>
  <time>2015-02-24T10:35:13Z</time>
  <name>WPT 671</name>
</trkpt>
<trkpt lat="53.835024000" lon="-1.829369000">
  <ele>157.000000</ele>
  <time>2015-02-24T10:35:20Z</time>
  <name>WPT 672</name>
</trkpt>
<trkpt lat="53.835077000" lon="-1.829343000">
  <ele>156.000000</ele>
  <time>2015-02-24T10:35:23Z</time>
  <name>WPT 673</name>
</trkpt>
<trkpt lat="53.835128000" lon="-1.829304000">
  <ele>156.000000</ele>
  <time>2015-02-24T10:35:27Z</time>
  <name>WPT 674</name>
</trkpt>
<trkpt lat="53.835172000" lon="-1.829267000">
  <ele>155.000000</ele>
  <time>2015-02-24T10:35:30Z</time>
  <name>WPT 675</name>
</trkpt>
<trkpt lat="53.835215000" lon="-1.829228000">
  <ele>155.000000</ele>
  <time>2015-02-24T10:35:33Z</time>
  <name>WPT 676</name>
</trkpt>
<trkpt lat="53.835261000" lon="-1.829208000">
  <ele>155.000000</ele>
  <time>2015-02-24T10:35:37Z</time>
  <name>WPT 677</name>
</trkpt>
<trkpt lat="53.835313000" lon="-1.829181000">
  <ele>154.000000</ele>
  <time>2015-02-24T10:35:39Z</time>
  <name>WPT 678</name>
</trkpt>
<trkpt lat="53.835360000" lon="-1.829156000">
  <ele>154.000000</ele>
  <time>2015-02-24T10:35:43Z</time>
  <name>WPT 679</name>
</trkpt>
<trkpt lat="53.835410000" lon="-1.829105000">
  <ele>153.000000</ele>
  <time>2015-02-24T10:35:46Z</time>
  <name>WPT 680</name>
</trkpt>
<trkpt lat="53.835454000" lon="-1.829061000">
  <ele>152.000000</ele>
  <time>2015-02-24T10:35:50Z</time>
  <name>WPT 681</name>
</trkpt>
<trkpt lat="53.835507000" lon="-1.829040000">
  <ele>152.000000</ele>
  <time>2015-02-24T10:35:54Z</time>
  <name>WPT 682</name>
</trkpt>
<trkpt lat="53.835555000" lon="-1.829039000">
  <ele>151.000000</ele>
  <time>2015-02-24T10:35:57Z</time>
  <name>WPT 683</name>
</trkpt>
<trkpt lat="53.835607000" lon="-1.829012000">
  <ele>150.000000</ele>
  <time>2015-02-24T10:36:01Z</time>
  <name>WPT 684</name>
</trkpt>
<trkpt lat="53.835650000" lon="-1.828982000">
  <ele>149.000000</ele>
  <time>2015-02-24T10:36:05Z</time>
  <name>WPT 685</name>
</trkpt>
<trkpt lat="53.835708000" lon="-1.828937000">
  <ele>148.000000</ele>
  <time>2015-02-24T10:36:08Z</time>
  <name>WPT 686</name>
</trkpt>
<trkpt lat="53.835753000" lon="-1.828901000">
  <ele>147.000000</ele>
  <time>2015-02-24T10:36:13Z</time>
  <name>WPT 687</name>
</trkpt>
<trkpt lat="53.835780000" lon="-1.828831000">
  <ele>147.000000</ele>
  <time>2015-02-24T10:36:17Z</time>
  <name>WPT 688</name>
</trkpt>
<trkpt lat="53.835829000" lon="-1.828783000">
  <ele>146.000000</ele>
  <time>2015-02-24T10:36:21Z</time>
  <name>WPT 689</name>
</trkpt>
<trkpt lat="53.835877000" lon="-1.828727000">
  <ele>146.000000</ele>
  <time>2015-02-24T10:36:23Z</time>
  <name>WPT 690</name>
</trkpt>
<trkpt lat="53.835933000" lon="-1.828672000">
  <ele>145.000000</ele>
  <time>2015-02-24T10:36:26Z</time>
  <name>WPT 691</name>
</trkpt>
<trkpt lat="53.835985000" lon="-1.828640000">
  <ele>144.000000</ele>
  <time>2015-02-24T10:36:30Z</time>
  <name>WPT 692</name>
</trkpt>
<trkpt lat="53.836031000" lon="-1.828553000">
  <ele>143.000000</ele>
  <time>2015-02-24T10:36:35Z</time>
  <name>WPT 693</name>
</trkpt>
<trkpt lat="53.836075000" lon="-1.828515000">
  <ele>143.000000</ele>
  <time>2015-02-24T10:36:37Z</time>
  <name>WPT 694</name>
</trkpt>
<trkpt lat="53.836127000" lon="-1.828495000">
  <ele>142.000000</ele>
  <time>2015-02-24T10:36:41Z</time>
  <name>WPT 695</name>
</trkpt>
<trkpt lat="53.836184000" lon="-1.828466000">
  <ele>141.000000</ele>
  <time>2015-02-24T10:36:46Z</time>
  <name>WPT 696</name>
</trkpt>
<trkpt lat="53.836235000" lon="-1.828418000">
  <ele>140.000000</ele>
  <time>2015-02-24T10:36:50Z</time>
  <name>WPT 697</name>
</trkpt>
<trkpt lat="53.836280000" lon="-1.828387000">
  <ele>139.000000</ele>
  <time>2015-02-24T10:36:53Z</time>
  <name>WPT 698</name>
</trkpt>
<trkpt lat="53.836327000" lon="-1.828345000">
  <ele>139.000000</ele>
  <time>2015-02-24T10:36:57Z</time>
  <name>WPT 699</name>
</trkpt>
<trkpt lat="53.836378000" lon="-1.828299000">
  <ele>138.000000</ele>
  <time>2015-02-24T10:37:01Z</time>
  <name>WPT 700</name>
</trkpt>
<trkpt lat="53.836425000" lon="-1.828252000">
  <ele>138.000000</ele>
  <time>2015-02-24T10:37:04Z</time>
  <name>WPT 701</name>
</trkpt>
<trkpt lat="53.836473000" lon="-1.828208000">
  <ele>137.000000</ele>
  <time>2015-02-24T10:37:07Z</time>
  <name>WPT 702</name>
</trkpt>
<trkpt lat="53.836513000" lon="-1.828154000">
  <ele>136.000000</ele>
  <time>2015-02-24T10:37:11Z</time>
  <name>WPT 703</name>
</trkpt>
<trkpt lat="53.836559000" lon="-1.828119000">
  <ele>136.000000</ele>
  <time>2015-02-24T10:37:14Z</time>
  <name>WPT 704</name>
</trkpt>
<trkpt lat="53.836604000" lon="-1.828097000">
  <ele>135.000000</ele>
  <time>2015-02-24T10:37:19Z</time>
  <name>WPT 705</name>
</trkpt>
<trkpt lat="53.836650000" lon="-1.828076000">
  <ele>135.000000</ele>
  <time>2015-02-24T10:37:22Z</time>
  <name>WPT 706</name>
</trkpt>
<trkpt lat="53.836701000" lon="-1.828045000">
  <ele>135.000000</ele>
  <time>2015-02-24T10:37:25Z</time>
  <name>WPT 707</name>
</trkpt>
<trkpt lat="53.836755000" lon="-1.828045000">
  <ele>135.000000</ele>
  <time>2015-02-24T10:37:28Z</time>
  <name>WPT 708</name>
</trkpt>
<trkpt lat="53.836808000" lon="-1.828081000">
  <ele>134.000000</ele>
  <time>2015-02-24T10:37:32Z</time>
  <name>WPT 709</name>
</trkpt>
<trkpt lat="53.836845000" lon="-1.828146000">
  <ele>134.000000</ele>
  <time>2015-02-24T10:37:35Z</time>
  <name>WPT 710</name>
</trkpt>
<trkpt lat="53.836860000" lon="-1.828233000">
  <ele>133.000000</ele>
  <time>2015-02-24T10:37:38Z</time>
  <name>WPT 711</name>
</trkpt>
<trkpt lat="53.836879000" lon="-1.828322000">
  <ele>133.000000</ele>
  <time>2015-02-24T10:37:41Z</time>
  <name>WPT 712</name>
</trkpt>
<trkpt lat="53.836903000" lon="-1.828410000">
  <ele>132.000000</ele>
  <time>2015-02-24T10:37:44Z</time>
  <name>WPT 713</name>
</trkpt>
<trkpt lat="53.836933000" lon="-1.828477000">
  <ele>131.000000</ele>
  <time>2015-02-24T10:37:47Z</time>
  <name>WPT 714</name>
</trkpt>
<trkpt lat="53.836948000" lon="-1.828550000">
  <ele>131.000000</ele>
  <time>2015-02-24T10:37:52Z</time>
  <name>WPT 715</name>
</trkpt>
<trkpt lat="53.836962000" lon="-1.828623000">
  <ele>130.000000</ele>
  <time>2015-02-24T10:37:56Z</time>
  <name>WPT 716</name>
</trkpt>
<trkpt lat="53.836982000" lon="-1.828697000">
  <ele>130.000000</ele>
  <time>2015-02-24T10:37:59Z</time>
  <name>WPT 717</name>
</trkpt>
<trkpt lat="53.837010000" lon="-1.828760000">
  <ele>130.000000</ele>
  <time>2015-02-24T10:38:02Z</time>
  <name>WPT 718</name>
</trkpt>
<trkpt lat="53.837043000" lon="-1.828828000">
  <ele>130.000000</ele>
  <time>2015-02-24T10:38:05Z</time>
  <name>WPT 719</name>
</trkpt>
<trkpt lat="53.837076000" lon="-1.828883000">
  <ele>129.000000</ele>
  <time>2015-02-24T10:38:08Z</time>
  <name>WPT 720</name>
</trkpt>
<trkpt lat="53.837102000" lon="-1.828957000">
  <ele>129.000000</ele>
  <time>2015-02-24T10:38:12Z</time>
  <name>WPT 721</name>
</trkpt>
<trkpt lat="53.837114000" lon="-1.829032000">
  <ele>129.000000</ele>
  <time>2015-02-24T10:38:16Z</time>
  <name>WPT 722</name>
</trkpt>
<trkpt lat="53.837137000" lon="-1.829110000">
  <ele>128.000000</ele>
  <time>2015-02-24T10:38:19Z</time>
  <name>WPT 723</name>
</trkpt>
<trkpt lat="53.837168000" lon="-1.829191000">
  <ele>128.000000</ele>
  <time>2015-02-24T10:38:22Z</time>
  <name>WPT 724</name>
</trkpt>
<trkpt lat="53.837191000" lon="-1.829261000">
  <ele>128.000000</ele>
  <time>2015-02-24T10:38:26Z</time>
  <name>WPT 725</name>
</trkpt>
<trkpt lat="53.837216000" lon="-1.829330000">
  <ele>129.000000</ele>
  <time>2015-02-24T10:38:34Z</time>
  <name>WPT 726</name>
</trkpt>
<trkpt lat="53.837261000" lon="-1.829407000">
  <ele>129.000000</ele>
  <time>2015-02-24T10:38:37Z</time>
  <name>WPT 727</name>
</trkpt>
<trkpt lat="53.837281000" lon="-1.829483000">
  <ele>129.000000</ele>
  <time>2015-02-24T10:38:40Z</time>
  <name>WPT 728</name>
</trkpt>
<trkpt lat="53.837305000" lon="-1.829585000">
  <ele>129.000000</ele>
  <time>2015-02-24T10:38:43Z</time>
  <name>WPT 729</name>
</trkpt>
<trkpt lat="53.837328000" lon="-1.829686000">
  <ele>129.000000</ele>
  <time>2015-02-24T10:38:46Z</time>
  <name>WPT 730</name>
</trkpt>
<trkpt lat="53.837368000" lon="-1.829750000">
  <ele>129.000000</ele>
  <time>2015-02-24T10:38:49Z</time>
  <name>WPT 731</name>
</trkpt>
<trkpt lat="53.837396000" lon="-1.829820000">
  <ele>129.000000</ele>
  <time>2015-02-24T10:38:52Z</time>
  <name>WPT 732</name>
</trkpt>
<trkpt lat="53.837412000" lon="-1.829895000">
  <ele>129.000000</ele>
  <time>2015-02-24T10:38:55Z</time>
  <name>WPT 733</name>
</trkpt>
<trkpt lat="53.837448000" lon="-1.829969000">
  <ele>129.000000</ele>
  <time>2015-02-24T10:39:00Z</time>
  <name>WPT 734</name>
</trkpt>
<trkpt lat="53.837474000" lon="-1.830034000">
  <ele>129.000000</ele>
  <time>2015-02-24T10:39:03Z</time>
  <name>WPT 735</name>
</trkpt>
<trkpt lat="53.837507000" lon="-1.830091000">
  <ele>129.000000</ele>
  <time>2015-02-24T10:39:06Z</time>
  <name>WPT 736</name>
</trkpt>
<trkpt lat="53.837554000" lon="-1.830123000">
  <ele>129.000000</ele>
  <time>2015-02-24T10:39:09Z</time>
  <name>WPT 737</name>
</trkpt>
<trkpt lat="53.837597000" lon="-1.830158000">
  <ele>129.000000</ele>
  <time>2015-02-24T10:39:13Z</time>
  <name>WPT 738</name>
</trkpt>
<trkpt lat="53.837633000" lon="-1.830215000">
  <ele>128.000000</ele>
  <time>2015-02-24T10:39:16Z</time>
  <name>WPT 739</name>
</trkpt>
<trkpt lat="53.837671000" lon="-1.830273000">
  <ele>128.000000</ele>
  <time>2015-02-24T10:39:20Z</time>
  <name>WPT 740</name>
</trkpt>
<trkpt lat="53.837723000" lon="-1.830316000">
  <ele>128.000000</ele>
  <time>2015-02-24T10:39:24Z</time>
  <name>WPT 741</name>
</trkpt>
<trkpt lat="53.837763000" lon="-1.830354000">
  <ele>128.000000</ele>
  <time>2015-02-24T10:39:27Z</time>
  <name>WPT 742</name>
</trkpt>
<trkpt lat="53.837804000" lon="-1.830402000">
  <ele>128.000000</ele>
  <time>2015-02-24T10:39:30Z</time>
  <name>WPT 743</name>
</trkpt>
<trkpt lat="53.837841000" lon="-1.830459000">
  <ele>128.000000</ele>
  <time>2015-02-24T10:39:34Z</time>
  <name>WPT 744</name>
</trkpt>
<trkpt lat="53.837897000" lon="-1.830514000">
  <ele>128.000000</ele>
  <time>2015-02-24T10:39:39Z</time>
  <name>WPT 745</name>
</trkpt>
<trkpt lat="53.837949000" lon="-1.830526000">
  <ele>128.000000</ele>
  <time>2015-02-24T10:39:43Z</time>
  <name>WPT 746</name>
</trkpt>
<trkpt lat="53.837939000" lon="-1.830448000">
  <ele>127.000000</ele>
  <time>2015-02-24T10:40:06Z</time>
  <name>WPT 747</name>
</trkpt>
<trkpt lat="53.837904000" lon="-1.830373000">
  <ele>125.000000</ele>
  <time>2015-02-24T10:40:19Z</time>
  <name>WPT 748</name>
</trkpt>
<trkpt lat="53.837893000" lon="-1.830274000">
  <ele>125.000000</ele>
  <time>2015-02-24T10:40:23Z</time>
  <name>WPT 749</name>
</trkpt>
<trkpt lat="53.837889000" lon="-1.830183000">
  <ele>125.000000</ele>
  <time>2015-02-24T10:40:28Z</time>
  <name>WPT 750</name>
</trkpt>
<trkpt lat="53.837901000" lon="-1.830107000">
  <ele>125.000000</ele>
  <time>2015-02-24T10:40:30Z</time>
  <name>WPT 751</name>
</trkpt>
<trkpt lat="53.837863000" lon="-1.829996000">
  <ele>125.000000</ele>
  <time>2015-02-24T10:40:34Z</time>
  <name>WPT 752</name>
</trkpt>
<trkpt lat="53.837819000" lon="-1.829934000">
  <ele>125.000000</ele>
  <time>2015-02-24T10:40:42Z</time>
  <name>WPT 753</name>
</trkpt>
<trkpt lat="53.837803000" lon="-1.829854000">
  <ele>125.000000</ele>
  <time>2015-02-24T10:40:46Z</time>
  <name>WPT 754</name>
</trkpt>
<trkpt lat="53.837770000" lon="-1.829793000">
  <ele>125.000000</ele>
  <time>2015-02-24T10:40:49Z</time>
  <name>WPT 755</name>
</trkpt>
<trkpt lat="53.837772000" lon="-1.829710000">
  <ele>125.000000</ele>
  <time>2015-02-24T10:40:52Z</time>
  <name>WPT 756</name>
</trkpt>
<trkpt lat="53.837763000" lon="-1.829622000">
  <ele>125.000000</ele>
  <time>2015-02-24T10:40:55Z</time>
  <name>WPT 757</name>
</trkpt>
<trkpt lat="53.837736000" lon="-1.829534000">
  <ele>124.000000</ele>
  <time>2015-02-24T10:41:02Z</time>
  <name>WPT 758</name>
</trkpt>
<trkpt lat="53.837772000" lon="-1.829460000">
  <ele>124.000000</ele>
  <time>2015-02-24T10:41:08Z</time>
  <name>WPT 759</name>
</trkpt>
<trkpt lat="53.837752000" lon="-1.829346000">
  <ele>124.000000</ele>
  <time>2015-02-24T10:41:19Z</time>
  <name>WPT 760</name>
</trkpt>
<trkpt lat="53.837752000" lon="-1.829240000">
  <ele>125.000000</ele>
  <time>2015-02-24T10:41:27Z</time>
  <name>WPT 761</name>
</trkpt>
<trkpt lat="53.837713000" lon="-1.829155000">
  <ele>125.000000</ele>
  <time>2015-02-24T10:41:29Z</time>
  <name>WPT 762</name>
</trkpt>
<trkpt lat="53.837723000" lon="-1.829017000">
  <ele>126.000000</ele>
  <time>2015-02-24T10:41:32Z</time>
  <name>WPT 763</name>
</trkpt>
<trkpt lat="53.837707000" lon="-1.828889000">
  <ele>126.000000</ele>
  <time>2015-02-24T10:41:34Z</time>
  <name>WPT 764</name>
</trkpt>
<trkpt lat="53.837731000" lon="-1.828803000">
  <ele>126.000000</ele>
  <time>2015-02-24T10:41:42Z</time>
  <name>WPT 765</name>
</trkpt>
<trkpt lat="53.837719000" lon="-1.828727000">
  <ele>127.000000</ele>
  <time>2015-02-24T10:41:47Z</time>
  <name>WPT 766</name>
</trkpt>
<trkpt lat="53.837724000" lon="-1.828647000">
  <ele>127.000000</ele>
  <time>2015-02-24T10:41:51Z</time>
  <name>WPT 767</name>
</trkpt>
<trkpt lat="53.837726000" lon="-1.828553000">
  <ele>127.000000</ele>
  <time>2015-02-24T10:41:55Z</time>
  <name>WPT 768</name>
</trkpt>
<trkpt lat="53.837679000" lon="-1.828512000">
  <ele>128.000000</ele>
  <time>2015-02-24T10:41:57Z</time>
  <name>WPT 769</name>
</trkpt>
<trkpt lat="53.837679000" lon="-1.828354000">
  <ele>127.000000</ele>
  <time>2015-02-24T10:42:01Z</time>
  <name>WPT 770</name>
</trkpt>
<trkpt lat="53.837602000" lon="-1.828330000">
  <ele>127.000000</ele>
  <time>2015-02-24T10:42:05Z</time>
  <name>WPT 771</name>
</trkpt>
<trkpt lat="53.837567000" lon="-1.828261000">
  <ele>126.000000</ele>
  <time>2015-02-24T10:42:09Z</time>
  <name>WPT 772</name>
</trkpt>
<trkpt lat="53.837525000" lon="-1.828220000">
  <ele>124.000000</ele>
  <time>2015-02-24T10:42:20Z</time>
  <name>WPT 773</name>
</trkpt>
<trkpt lat="53.837482000" lon="-1.828128000">
  <ele>124.000000</ele>
  <time>2015-02-24T10:42:22Z</time>
  <name>WPT 774</name>
</trkpt>
<trkpt lat="53.837438000" lon="-1.828040000">
  <ele>124.000000</ele>
  <time>2015-02-24T10:42:25Z</time>
  <name>WPT 775</name>
</trkpt>
<trkpt lat="53.837442000" lon="-1.827961000">
  <ele>124.000000</ele>
  <time>2015-02-24T10:42:30Z</time>
  <name>WPT 776</name>
</trkpt>
<trkpt lat="53.837443000" lon="-1.827805000">
  <ele>124.000000</ele>
  <time>2015-02-24T10:42:32Z</time>
  <name>WPT 777</name>
</trkpt>
<trkpt lat="53.837446000" lon="-1.827696000">
  <ele>124.000000</ele>
  <time>2015-02-24T10:42:34Z</time>
  <name>WPT 778</name>
</trkpt>
<trkpt lat="53.837427000" lon="-1.827626000">
  <ele>124.000000</ele>
  <time>2015-02-24T10:42:37Z</time>
  <name>WPT 779</name>
</trkpt>
<trkpt lat="53.837376000" lon="-1.827556000">
  <ele>123.000000</ele>
  <time>2015-02-24T10:42:41Z</time>
  <name>WPT 780</name>
</trkpt>
<trkpt lat="53.837352000" lon="-1.827479000">
  <ele>122.000000</ele>
  <time>2015-02-24T10:42:44Z</time>
  <name>WPT 781</name>
</trkpt>
<trkpt lat="53.837331000" lon="-1.827406000">
  <ele>122.000000</ele>
  <time>2015-02-24T10:42:48Z</time>
  <name>WPT 782</name>
</trkpt>
<trkpt lat="53.837313000" lon="-1.827322000">
  <ele>122.000000</ele>
  <time>2015-02-24T10:42:57Z</time>
  <name>WPT 783</name>
</trkpt>
<trkpt lat="53.837308000" lon="-1.827238000">
  <ele>123.000000</ele>
  <time>2015-02-24T10:43:05Z</time>
  <name>WPT 784</name>
</trkpt>
<trkpt lat="53.837262000" lon="-1.827220000">
  <ele>123.000000</ele>
  <time>2015-02-24T10:43:10Z</time>
  <name>WPT 785</name>
</trkpt>
<trkpt lat="53.837235000" lon="-1.827104000">
  <ele>123.000000</ele>
  <time>2015-02-24T10:43:19Z</time>
  <name>WPT 786</name>
</trkpt>
<trkpt lat="53.837224000" lon="-1.827016000">
  <ele>123.000000</ele>
  <time>2015-02-24T10:43:24Z</time>
  <name>WPT 787</name>
</trkpt>
<trkpt lat="53.837201000" lon="-1.826935000">
  <ele>124.000000</ele>
  <time>2015-02-24T10:43:31Z</time>
  <name>WPT 788</name>
</trkpt>
<trkpt lat="53.837204000" lon="-1.826827000">
  <ele>124.000000</ele>
  <time>2015-02-24T10:43:34Z</time>
  <name>WPT 789</name>
</trkpt>
<trkpt lat="53.837194000" lon="-1.826744000">
  <ele>124.000000</ele>
  <time>2015-02-24T10:43:37Z</time>
  <name>WPT 790</name>
</trkpt>
<trkpt lat="53.837177000" lon="-1.826666000">
  <ele>125.000000</ele>
  <time>2015-02-24T10:43:40Z</time>
  <name>WPT 791</name>
</trkpt>
<trkpt lat="53.837172000" lon="-1.826581000">
  <ele>125.000000</ele>
  <time>2015-02-24T10:43:44Z</time>
  <name>WPT 792</name>
</trkpt>
<trkpt lat="53.837180000" lon="-1.826497000">
  <ele>125.000000</ele>
  <time>2015-02-24T10:43:46Z</time>
  <name>WPT 793</name>
</trkpt>
<trkpt lat="53.837191000" lon="-1.826418000">
  <ele>126.000000</ele>
  <time>2015-02-24T10:43:49Z</time>
  <name>WPT 794</name>
</trkpt>
<trkpt lat="53.837184000" lon="-1.826322000">
  <ele>126.000000</ele>
  <time>2015-02-24T10:43:53Z</time>
  <name>WPT 795</name>
</trkpt>
<trkpt lat="53.837150000" lon="-1.826245000">
  <ele>126.000000</ele>
  <time>2015-02-24T10:43:58Z</time>
  <name>WPT 796</name>
</trkpt>
<trkpt lat="53.837110000" lon="-1.826183000">
  <ele>126.000000</ele>
  <time>2015-02-24T10:44:01Z</time>
  <name>WPT 797</name>
</trkpt>
<trkpt lat="53.837077000" lon="-1.826131000">
  <ele>126.000000</ele>
  <time>2015-02-24T10:44:05Z</time>
  <name>WPT 798</name>
</trkpt>
<trkpt lat="53.837053000" lon="-1.826061000">
  <ele>125.000000</ele>
  <time>2015-02-24T10:44:10Z</time>
  <name>WPT 799</name>
</trkpt>
<trkpt lat="53.837029000" lon="-1.825966000">
  <ele>125.000000</ele>
  <time>2015-02-24T10:44:15Z</time>
  <name>WPT 800</name>
</trkpt>
<trkpt lat="53.837008000" lon="-1.825854000">
  <ele>125.000000</ele>
  <time>2015-02-24T10:44:18Z</time>
  <name>WPT 801</name>
</trkpt>
<trkpt lat="53.837016000" lon="-1.825750000">
  <ele>125.000000</ele>
  <time>2015-02-24T10:44:22Z</time>
  <name>WPT 802</name>
</trkpt>
<trkpt lat="53.837006000" lon="-1.825656000">
  <ele>125.000000</ele>
  <time>2015-02-24T10:44:26Z</time>
  <name>WPT 803</name>
</trkpt>
<trkpt lat="53.836960000" lon="-1.825600000">
  <ele>124.000000</ele>
  <time>2015-02-24T10:44:32Z</time>
  <name>WPT 804</name>
</trkpt>
<trkpt lat="53.836925000" lon="-1.825543000">
  <ele>124.000000</ele>
  <time>2015-02-24T10:44:35Z</time>
  <name>WPT 805</name>
</trkpt>
<trkpt lat="53.836915000" lon="-1.825436000">
  <ele>124.000000</ele>
  <time>2015-02-24T10:44:40Z</time>
  <name>WPT 806</name>
</trkpt>
<trkpt lat="53.836893000" lon="-1.825350000">
  <ele>124.000000</ele>
  <time>2015-02-24T10:44:44Z</time>
  <name>WPT 807</name>
</trkpt>
<trkpt lat="53.836889000" lon="-1.825253000">
  <ele>124.000000</ele>
  <time>2015-02-24T10:44:49Z</time>
  <name>WPT 808</name>
</trkpt>
<trkpt lat="53.836880000" lon="-1.825179000">
  <ele>124.000000</ele>
  <time>2015-02-24T10:44:53Z</time>
  <name>WPT 809</name>
</trkpt>
<trkpt lat="53.836868000" lon="-1.825103000">
  <ele>124.000000</ele>
  <time>2015-02-24T10:44:57Z</time>
  <name>WPT 810</name>
</trkpt>
<trkpt lat="53.836866000" lon="-1.825022000">
  <ele>125.000000</ele>
  <time>2015-02-24T10:45:01Z</time>
  <name>WPT 811</name>
</trkpt>
<trkpt lat="53.836871000" lon="-1.824938000">
  <ele>125.000000</ele>
  <time>2015-02-24T10:45:04Z</time>
  <name>WPT 812</name>
</trkpt>
<trkpt lat="53.836889000" lon="-1.824847000">
  <ele>126.000000</ele>
  <time>2015-02-24T10:45:08Z</time>
  <name>WPT 813</name>
</trkpt>
<trkpt lat="53.836896000" lon="-1.824762000">
  <ele>127.000000</ele>
  <time>2015-02-24T10:45:13Z</time>
  <name>WPT 814</name>
</trkpt>
<trkpt lat="53.836919000" lon="-1.824672000">
  <ele>128.000000</ele>
  <time>2015-02-24T10:45:17Z</time>
  <name>WPT 815</name>
</trkpt>
<trkpt lat="53.836922000" lon="-1.824565000">
  <ele>128.000000</ele>
  <time>2015-02-24T10:45:21Z</time>
  <name>WPT 816</name>
</trkpt>
<trkpt lat="53.836922000" lon="-1.824484000">
  <ele>128.000000</ele>
  <time>2015-02-24T10:45:23Z</time>
  <name>WPT 817</name>
</trkpt>
<trkpt lat="53.836937000" lon="-1.824403000">
  <ele>129.000000</ele>
  <time>2015-02-24T10:45:25Z</time>
  <name>WPT 818</name>
</trkpt>
<trkpt lat="53.836922000" lon="-1.824310000">
  <ele>129.000000</ele>
  <time>2015-02-24T10:45:29Z</time>
  <name>WPT 819</name>
</trkpt>
<trkpt lat="53.836949000" lon="-1.824238000">
  <ele>129.000000</ele>
  <time>2015-02-24T10:45:33Z</time>
  <name>WPT 820</name>
</trkpt>
<trkpt lat="53.836971000" lon="-1.824164000">
  <ele>129.000000</ele>
  <time>2015-02-24T10:45:35Z</time>
  <name>WPT 821</name>
</trkpt>
<trkpt lat="53.836998000" lon="-1.824090000">
  <ele>130.000000</ele>
  <time>2015-02-24T10:45:41Z</time>
  <name>WPT 822</name>
</trkpt>
<trkpt lat="53.837033000" lon="-1.824035000">
  <ele>130.000000</ele>
  <time>2015-02-24T10:45:46Z</time>
  <name>WPT 823</name>
</trkpt>
<trkpt lat="53.837064000" lon="-1.823969000">
  <ele>130.000000</ele>
  <time>2015-02-24T10:45:50Z</time>
  <name>WPT 824</name>
</trkpt>
<trkpt lat="53.837099000" lon="-1.823875000">
  <ele>130.000000</ele>
  <time>2015-02-24T10:45:55Z</time>
  <name>WPT 825</name>
</trkpt>
<trkpt lat="53.837121000" lon="-1.823806000">
  <ele>130.000000</ele>
  <time>2015-02-24T10:45:57Z</time>
  <name>WPT 826</name>
</trkpt>
<trkpt lat="53.837144000" lon="-1.823733000">
  <ele>130.000000</ele>
  <time>2015-02-24T10:46:01Z</time>
  <name>WPT 827</name>
</trkpt>
<trkpt lat="53.837165000" lon="-1.823648000">
  <ele>131.000000</ele>
  <time>2015-02-24T10:46:05Z</time>
  <name>WPT 828</name>
</trkpt>
<trkpt lat="53.837185000" lon="-1.823567000">
  <ele>131.000000</ele>
  <time>2015-02-24T10:46:09Z</time>
  <name>WPT 829</name>
</trkpt>
<trkpt lat="53.837196000" lon="-1.823481000">
  <ele>130.000000</ele>
  <time>2015-02-24T10:46:14Z</time>
  <name>WPT 830</name>
</trkpt>
<trkpt lat="53.837197000" lon="-1.823389000">
  <ele>131.000000</ele>
  <time>2015-02-24T10:46:20Z</time>
  <name>WPT 831</name>
</trkpt>
<trkpt lat="53.837215000" lon="-1.823291000">
  <ele>131.000000</ele>
  <time>2015-02-24T10:46:23Z</time>
  <name>WPT 832</name>
</trkpt>
<trkpt lat="53.837217000" lon="-1.823176000">
  <ele>131.000000</ele>
  <time>2015-02-24T10:46:26Z</time>
  <name>WPT 833</name>
</trkpt>
<trkpt lat="53.837202000" lon="-1.823078000">
  <ele>131.000000</ele>
  <time>2015-02-24T10:46:29Z</time>
  <name>WPT 834</name>
</trkpt>
<trkpt lat="53.837229000" lon="-1.822975000">
  <ele>131.000000</ele>
  <time>2015-02-24T10:46:36Z</time>
  <name>WPT 835</name>
</trkpt>
<trkpt lat="53.837252000" lon="-1.822876000">
  <ele>131.000000</ele>
  <time>2015-02-24T10:46:40Z</time>
  <name>WPT 836</name>
</trkpt>
<trkpt lat="53.837254000" lon="-1.822787000">
  <ele>131.000000</ele>
  <time>2015-02-24T10:46:44Z</time>
  <name>WPT 837</name>
</trkpt>
<trkpt lat="53.837274000" lon="-1.822658000">
  <ele>130.000000</ele>
  <time>2015-02-24T10:46:48Z</time>
  <name>WPT 838</name>
</trkpt>
<trkpt lat="53.837292000" lon="-1.822587000">
  <ele>130.000000</ele>
  <time>2015-02-24T10:46:51Z</time>
  <name>WPT 839</name>
</trkpt>
<trkpt lat="53.837295000" lon="-1.822500000">
  <ele>130.000000</ele>
  <time>2015-02-24T10:46:55Z</time>
  <name>WPT 840</name>
</trkpt>
<trkpt lat="53.837296000" lon="-1.822412000">
  <ele>130.000000</ele>
  <time>2015-02-24T10:47:00Z</time>
  <name>WPT 841</name>
</trkpt>
<trkpt lat="53.837268000" lon="-1.822337000">
  <ele>130.000000</ele>
  <time>2015-02-24T10:47:06Z</time>
  <name>WPT 842</name>
</trkpt>
<trkpt lat="53.837253000" lon="-1.822254000">
  <ele>129.000000</ele>
  <time>2015-02-24T10:47:10Z</time>
  <name>WPT 843</name>
</trkpt>
<trkpt lat="53.837247000" lon="-1.822172000">
  <ele>128.000000</ele>
  <time>2015-02-24T10:47:15Z</time>
  <name>WPT 844</name>
</trkpt>
<trkpt lat="53.837214000" lon="-1.822110000">
  <ele>127.000000</ele>
  <time>2015-02-24T10:47:19Z</time>
  <name>WPT 845</name>
</trkpt>
<trkpt lat="53.837175000" lon="-1.822057000">
  <ele>127.000000</ele>
  <time>2015-02-24T10:47:24Z</time>
  <name>WPT 846</name>
</trkpt>
<trkpt lat="53.837135000" lon="-1.822009000">
  <ele>126.000000</ele>
  <time>2015-02-24T10:47:28Z</time>
  <name>WPT 847</name>
</trkpt>
<trkpt lat="53.837085000" lon="-1.821968000">
  <ele>125.000000</ele>
  <time>2015-02-24T10:47:35Z</time>
  <name>WPT 848</name>
</trkpt>
<trkpt lat="53.837025000" lon="-1.821924000">
  <ele>125.000000</ele>
  <time>2015-02-24T10:47:43Z</time>
  <name>WPT 849</name>
</trkpt>
<trkpt lat="53.836978000" lon="-1.821881000">
  <ele>124.000000</ele>
  <time>2015-02-24T10:47:46Z</time>
  <name>WPT 850</name>
</trkpt>
<trkpt lat="53.836919000" lon="-1.821887000">
  <ele>124.000000</ele>
  <time>2015-02-24T10:47:52Z</time>
  <name>WPT 851</name>
</trkpt>
<trkpt lat="53.836871000" lon="-1.821916000">
  <ele>124.000000</ele>
  <time>2015-02-24T10:47:54Z</time>
  <name>WPT 852</name>
</trkpt>
<trkpt lat="53.836816000" lon="-1.821940000">
  <ele>124.000000</ele>
  <time>2015-02-24T10:47:56Z</time>
  <name>WPT 853</name>
</trkpt>
<trkpt lat="53.836774000" lon="-1.821988000">
  <ele>124.000000</ele>
  <time>2015-02-24T10:47:59Z</time>
  <name>WPT 854</name>
</trkpt>
<trkpt lat="53.836744000" lon="-1.822050000">
  <ele>123.000000</ele>
  <time>2015-02-24T10:48:08Z</time>
  <name>WPT 855</name>
</trkpt>
<trkpt lat="53.836693000" lon="-1.822056000">
  <ele>122.000000</ele>
  <time>2015-02-24T10:48:12Z</time>
  <name>WPT 856</name>
</trkpt>
<trkpt lat="53.836638000" lon="-1.822070000">
  <ele>123.000000</ele>
  <time>2015-02-24T10:48:18Z</time>
  <name>WPT 857</name>
</trkpt>
<trkpt lat="53.836593000" lon="-1.822024000">
  <ele>122.000000</ele>
  <time>2015-02-24T10:48:24Z</time>
  <name>WPT 858</name>
</trkpt>
<trkpt lat="53.836544000" lon="-1.822040000">
  <ele>121.000000</ele>
  <time>2015-02-24T10:48:30Z</time>
  <name>WPT 859</name>
</trkpt>
<trkpt lat="53.836494000" lon="-1.822028000">
  <ele>121.000000</ele>
  <time>2015-02-24T10:48:32Z</time>
  <name>WPT 860</name>
</trkpt>
<trkpt lat="53.836433000" lon="-1.822018000">
  <ele>121.000000</ele>
  <time>2015-02-24T10:48:35Z</time>
  <name>WPT 861</name>
</trkpt>
<trkpt lat="53.836384000" lon="-1.822022000">
  <ele>121.000000</ele>
  <time>2015-02-24T10:48:42Z</time>
  <name>WPT 862</name>
</trkpt>
<trkpt lat="53.836330000" lon="-1.822010000">
  <ele>122.000000</ele>
  <time>2015-02-24T10:48:47Z</time>
  <name>WPT 863</name>
</trkpt>
<trkpt lat="53.836276000" lon="-1.822013000">
  <ele>122.000000</ele>
  <time>2015-02-24T10:48:51Z</time>
  <name>WPT 864</name>
</trkpt>
<trkpt lat="53.836222000" lon="-1.821999000">
  <ele>122.000000</ele>
  <time>2015-02-24T10:48:55Z</time>
  <name>WPT 865</name>
</trkpt>
<trkpt lat="53.836144000" lon="-1.822017000">
  <ele>122.000000</ele>
  <time>2015-02-24T10:49:05Z</time>
  <name>WPT 866</name>
</trkpt>
<trkpt lat="53.836092000" lon="-1.822000000">
  <ele>121.000000</ele>
  <time>2015-02-24T10:49:07Z</time>
  <name>WPT 867</name>
</trkpt>
<trkpt lat="53.836045000" lon="-1.821967000">
  <ele>121.000000</ele>
  <time>2015-02-24T10:49:12Z</time>
  <name>WPT 868</name>
</trkpt>
<trkpt lat="53.835986000" lon="-1.821936000">
  <ele>121.000000</ele>
  <time>2015-02-24T10:49:14Z</time>
  <name>WPT 869</name>
</trkpt>
<trkpt lat="53.835941000" lon="-1.821891000">
  <ele>120.000000</ele>
  <time>2015-02-24T10:49:19Z</time>
  <name>WPT 870</name>
</trkpt>
<trkpt lat="53.835893000" lon="-1.821837000">
  <ele>120.000000</ele>
  <time>2015-02-24T10:49:22Z</time>
  <name>WPT 871</name>
</trkpt>
<trkpt lat="53.835831000" lon="-1.821807000">
  <ele>120.000000</ele>
  <time>2015-02-24T10:49:27Z</time>
  <name>WPT 872</name>
</trkpt>
<trkpt lat="53.835779000" lon="-1.821757000">
  <ele>120.000000</ele>
  <time>2015-02-24T10:49:30Z</time>
  <name>WPT 873</name>
</trkpt>
<trkpt lat="53.835733000" lon="-1.821700000">
  <ele>120.000000</ele>
  <time>2015-02-24T10:49:34Z</time>
  <name>WPT 874</name>
</trkpt>
<trkpt lat="53.835678000" lon="-1.821660000">
  <ele>120.000000</ele>
  <time>2015-02-24T10:49:40Z</time>
  <name>WPT 875</name>
</trkpt>
<trkpt lat="53.835631000" lon="-1.821609000">
  <ele>120.000000</ele>
  <time>2015-02-24T10:49:43Z</time>
  <name>WPT 876</name>
</trkpt>
<trkpt lat="53.835589000" lon="-1.821561000">
  <ele>120.000000</ele>
  <time>2015-02-24T10:49:47Z</time>
  <name>WPT 877</name>
</trkpt>
<trkpt lat="53.835554000" lon="-1.821511000">
  <ele>120.000000</ele>
  <time>2015-02-24T10:49:49Z</time>
  <name>WPT 878</name>
</trkpt>
<trkpt lat="53.835503000" lon="-1.821456000">
  <ele>119.000000</ele>
  <time>2015-02-24T10:49:55Z</time>
  <name>WPT 879</name>
</trkpt>
<trkpt lat="53.835466000" lon="-1.821402000">
  <ele>119.000000</ele>
  <time>2015-02-24T10:50:00Z</time>
  <name>WPT 880</name>
</trkpt>
<trkpt lat="53.835449000" lon="-1.821321000">
  <ele>118.000000</ele>
  <time>2015-02-24T10:50:05Z</time>
  <name>WPT 881</name>
</trkpt>
<trkpt lat="53.835404000" lon="-1.821248000">
  <ele>118.000000</ele>
  <time>2015-02-24T10:50:08Z</time>
  <name>WPT 882</name>
</trkpt>
<trkpt lat="53.835368000" lon="-1.821118000">
  <ele>118.000000</ele>
  <time>2015-02-24T10:50:13Z</time>
  <name>WPT 883</name>
</trkpt>
<trkpt lat="53.835334000" lon="-1.821066000">
  <ele>117.000000</ele>
  <time>2015-02-24T10:50:16Z</time>
  <name>WPT 884</name>
</trkpt>
<trkpt lat="53.835298000" lon="-1.821017000">
  <ele>117.000000</ele>
  <time>2015-02-24T10:50:22Z</time>
  <name>WPT 885</name>
</trkpt>
<trkpt lat="53.835252000" lon="-1.820964000">
  <ele>117.000000</ele>
  <time>2015-02-24T10:50:26Z</time>
  <name>WPT 886</name>
</trkpt>
<trkpt lat="53.835226000" lon="-1.820893000">
  <ele>117.000000</ele>
  <time>2015-02-24T10:50:30Z</time>
  <name>WPT 887</name>
</trkpt>
<trkpt lat="53.835193000" lon="-1.820807000">
  <ele>117.000000</ele>
  <time>2015-02-24T10:50:36Z</time>
  <name>WPT 888</name>
</trkpt>
<trkpt lat="53.835162000" lon="-1.820749000">
  <ele>117.000000</ele>
  <time>2015-02-24T10:50:40Z</time>
  <name>WPT 889</name>
</trkpt>
<trkpt lat="53.835129000" lon="-1.820684000">
  <ele>116.000000</ele>
  <time>2015-02-24T10:50:45Z</time>
  <name>WPT 890</name>
</trkpt>
<trkpt lat="53.835088000" lon="-1.820611000">
  <ele>116.000000</ele>
  <time>2015-02-24T10:50:49Z</time>
  <name>WPT 891</name>
</trkpt>
<trkpt lat="53.835064000" lon="-1.820542000">
  <ele>116.000000</ele>
  <time>2015-02-24T10:50:54Z</time>
  <name>WPT 892</name>
</trkpt>
<trkpt lat="53.835027000" lon="-1.820483000">
  <ele>116.000000</ele>
  <time>2015-02-24T10:51:02Z</time>
  <name>WPT 893</name>
</trkpt>
<trkpt lat="53.834991000" lon="-1.820400000">
  <ele>116.000000</ele>
  <time>2015-02-24T10:51:05Z</time>
  <name>WPT 894</name>
</trkpt>
<trkpt lat="53.834985000" lon="-1.820302000">
  <ele>117.000000</ele>
  <time>2015-02-24T10:51:12Z</time>
  <name>WPT 895</name>
</trkpt>
<trkpt lat="53.834964000" lon="-1.820220000">
  <ele>117.000000</ele>
  <time>2015-02-24T10:51:14Z</time>
  <name>WPT 896</name>
</trkpt>
<trkpt lat="53.834961000" lon="-1.820143000">
  <ele>117.000000</ele>
  <time>2015-02-24T10:51:16Z</time>
  <name>WPT 897</name>
</trkpt>
<trkpt lat="53.834979000" lon="-1.820057000">
  <ele>118.000000</ele>
  <time>2015-02-24T10:51:19Z</time>
  <name>WPT 898</name>
</trkpt>
<trkpt lat="53.834966000" lon="-1.819968000">
  <ele>118.000000</ele>
  <time>2015-02-24T10:51:24Z</time>
  <name>WPT 899</name>
</trkpt>
<trkpt lat="53.834953000" lon="-1.819877000">
  <ele>118.000000</ele>
  <time>2015-02-24T10:51:29Z</time>
  <name>WPT 900</name>
</trkpt>
<trkpt lat="53.834922000" lon="-1.819778000">
  <ele>118.000000</ele>
  <time>2015-02-24T10:51:34Z</time>
  <name>WPT 901</name>
</trkpt>
<trkpt lat="53.834905000" lon="-1.819705000">
  <ele>118.000000</ele>
  <time>2015-02-24T10:51:37Z</time>
  <name>WPT 902</name>
</trkpt>
<trkpt lat="53.834903000" lon="-1.819627000">
  <ele>118.000000</ele>
  <time>2015-02-24T10:51:52Z</time>
  <name>WPT 903</name>
</trkpt>
<trkpt lat="53.834865000" lon="-1.819554000">
  <ele>118.000000</ele>
  <time>2015-02-24T10:51:57Z</time>
  <name>WPT 904</name>
</trkpt>
<trkpt lat="53.834855000" lon="-1.819445000">
  <ele>118.000000</ele>
  <time>2015-02-24T10:52:01Z</time>
  <name>WPT 905</name>
</trkpt>
<trkpt lat="53.834873000" lon="-1.819355000">
  <ele>118.000000</ele>
  <time>2015-02-24T10:52:05Z</time>
  <name>WPT 906</name>
</trkpt>
<trkpt lat="53.834826000" lon="-1.819324000">
  <ele>119.000000</ele>
  <time>2015-02-24T10:52:42Z</time>
  <name>WPT 907</name>
</trkpt>
<trkpt lat="53.834851000" lon="-1.819249000">
  <ele>119.000000</ele>
  <time>2015-02-24T10:52:48Z</time>
  <name>WPT 908</name>
</trkpt>
<trkpt lat="53.834870000" lon="-1.819160000">
  <ele>122.000000</ele>
  <time>2015-02-24T10:52:56Z</time>
  <name>WPT 909</name>
</trkpt>
<trkpt lat="53.834891000" lon="-1.819071000">
  <ele>123.000000</ele>
  <time>2015-02-24T10:53:04Z</time>
  <name>WPT 910</name>
</trkpt>
<trkpt lat="53.834919000" lon="-1.818991000">
  <ele>123.000000</ele>
  <time>2015-02-24T10:53:08Z</time>
  <name>WPT 911</name>
</trkpt>
<trkpt lat="53.834961000" lon="-1.818957000">
  <ele>123.000000</ele>
  <time>2015-02-24T10:53:23Z</time>
  <name>WPT 912</name>
</trkpt>
<trkpt lat="53.835010000" lon="-1.818945000">
  <ele>123.000000</ele>
  <time>2015-02-24T10:53:31Z</time>
  <name>WPT 913</name>
</trkpt>
<trkpt lat="53.835047000" lon="-1.818900000">
  <ele>122.000000</ele>
  <time>2015-02-24T10:53:36Z</time>
  <name>WPT 914</name>
</trkpt>
<trkpt lat="53.835075000" lon="-1.818831000">
  <ele>123.000000</ele>
  <time>2015-02-24T10:53:40Z</time>
  <name>WPT 915</name>
</trkpt>
<trkpt lat="53.835119000" lon="-1.818802000">
  <ele>123.000000</ele>
  <time>2015-02-24T10:53:52Z</time>
  <name>WPT 916</name>
</trkpt>
<trkpt lat="53.835139000" lon="-1.818713000">
  <ele>123.000000</ele>
  <time>2015-02-24T10:53:56Z</time>
  <name>WPT 917</name>
</trkpt>
<trkpt lat="53.835156000" lon="-1.818605000">
  <ele>123.000000</ele>
  <time>2015-02-24T10:53:59Z</time>
  <name>WPT 918</name>
</trkpt>
<trkpt lat="53.835169000" lon="-1.818526000">
  <ele>122.000000</ele>
  <time>2015-02-24T10:54:02Z</time>
  <name>WPT 919</name>
</trkpt>
<trkpt lat="53.835185000" lon="-1.818449000">
  <ele>122.000000</ele>
  <time>2015-02-24T10:54:10Z</time>
  <name>WPT 920</name>
</trkpt>
<trkpt lat="53.835198000" lon="-1.818371000">
  <ele>122.000000</ele>
  <time>2015-02-24T10:54:17Z</time>
  <name>WPT 921</name>
</trkpt>
<trkpt lat="53.835215000" lon="-1.818286000">
  <ele>123.000000</ele>
  <time>2015-02-24T10:54:21Z</time>
  <name>WPT 922</name>
</trkpt>
<trkpt lat="53.835217000" lon="-1.818198000">
  <ele>123.000000</ele>
  <time>2015-02-24T10:54:23Z</time>
  <name>WPT 923</name>
</trkpt>
<trkpt lat="53.835225000" lon="-1.818104000">
  <ele>123.000000</ele>
  <time>2015-02-24T10:54:25Z</time>
  <name>WPT 924</name>
</trkpt>
<trkpt lat="53.835218000" lon="-1.818027000">
  <ele>123.000000</ele>
  <time>2015-02-24T10:54:27Z</time>
  <name>WPT 925</name>
</trkpt>
<trkpt lat="53.835220000" lon="-1.817943000">
  <ele>123.000000</ele>
  <time>2015-02-24T10:54:33Z</time>
  <name>WPT 926</name>
</trkpt>
<trkpt lat="53.835221000" lon="-1.817845000">
  <ele>124.000000</ele>
  <time>2015-02-24T10:54:37Z</time>
  <name>WPT 927</name>
</trkpt>
<trkpt lat="53.835222000" lon="-1.817756000">
  <ele>124.000000</ele>
  <time>2015-02-24T10:54:40Z</time>
  <name>WPT 928</name>
</trkpt>
<trkpt lat="53.835208000" lon="-1.817677000">
  <ele>124.000000</ele>
  <time>2015-02-24T10:54:44Z</time>
  <name>WPT 929</name>
</trkpt>
<trkpt lat="53.835188000" lon="-1.817593000">
  <ele>125.000000</ele>
  <time>2015-02-24T10:54:49Z</time>
  <name>WPT 930</name>
</trkpt>
<trkpt lat="53.835238000" lon="-1.817524000">
  <ele>125.000000</ele>
  <time>2015-02-24T10:54:58Z</time>
  <name>WPT 931</name>
</trkpt>
<trkpt lat="53.835249000" lon="-1.817424000">
  <ele>126.000000</ele>
  <time>2015-02-24T10:55:01Z</time>
  <name>WPT 932</name>
</trkpt>
<trkpt lat="53.835261000" lon="-1.817351000">
  <ele>126.000000</ele>
  <time>2015-02-24T10:55:05Z</time>
  <name>WPT 933</name>
</trkpt>
<trkpt lat="53.835253000" lon="-1.817274000">
  <ele>126.000000</ele>
  <time>2015-02-24T10:55:09Z</time>
  <name>WPT 934</name>
</trkpt>
<trkpt lat="53.835282000" lon="-1.817179000">
  <ele>126.000000</ele>
  <time>2015-02-24T10:55:14Z</time>
  <name>WPT 935</name>
</trkpt>
<trkpt lat="53.835300000" lon="-1.817100000">
  <ele>125.000000</ele>
  <time>2015-02-24T10:55:18Z</time>
  <name>WPT 936</name>
</trkpt>
<trkpt lat="53.835322000" lon="-1.817024000">
  <ele>124.000000</ele>
  <time>2015-02-24T10:55:28Z</time>
  <name>WPT 937</name>
</trkpt>
<trkpt lat="53.835343000" lon="-1.816934000">
  <ele>125.000000</ele>
  <time>2015-02-24T10:55:36Z</time>
  <name>WPT 938</name>
</trkpt>
<trkpt lat="53.835323000" lon="-1.816860000">
  <ele>125.000000</ele>
  <time>2015-02-24T10:55:52Z</time>
  <name>WPT 939</name>
</trkpt>
<trkpt lat="53.835340000" lon="-1.816771000">
  <ele>125.000000</ele>
  <time>2015-02-24T10:56:04Z</time>
  <name>WPT 940</name>
</trkpt>
<trkpt lat="53.835326000" lon="-1.816689000">
  <ele>125.000000</ele>
  <time>2015-02-24T10:56:11Z</time>
  <name>WPT 941</name>
</trkpt>
<trkpt lat="53.835332000" lon="-1.816597000">
  <ele>126.000000</ele>
  <time>2015-02-24T10:56:18Z</time>
  <name>WPT 942</name>
</trkpt>
<trkpt lat="53.835354000" lon="-1.816517000">
  <ele>126.000000</ele>
  <time>2015-02-24T10:56:21Z</time>
  <name>WPT 943</name>
</trkpt>
<trkpt lat="53.835400000" lon="-1.816467000">
  <ele>127.000000</ele>
  <time>2015-02-24T10:56:25Z</time>
  <name>WPT 944</name>
</trkpt>
<trkpt lat="53.835457000" lon="-1.816380000">
  <ele>129.000000</ele>
  <time>2015-02-24T10:56:31Z</time>
  <name>WPT 945</name>
</trkpt>
<trkpt lat="53.835496000" lon="-1.816340000">
  <ele>129.000000</ele>
  <time>2015-02-24T10:56:34Z</time>
  <name>WPT 946</name>
</trkpt>
<trkpt lat="53.835541000" lon="-1.816327000">
  <ele>130.000000</ele>
  <time>2015-02-24T10:56:39Z</time>
  <name>WPT 947</name>
</trkpt>
<trkpt lat="53.835573000" lon="-1.816267000">
  <ele>131.000000</ele>
  <time>2015-02-24T10:56:45Z</time>
  <name>WPT 948</name>
</trkpt>
<trkpt lat="53.835588000" lon="-1.816188000">
  <ele>132.000000</ele>
  <time>2015-02-24T10:56:50Z</time>
  <name>WPT 949</name>
</trkpt>
<trkpt lat="53.835642000" lon="-1.816119000">
  <ele>132.000000</ele>
  <time>2015-02-24T10:56:52Z</time>
  <name>WPT 950</name>
</trkpt>
<trkpt lat="53.835687000" lon="-1.816091000">
  <ele>132.000000</ele>
  <time>2015-02-24T10:56:57Z</time>
  <name>WPT 951</name>
</trkpt>
<trkpt lat="53.835738000" lon="-1.816065000">
  <ele>132.000000</ele>
  <time>2015-02-24T10:57:04Z</time>
  <name>WPT 952</name>
</trkpt>
<trkpt lat="53.835759000" lon="-1.815971000">
  <ele>133.000000</ele>
  <time>2015-02-24T10:57:11Z</time>
  <name>WPT 953</name>
</trkpt>
<trkpt lat="53.835796000" lon="-1.815926000">
  <ele>134.000000</ele>
  <time>2015-02-24T10:57:14Z</time>
  <name>WPT 954</name>
</trkpt>
<trkpt lat="53.835828000" lon="-1.815844000">
  <ele>134.000000</ele>
  <time>2015-02-24T10:57:19Z</time>
  <name>WPT 955</name>
</trkpt>
<trkpt lat="53.835846000" lon="-1.815745000">
  <ele>134.000000</ele>
  <time>2015-02-24T10:57:21Z</time>
  <name>WPT 956</name>
</trkpt>
<trkpt lat="53.835875000" lon="-1.815682000">
  <ele>133.000000</ele>
  <time>2015-02-24T10:57:33Z</time>
  <name>WPT 957</name>
</trkpt>
<trkpt lat="53.835931000" lon="-1.815626000">
  <ele>131.000000</ele>
  <time>2015-02-24T10:57:41Z</time>
  <name>WPT 958</name>
</trkpt>
<trkpt lat="53.835982000" lon="-1.815563000">
  <ele>130.000000</ele>
  <time>2015-02-24T10:57:46Z</time>
  <name>WPT 959</name>
</trkpt>
<trkpt lat="53.836025000" lon="-1.815509000">
  <ele>130.000000</ele>
  <time>2015-02-24T10:57:48Z</time>
  <name>WPT 960</name>
</trkpt>
<trkpt lat="53.836069000" lon="-1.815482000">
  <ele>129.000000</ele>
  <time>2015-02-24T10:57:50Z</time>
  <name>WPT 961</name>
</trkpt>
<trkpt lat="53.836126000" lon="-1.815487000">
  <ele>129.000000</ele>
  <time>2015-02-24T10:57:54Z</time>
  <name>WPT 962</name>
</trkpt>
<trkpt lat="53.836170000" lon="-1.815429000">
  <ele>127.000000</ele>
  <time>2015-02-24T10:58:00Z</time>
  <name>WPT 963</name>
</trkpt>
<trkpt lat="53.836174000" lon="-1.815339000">
  <ele>126.000000</ele>
  <time>2015-02-24T10:58:05Z</time>
  <name>WPT 964</name>
</trkpt>
<trkpt lat="53.836200000" lon="-1.815273000">
  <ele>126.000000</ele>
  <time>2015-02-24T10:58:08Z</time>
  <name>WPT 965</name>
</trkpt>
<trkpt lat="53.836215000" lon="-1.815184000">
  <ele>126.000000</ele>
  <time>2015-02-24T10:58:14Z</time>
  <name>WPT 966</name>
</trkpt>
<trkpt lat="53.836220000" lon="-1.815104000">
  <ele>126.000000</ele>
  <time>2015-02-24T10:58:17Z</time>
  <name>WPT 967</name>
</trkpt>
<trkpt lat="53.836237000" lon="-1.815016000">
  <ele>125.000000</ele>
  <time>2015-02-24T10:58:25Z</time>
  <name>WPT 968</name>
</trkpt>
<trkpt lat="53.836269000" lon="-1.814936000">
  <ele>125.000000</ele>
  <time>2015-02-24T10:58:28Z</time>
  <name>WPT 969</name>
</trkpt>
<trkpt lat="53.836295000" lon="-1.814854000">
  <ele>126.000000</ele>
  <time>2015-02-24T10:58:36Z</time>
  <name>WPT 970</name>
</trkpt>
<trkpt lat="53.836326000" lon="-1.814788000">
  <ele>126.000000</ele>
  <time>2015-02-24T10:58:40Z</time>
  <name>WPT 971</name>
</trkpt>
<trkpt lat="53.836370000" lon="-1.814719000">
  <ele>126.000000</ele>
  <time>2015-02-24T10:58:45Z</time>
  <name>WPT 972</name>
</trkpt>
<trkpt lat="53.836396000" lon="-1.814658000">
  <ele>126.000000</ele>
  <time>2015-02-24T10:58:47Z</time>
  <name>WPT 973</name>
</trkpt>
<trkpt lat="53.836441000" lon="-1.814622000">
  <ele>126.000000</ele>
  <time>2015-02-24T10:58:53Z</time>
  <name>WPT 974</name>
</trkpt>
<trkpt lat="53.836445000" lon="-1.814527000">
  <ele>126.000000</ele>
  <time>2015-02-24T10:58:58Z</time>
  <name>WPT 975</name>
</trkpt>
<trkpt lat="53.836474000" lon="-1.814463000">
  <ele>126.000000</ele>
  <time>2015-02-24T10:59:01Z</time>
  <name>WPT 976</name>
</trkpt>
<trkpt lat="53.836514000" lon="-1.814401000">
  <ele>126.000000</ele>
  <time>2015-02-24T10:59:06Z</time>
  <name>WPT 977</name>
</trkpt>
<trkpt lat="53.836568000" lon="-1.814349000">
  <ele>126.000000</ele>
  <time>2015-02-24T10:59:09Z</time>
  <name>WPT 978</name>
</trkpt>
<trkpt lat="53.836610000" lon="-1.814320000">
  <ele>125.000000</ele>
  <time>2015-02-24T10:59:15Z</time>
  <name>WPT 979</name>
</trkpt>
<trkpt lat="53.836643000" lon="-1.814261000">
  <ele>125.000000</ele>
  <time>2015-02-24T10:59:18Z</time>
  <name>WPT 980</name>
</trkpt>
<trkpt lat="53.836679000" lon="-1.814196000">
  <ele>125.000000</ele>
  <time>2015-02-24T10:59:25Z</time>
  <name>WPT 981</name>
</trkpt>
<trkpt lat="53.836705000" lon="-1.814125000">
  <ele>125.000000</ele>
  <time>2015-02-24T10:59:27Z</time>
  <name>WPT 982</name>
</trkpt>
<trkpt lat="53.836725000" lon="-1.814044000">
  <ele>124.000000</ele>
  <time>2015-02-24T10:59:31Z</time>
  <name>WPT 983</name>
</trkpt>
<trkpt lat="53.836765000" lon="-1.814005000">
  <ele>125.000000</ele>
  <time>2015-02-24T10:59:40Z</time>
  <name>WPT 984</name>
</trkpt>
<trkpt lat="53.836804000" lon="-1.813919000">
  <ele>125.000000</ele>
  <time>2015-02-24T10:59:43Z</time>
  <name>WPT 985</name>
</trkpt>
<trkpt lat="53.836824000" lon="-1.813832000">
  <ele>125.000000</ele>
  <time>2015-02-24T10:59:48Z</time>
  <name>WPT 986</name>
</trkpt>
<trkpt lat="53.836861000" lon="-1.813784000">
  <ele>126.000000</ele>
  <time>2015-02-24T10:59:51Z</time>
  <name>WPT 987</name>
</trkpt>
<trkpt lat="53.836900000" lon="-1.813748000">
  <ele>126.000000</ele>
  <time>2015-02-24T10:59:53Z</time>
  <name>WPT 988</name>
</trkpt>
<trkpt lat="53.836939000" lon="-1.813695000">
  <ele>126.000000</ele>
  <time>2015-02-24T10:59:56Z</time>
  <name>WPT 989</name>
</trkpt>
<trkpt lat="53.836977000" lon="-1.813634000">
  <ele>125.000000</ele>
  <time>2015-02-24T11:00:00Z</time>
  <name>WPT 990</name>
</trkpt>
<trkpt lat="53.837025000" lon="-1.813567000">
  <ele>125.000000</ele>
  <time>2015-02-24T11:00:07Z</time>
  <name>WPT 991</name>
</trkpt>
<trkpt lat="53.837064000" lon="-1.813521000">
  <ele>125.000000</ele>
  <time>2015-02-24T11:00:09Z</time>
  <name>WPT 992</name>
</trkpt>
<trkpt lat="53.837111000" lon="-1.813462000">
  <ele>125.000000</ele>
  <time>2015-02-24T11:00:15Z</time>
  <name>WPT 993</name>
</trkpt>
<trkpt lat="53.837143000" lon="-1.813402000">
  <ele>125.000000</ele>
  <time>2015-02-24T11:00:20Z</time>
  <name>WPT 994</name>
</trkpt>
<trkpt lat="53.837180000" lon="-1.813325000">
  <ele>124.000000</ele>
  <time>2015-02-24T11:00:24Z</time>
  <name>WPT 995</name>
</trkpt>
<trkpt lat="53.837210000" lon="-1.813245000">
  <ele>124.000000</ele>
  <time>2015-02-24T11:00:27Z</time>
  <name>WPT 996</name>
</trkpt>
<trkpt lat="53.837271000" lon="-1.813192000">
  <ele>124.000000</ele>
  <time>2015-02-24T11:00:33Z</time>
  <name>WPT 997</name>
</trkpt>
<trkpt lat="53.837312000" lon="-1.813129000">
  <ele>124.000000</ele>
  <time>2015-02-24T11:00:38Z</time>
  <name>WPT 998</name>
</trkpt>
<trkpt lat="53.837334000" lon="-1.813053000">
  <ele>124.000000</ele>
  <time>2015-02-24T11:00:40Z</time>
  <name>WPT 999</name>
</trkpt>
<trkpt lat="53.837359000" lon="-1.812988000">
  <ele>124.000000</ele>
  <time>2015-02-24T11:00:44Z</time>
  <name>WPT 1000</name>
</trkpt>
<trkpt lat="53.837386000" lon="-1.812912000">
  <ele>124.000000</ele>
  <time>2015-02-24T11:00:49Z</time>
  <name>WPT 1001</name>
</trkpt>
<trkpt lat="53.837407000" lon="-1.812840000">
  <ele>124.000000</ele>
  <time>2015-02-24T11:00:53Z</time>
  <name>WPT 1002</name>
</trkpt>
<trkpt lat="53.837437000" lon="-1.812783000">
  <ele>124.000000</ele>
  <time>2015-02-24T11:00:56Z</time>
  <name>WPT 1003</name>
</trkpt>
<trkpt lat="53.837473000" lon="-1.812738000">
  <ele>125.000000</ele>
  <time>2015-02-24T11:00:59Z</time>
  <name>WPT 1004</name>
</trkpt>
<trkpt lat="53.837506000" lon="-1.812685000">
  <ele>125.000000</ele>
  <time>2015-02-24T11:01:07Z</time>
  <name>WPT 1005</name>
</trkpt>
<trkpt lat="53.837564000" lon="-1.812619000">
  <ele>125.000000</ele>
  <time>2015-02-24T11:01:09Z</time>
  <name>WPT 1006</name>
</trkpt>
<trkpt lat="53.837601000" lon="-1.812566000">
  <ele>125.000000</ele>
  <time>2015-02-24T11:01:13Z</time>
  <name>WPT 1007</name>
</trkpt>
<trkpt lat="53.837646000" lon="-1.812530000">
  <ele>125.000000</ele>
  <time>2015-02-24T11:01:18Z</time>
  <name>WPT 1008</name>
</trkpt>
<trkpt lat="53.837690000" lon="-1.812436000">
  <ele>126.000000</ele>
  <time>2015-02-24T11:01:24Z</time>
  <name>WPT 1009</name>
</trkpt>
<trkpt lat="53.837711000" lon="-1.812358000">
  <ele>126.000000</ele>
  <time>2015-02-24T11:01:27Z</time>
  <name>WPT 1010</name>
</trkpt>
<trkpt lat="53.837766000" lon="-1.812270000">
  <ele>126.000000</ele>
  <time>2015-02-24T11:01:29Z</time>
  <name>WPT 1011</name>
</trkpt>
<trkpt lat="53.837804000" lon="-1.812215000">
  <ele>125.000000</ele>
  <time>2015-02-24T11:01:32Z</time>
  <name>WPT 1012</name>
</trkpt>
<trkpt lat="53.837841000" lon="-1.812170000">
  <ele>125.000000</ele>
  <time>2015-02-24T11:01:37Z</time>
  <name>WPT 1013</name>
</trkpt>
<trkpt lat="53.837866000" lon="-1.812102000">
  <ele>126.000000</ele>
  <time>2015-02-24T11:01:48Z</time>
  <name>WPT 1014</name>
</trkpt>
<trkpt lat="53.837890000" lon="-1.812020000">
  <ele>126.000000</ele>
  <time>2015-02-24T11:01:50Z</time>
  <name>WPT 1015</name>
</trkpt>
<trkpt lat="53.837925000" lon="-1.811901000">
  <ele>126.000000</ele>
  <time>2015-02-24T11:01:54Z</time>
  <name>WPT 1016</name>
</trkpt>
<trkpt lat="53.837956000" lon="-1.811831000">
  <ele>126.000000</ele>
  <time>2015-02-24T11:01:56Z</time>
  <name>WPT 1017</name>
</trkpt>
<trkpt lat="53.838003000" lon="-1.811762000">
  <ele>127.000000</ele>
  <time>2015-02-24T11:02:01Z</time>
  <name>WPT 1018</name>
</trkpt>
<trkpt lat="53.838056000" lon="-1.811730000">
  <ele>128.000000</ele>
  <time>2015-02-24T11:02:05Z</time>
  <name>WPT 1019</name>
</trkpt>
<trkpt lat="53.838108000" lon="-1.811704000">
  <ele>128.000000</ele>
  <time>2015-02-24T11:02:09Z</time>
  <name>WPT 1020</name>
</trkpt>
<trkpt lat="53.838165000" lon="-1.811691000">
  <ele>128.000000</ele>
  <time>2015-02-24T11:02:14Z</time>
  <name>WPT 1021</name>
</trkpt>
<trkpt lat="53.838211000" lon="-1.811653000">
  <ele>127.000000</ele>
  <time>2015-02-24T11:02:24Z</time>
  <name>WPT 1022</name>
</trkpt>
<trkpt lat="53.838252000" lon="-1.811620000">
  <ele>126.000000</ele>
  <time>2015-02-24T11:02:28Z</time>
  <name>WPT 1023</name>
</trkpt>
<trkpt lat="53.838302000" lon="-1.811619000">
  <ele>126.000000</ele>
  <time>2015-02-24T11:02:34Z</time>
  <name>WPT 1024</name>
</trkpt>
<trkpt lat="53.838350000" lon="-1.811611000">
  <ele>127.000000</ele>
  <time>2015-02-24T11:02:38Z</time>
  <name>WPT 1025</name>
</trkpt>
<trkpt lat="53.838408000" lon="-1.811569000">
  <ele>127.000000</ele>
  <time>2015-02-24T11:02:40Z</time>
  <name>WPT 1026</name>
</trkpt>
<trkpt lat="53.838448000" lon="-1.811509000">
  <ele>127.000000</ele>
  <time>2015-02-24T11:02:43Z</time>
  <name>WPT 1027</name>
</trkpt>
<trkpt lat="53.838475000" lon="-1.811446000">
  <ele>128.000000</ele>
  <time>2015-02-24T11:02:52Z</time>
  <name>WPT 1028</name>
</trkpt>
<trkpt lat="53.838513000" lon="-1.811387000">
  <ele>128.000000</ele>
  <time>2015-02-24T11:02:55Z</time>
  <name>WPT 1029</name>
</trkpt>
<trkpt lat="53.838585000" lon="-1.811358000">
  <ele>128.000000</ele>
  <time>2015-02-24T11:03:01Z</time>
  <name>WPT 1030</name>
</trkpt>
<trkpt lat="53.838639000" lon="-1.811361000">
  <ele>127.000000</ele>
  <time>2015-02-24T11:03:13Z</time>
  <name>WPT 1031</name>
</trkpt>
<trkpt lat="53.838641000" lon="-1.811284000">
  <ele>127.000000</ele>
  <time>2015-02-24T11:03:16Z</time>
  <name>WPT 1032</name>
</trkpt>
<trkpt lat="53.838679000" lon="-1.811200000">
  <ele>127.000000</ele>
  <time>2015-02-24T11:03:19Z</time>
  <name>WPT 1033</name>
</trkpt>
<trkpt lat="53.838640000" lon="-1.811141000">
  <ele>127.000000</ele>
  <time>2015-02-24T11:03:29Z</time>
  <name>WPT 1034</name>
</trkpt>
<trkpt lat="53.838647000" lon="-1.811056000">
  <ele>127.000000</ele>
  <time>2015-02-24T11:03:44Z</time>
  <name>WPT 1035</name>
</trkpt>
<trkpt lat="53.838689000" lon="-1.811025000">
  <ele>128.000000</ele>
  <time>2015-02-24T11:03:54Z</time>
  <name>WPT 1036</name>
</trkpt>
<trkpt lat="53.838724000" lon="-1.810970000">
  <ele>129.000000</ele>
  <time>2015-02-24T11:03:59Z</time>
  <name>WPT 1037</name>
</trkpt>
<trkpt lat="53.838763000" lon="-1.810928000">
  <ele>132.000000</ele>
  <time>2015-02-24T11:04:06Z</time>
  <name>WPT 1038</name>
</trkpt>
<trkpt lat="53.838812000" lon="-1.810909000">
  <ele>134.000000</ele>
  <time>2015-02-24T11:04:11Z</time>
  <name>WPT 1039</name>
</trkpt>
<trkpt lat="53.838861000" lon="-1.810907000">
  <ele>135.000000</ele>
  <time>2015-02-24T11:04:17Z</time>
  <name>WPT 1040</name>
</trkpt>
<trkpt lat="53.838868000" lon="-1.810816000">
  <ele>135.000000</ele>
  <time>2015-02-24T11:04:20Z</time>
  <name>WPT 1041</name>
</trkpt>
<trkpt lat="53.838892000" lon="-1.810749000">
  <ele>135.000000</ele>
  <time>2015-02-24T11:04:26Z</time>
  <name>WPT 1042</name>
</trkpt>
<trkpt lat="53.838924000" lon="-1.810680000">
  <ele>135.000000</ele>
  <time>2015-02-24T11:04:32Z</time>
  <name>WPT 1043</name>
</trkpt>
<trkpt lat="53.838958000" lon="-1.810617000">
  <ele>135.000000</ele>
  <time>2015-02-24T11:04:37Z</time>
  <name>WPT 1044</name>
</trkpt>
<trkpt lat="53.838967000" lon="-1.810541000">
  <ele>136.000000</ele>
  <time>2015-02-24T11:04:44Z</time>
  <name>WPT 1045</name>
</trkpt>
<trkpt lat="53.838998000" lon="-1.810463000">
  <ele>137.000000</ele>
  <time>2015-02-24T11:04:50Z</time>
  <name>WPT 1046</name>
</trkpt>
<trkpt lat="53.839018000" lon="-1.810371000">
  <ele>141.000000</ele>
  <time>2015-02-24T11:05:07Z</time>
  <name>WPT 1047</name>
</trkpt>
<trkpt lat="53.839039000" lon="-1.810243000">
  <ele>143.000000</ele>
  <time>2015-02-24T11:05:12Z</time>
  <name>WPT 1048</name>
</trkpt>
<trkpt lat="53.839059000" lon="-1.810172000">
  <ele>143.000000</ele>
  <time>2015-02-24T11:05:15Z</time>
  <name>WPT 1049</name>
</trkpt>
<trkpt lat="53.839060000" lon="-1.810096000">
  <ele>146.000000</ele>
  <time>2015-02-24T11:05:28Z</time>
  <name>WPT 1050</name>
</trkpt>
<trkpt lat="53.839049000" lon="-1.810019000">
  <ele>147.000000</ele>
  <time>2015-02-24T11:05:33Z</time>
  <name>WPT 1051</name>
</trkpt>
<trkpt lat="53.839078000" lon="-1.809899000">
  <ele>148.000000</ele>
  <time>2015-02-24T11:05:37Z</time>
  <name>WPT 1052</name>
</trkpt>
<trkpt lat="53.839053000" lon="-1.809814000">
  <ele>148.000000</ele>
  <time>2015-02-24T11:05:40Z</time>
  <name>WPT 1053</name>
</trkpt>
<trkpt lat="53.839036000" lon="-1.809737000">
  <ele>149.000000</ele>
  <time>2015-02-24T11:05:43Z</time>
  <name>WPT 1054</name>
</trkpt>
<trkpt lat="53.839067000" lon="-1.809659000">
  <ele>149.000000</ele>
  <time>2015-02-24T11:05:45Z</time>
  <name>WPT 1055</name>
</trkpt>
<trkpt lat="53.839102000" lon="-1.809609000">
  <ele>150.000000</ele>
  <time>2015-02-24T11:05:48Z</time>
  <name>WPT 1056</name>
</trkpt>
<trkpt lat="53.839142000" lon="-1.809507000">
  <ele>151.000000</ele>
  <time>2015-02-24T11:06:02Z</time>
  <name>WPT 1057</name>
</trkpt>
<trkpt lat="53.839164000" lon="-1.809379000">
  <ele>151.000000</ele>
  <time>2015-02-24T11:06:04Z</time>
  <name>WPT 1058</name>
</trkpt>
<trkpt lat="53.839151000" lon="-1.809283000">
  <ele>150.000000</ele>
  <time>2015-02-24T11:06:09Z</time>
  <name>WPT 1059</name>
</trkpt>
<trkpt lat="53.839141000" lon="-1.809206000">
  <ele>150.000000</ele>
  <time>2015-02-24T11:06:11Z</time>
  <name>WPT 1060</name>
</trkpt>
<trkpt lat="53.839197000" lon="-1.809112000">
  <ele>150.000000</ele>
  <time>2015-02-24T11:06:13Z</time>
  <name>WPT 1061</name>
</trkpt>
<trkpt lat="53.839219000" lon="-1.809042000">
  <ele>150.000000</ele>
  <time>2015-02-24T11:06:15Z</time>
  <name>WPT 1062</name>
</trkpt>
<trkpt lat="53.839241000" lon="-1.808969000">
  <ele>150.000000</ele>
  <time>2015-02-24T11:06:19Z</time>
  <name>WPT 1063</name>
</trkpt>
<trkpt lat="53.839228000" lon="-1.808882000">
  <ele>149.000000</ele>
  <time>2015-02-24T11:06:25Z</time>
  <name>WPT 1064</name>
</trkpt>
<trkpt lat="53.839235000" lon="-1.808792000">
  <ele>149.000000</ele>
  <time>2015-02-24T11:06:29Z</time>
  <name>WPT 1065</name>
</trkpt>
<trkpt lat="53.839274000" lon="-1.808732000">
  <ele>149.000000</ele>
  <time>2015-02-24T11:06:33Z</time>
  <name>WPT 1066</name>
</trkpt>
<trkpt lat="53.839315000" lon="-1.808671000">
  <ele>150.000000</ele>
  <time>2015-02-24T11:06:37Z</time>
  <name>WPT 1067</name>
</trkpt>
<trkpt lat="53.839341000" lon="-1.808596000">
  <ele>150.000000</ele>
  <time>2015-02-24T11:06:40Z</time>
  <name>WPT 1068</name>
</trkpt>
<trkpt lat="53.839358000" lon="-1.808516000">
  <ele>150.000000</ele>
  <time>2015-02-24T11:06:43Z</time>
  <name>WPT 1069</name>
</trkpt>
<trkpt lat="53.839371000" lon="-1.808439000">
  <ele>150.000000</ele>
  <time>2015-02-24T11:06:47Z</time>
  <name>WPT 1070</name>
</trkpt>
<trkpt lat="53.839391000" lon="-1.808344000">
  <ele>149.000000</ele>
  <time>2015-02-24T11:06:53Z</time>
  <name>WPT 1071</name>
</trkpt>
<trkpt lat="53.839410000" lon="-1.808244000">
  <ele>149.000000</ele>
  <time>2015-02-24T11:06:56Z</time>
  <name>WPT 1072</name>
</trkpt>
<trkpt lat="53.839408000" lon="-1.808148000">
  <ele>149.000000</ele>
  <time>2015-02-24T11:06:58Z</time>
  <name>WPT 1073</name>
</trkpt>
<trkpt lat="53.839382000" lon="-1.808065000">
  <ele>148.000000</ele>
  <time>2015-02-24T11:07:01Z</time>
  <name>WPT 1074</name>
</trkpt>
<trkpt lat="53.839371000" lon="-1.807990000">
  <ele>148.000000</ele>
  <time>2015-02-24T11:07:06Z</time>
  <name>WPT 1075</name>
</trkpt>
<trkpt lat="53.839352000" lon="-1.807917000">
  <ele>148.000000</ele>
  <time>2015-02-24T11:07:13Z</time>
  <name>WPT 1076</name>
</trkpt>
<trkpt lat="53.839346000" lon="-1.807822000">
  <ele>147.000000</ele>
  <time>2015-02-24T11:07:19Z</time>
  <name>WPT 1077</name>
</trkpt>
<trkpt lat="53.839365000" lon="-1.807695000">
  <ele>145.000000</ele>
  <time>2015-02-24T11:07:24Z</time>
  <name>WPT 1078</name>
</trkpt>
<trkpt lat="53.839376000" lon="-1.807616000">
  <ele>144.000000</ele>
  <time>2015-02-24T11:07:33Z</time>
  <name>WPT 1079</name>
</trkpt>
<trkpt lat="53.839375000" lon="-1.807539000">
  <ele>144.000000</ele>
  <time>2015-02-24T11:07:37Z</time>
  <name>WPT 1080</name>
</trkpt>
<trkpt lat="53.839418000" lon="-1.807442000">
  <ele>144.000000</ele>
  <time>2015-02-24T11:07:41Z</time>
  <name>WPT 1081</name>
</trkpt>
<trkpt lat="53.839457000" lon="-1.807352000">
  <ele>144.000000</ele>
  <time>2015-02-24T11:07:43Z</time>
  <name>WPT 1082</name>
</trkpt>
<trkpt lat="53.839483000" lon="-1.807285000">
  <ele>144.000000</ele>
  <time>2015-02-24T11:07:51Z</time>
  <name>WPT 1083</name>
</trkpt>
<trkpt lat="53.839500000" lon="-1.807202000">
  <ele>145.000000</ele>
  <time>2015-02-24T11:07:56Z</time>
  <name>WPT 1084</name>
</trkpt>
<trkpt lat="53.839507000" lon="-1.807122000">
  <ele>146.000000</ele>
  <time>2015-02-24T11:07:59Z</time>
  <name>WPT 1085</name>
</trkpt>
<trkpt lat="53.839526000" lon="-1.806944000">
  <ele>147.000000</ele>
  <time>2015-02-24T11:08:04Z</time>
  <name>WPT 1086</name>
</trkpt>
<trkpt lat="53.839554000" lon="-1.806862000">
  <ele>147.000000</ele>
  <time>2015-02-24T11:08:06Z</time>
  <name>WPT 1087</name>
</trkpt>
<trkpt lat="53.839589000" lon="-1.806798000">
  <ele>147.000000</ele>
  <time>2015-02-24T11:08:08Z</time>
  <name>WPT 1088</name>
</trkpt>
<trkpt lat="53.839618000" lon="-1.806729000">
  <ele>148.000000</ele>
  <time>2015-02-24T11:08:10Z</time>
  <name>WPT 1089</name>
</trkpt>
<trkpt lat="53.839635000" lon="-1.806637000">
  <ele>147.000000</ele>
  <time>2015-02-24T11:08:19Z</time>
  <name>WPT 1090</name>
</trkpt>
<trkpt lat="53.839650000" lon="-1.806549000">
  <ele>147.000000</ele>
  <time>2015-02-24T11:08:24Z</time>
  <name>WPT 1091</name>
</trkpt>
<trkpt lat="53.839660000" lon="-1.806465000">
  <ele>147.000000</ele>
  <time>2015-02-24T11:08:30Z</time>
  <name>WPT 1092</name>
</trkpt>
<trkpt lat="53.839676000" lon="-1.806392000">
  <ele>147.000000</ele>
  <time>2015-02-24T11:08:36Z</time>
  <name>WPT 1093</name>
</trkpt>
<trkpt lat="53.839682000" lon="-1.806312000">
  <ele>147.000000</ele>
  <time>2015-02-24T11:08:39Z</time>
  <name>WPT 1094</name>
</trkpt>
<trkpt lat="53.839687000" lon="-1.806220000">
  <ele>145.000000</ele>
  <time>2015-02-24T11:08:50Z</time>
  <name>WPT 1095</name>
</trkpt>
<trkpt lat="53.839703000" lon="-1.806130000">
  <ele>146.000000</ele>
  <time>2015-02-24T11:08:53Z</time>
  <name>WPT 1096</name>
</trkpt>
<trkpt lat="53.839677000" lon="-1.806067000">
  <ele>146.000000</ele>
  <time>2015-02-24T11:08:56Z</time>
  <name>WPT 1097</name>
</trkpt>
<trkpt lat="53.839649000" lon="-1.805978000">
  <ele>146.000000</ele>
  <time>2015-02-24T11:09:01Z</time>
  <name>WPT 1098</name>
</trkpt>
<trkpt lat="53.839648000" lon="-1.805900000">
  <ele>146.000000</ele>
  <time>2015-02-24T11:09:04Z</time>
  <name>WPT 1099</name>
</trkpt>
<trkpt lat="53.839651000" lon="-1.805792000">
  <ele>146.000000</ele>
  <time>2015-02-24T11:09:09Z</time>
  <name>WPT 1100</name>
</trkpt>
<trkpt lat="53.839664000" lon="-1.805705000">
  <ele>146.000000</ele>
  <time>2015-02-24T11:09:18Z</time>
  <name>WPT 1101</name>
</trkpt>
<trkpt lat="53.839712000" lon="-1.805578000">
  <ele>146.000000</ele>
  <time>2015-02-24T11:09:24Z</time>
  <name>WPT 1102</name>
</trkpt>
<trkpt lat="53.839737000" lon="-1.805496000">
  <ele>146.000000</ele>
  <time>2015-02-24T11:09:26Z</time>
  <name>WPT 1103</name>
</trkpt>
<trkpt lat="53.839753000" lon="-1.805420000">
  <ele>147.000000</ele>
  <time>2015-02-24T11:09:29Z</time>
  <name>WPT 1104</name>
</trkpt>
<trkpt lat="53.839788000" lon="-1.805340000">
  <ele>147.000000</ele>
  <time>2015-02-24T11:09:32Z</time>
  <name>WPT 1105</name>
</trkpt>
<trkpt lat="53.839805000" lon="-1.805254000">
  <ele>147.000000</ele>
  <time>2015-02-24T11:09:35Z</time>
  <name>WPT 1106</name>
</trkpt>
<trkpt lat="53.839768000" lon="-1.805176000">
  <ele>147.000000</ele>
  <time>2015-02-24T11:09:40Z</time>
  <name>WPT 1107</name>
</trkpt>
<trkpt lat="53.839766000" lon="-1.805094000">
  <ele>147.000000</ele>
  <time>2015-02-24T11:09:44Z</time>
  <name>WPT 1108</name>
</trkpt>
<trkpt lat="53.839787000" lon="-1.805013000">
  <ele>147.000000</ele>
  <time>2015-02-24T11:09:48Z</time>
  <name>WPT 1109</name>
</trkpt>
<trkpt lat="53.839763000" lon="-1.804915000">
  <ele>147.000000</ele>
  <time>2015-02-24T11:09:53Z</time>
  <name>WPT 1110</name>
</trkpt>
<trkpt lat="53.839728000" lon="-1.804838000">
  <ele>146.000000</ele>
  <time>2015-02-24T11:09:58Z</time>
  <name>WPT 1111</name>
</trkpt>
<trkpt lat="53.839718000" lon="-1.804762000">
  <ele>146.000000</ele>
  <time>2015-02-24T11:10:01Z</time>
  <name>WPT 1112</name>
</trkpt>
<trkpt lat="53.839711000" lon="-1.804674000">
  <ele>145.000000</ele>
  <time>2015-02-24T11:10:03Z</time>
  <name>WPT 1113</name>
</trkpt>
<trkpt lat="53.839713000" lon="-1.804597000">
  <ele>145.000000</ele>
  <time>2015-02-24T11:10:06Z</time>
  <name>WPT 1114</name>
</trkpt>
<trkpt lat="53.839745000" lon="-1.804495000">
  <ele>145.000000</ele>
  <time>2015-02-24T11:10:09Z</time>
  <name>WPT 1115</name>
</trkpt>
<trkpt lat="53.839793000" lon="-1.804434000">
  <ele>144.000000</ele>
  <time>2015-02-24T11:10:13Z</time>
  <name>WPT 1116</name>
</trkpt>
<trkpt lat="53.839786000" lon="-1.804341000">
  <ele>144.000000</ele>
  <time>2015-02-24T11:10:18Z</time>
  <name>WPT 1117</name>
</trkpt>
<trkpt lat="53.839793000" lon="-1.804256000">
  <ele>143.000000</ele>
  <time>2015-02-24T11:10:21Z</time>
  <name>WPT 1118</name>
</trkpt>
<trkpt lat="53.839767000" lon="-1.804179000">
  <ele>142.000000</ele>
  <time>2015-02-24T11:10:28Z</time>
  <name>WPT 1119</name>
</trkpt>
<trkpt lat="53.839712000" lon="-1.804124000">
  <ele>142.000000</ele>
  <time>2015-02-24T11:10:32Z</time>
  <name>WPT 1120</name>
</trkpt>
<trkpt lat="53.839698000" lon="-1.804050000">
  <ele>142.000000</ele>
  <time>2015-02-24T11:10:34Z</time>
  <name>WPT 1121</name>
</trkpt>
<trkpt lat="53.839698000" lon="-1.803948000">
  <ele>142.000000</ele>
  <time>2015-02-24T11:10:36Z</time>
  <name>WPT 1122</name>
</trkpt>
<trkpt lat="53.839701000" lon="-1.803846000">
  <ele>142.000000</ele>
  <time>2015-02-24T11:10:39Z</time>
  <name>WPT 1123</name>
</trkpt>
<trkpt lat="53.839692000" lon="-1.803770000">
  <ele>142.000000</ele>
  <time>2015-02-24T11:10:44Z</time>
  <name>WPT 1124</name>
</trkpt>
<trkpt lat="53.839698000" lon="-1.803661000">
  <ele>142.000000</ele>
  <time>2015-02-24T11:10:53Z</time>
  <name>WPT 1125</name>
</trkpt>
<trkpt lat="53.839741000" lon="-1.803592000">
  <ele>142.000000</ele>
  <time>2015-02-24T11:10:59Z</time>
  <name>WPT 1126</name>
</trkpt>
<trkpt lat="53.839784000" lon="-1.803541000">
  <ele>142.000000</ele>
  <time>2015-02-24T11:11:01Z</time>
  <name>WPT 1127</name>
</trkpt>
<trkpt lat="53.839822000" lon="-1.803405000">
  <ele>141.000000</ele>
  <time>2015-02-24T11:11:04Z</time>
  <name>WPT 1128</name>
</trkpt>
<trkpt lat="53.839844000" lon="-1.803303000">
  <ele>141.000000</ele>
  <time>2015-02-24T11:11:06Z</time>
  <name>WPT 1129</name>
</trkpt>
<trkpt lat="53.839860000" lon="-1.803219000">
  <ele>140.000000</ele>
  <time>2015-02-24T11:11:08Z</time>
  <name>WPT 1130</name>
</trkpt>
<trkpt lat="53.839875000" lon="-1.803130000">
  <ele>140.000000</ele>
  <time>2015-02-24T11:11:10Z</time>
  <name>WPT 1131</name>
</trkpt>
<trkpt lat="53.839837000" lon="-1.803053000">
  <ele>138.000000</ele>
  <time>2015-02-24T11:11:18Z</time>
  <name>WPT 1132</name>
</trkpt>
<trkpt lat="53.839836000" lon="-1.802949000">
  <ele>138.000000</ele>
  <time>2015-02-24T11:11:21Z</time>
  <name>WPT 1133</name>
</trkpt>
<trkpt lat="53.839841000" lon="-1.802873000">
  <ele>137.000000</ele>
  <time>2015-02-24T11:11:24Z</time>
  <name>WPT 1134</name>
</trkpt>
<trkpt lat="53.839845000" lon="-1.802784000">
  <ele>137.000000</ele>
  <time>2015-02-24T11:11:26Z</time>
  <name>WPT 1135</name>
</trkpt>
<trkpt lat="53.839910000" lon="-1.802675000">
  <ele>137.000000</ele>
  <time>2015-02-24T11:11:28Z</time>
  <name>WPT 1136</name>
</trkpt>
<trkpt lat="53.839934000" lon="-1.802598000">
  <ele>136.000000</ele>
  <time>2015-02-24T11:11:31Z</time>
  <name>WPT 1137</name>
</trkpt>
<trkpt lat="53.839948000" lon="-1.802521000">
  <ele>136.000000</ele>
  <time>2015-02-24T11:11:42Z</time>
  <name>WPT 1138</name>
</trkpt>
<trkpt lat="53.839950000" lon="-1.802443000">
  <ele>136.000000</ele>
  <time>2015-02-24T11:11:50Z</time>
  <name>WPT 1139</name>
</trkpt>
<trkpt lat="53.839990000" lon="-1.802339000">
  <ele>137.000000</ele>
  <time>2015-02-24T11:11:54Z</time>
  <name>WPT 1140</name>
</trkpt>
<trkpt lat="53.840009000" lon="-1.802259000">
  <ele>137.000000</ele>
  <time>2015-02-24T11:11:57Z</time>
  <name>WPT 1141</name>
</trkpt>
<trkpt lat="53.840044000" lon="-1.802185000">
  <ele>137.000000</ele>
  <time>2015-02-24T11:12:01Z</time>
  <name>WPT 1142</name>
</trkpt>
<trkpt lat="53.840075000" lon="-1.802105000">
  <ele>137.000000</ele>
  <time>2015-02-24T11:12:03Z</time>
  <name>WPT 1143</name>
</trkpt>
<trkpt lat="53.840103000" lon="-1.802034000">
  <ele>136.000000</ele>
  <time>2015-02-24T11:12:09Z</time>
  <name>WPT 1144</name>
</trkpt>
<trkpt lat="53.840124000" lon="-1.801966000">
  <ele>137.000000</ele>
  <time>2015-02-24T11:12:18Z</time>
  <name>WPT 1145</name>
</trkpt>
<trkpt lat="53.840192000" lon="-1.801949000">
  <ele>136.000000</ele>
  <time>2015-02-24T11:12:34Z</time>
  <name>WPT 1146</name>
</trkpt>
<trkpt lat="53.840237000" lon="-1.801933000">
  <ele>135.000000</ele>
  <time>2015-02-24T11:12:36Z</time>
  <name>WPT 1147</name>
</trkpt>
<trkpt lat="53.840268000" lon="-1.801877000">
  <ele>132.000000</ele>
  <time>2015-02-24T11:12:54Z</time>
  <name>WPT 1148</name>
</trkpt>
<trkpt lat="53.840305000" lon="-1.801925000">
  <ele>130.000000</ele>
  <time>2015-02-24T11:13:05Z</time>
  <name>WPT 1149</name>
</trkpt>
<trkpt lat="53.840357000" lon="-1.801981000">
  <ele>129.000000</ele>
  <time>2015-02-24T11:13:13Z</time>
  <name>WPT 1150</name>
</trkpt>
<trkpt lat="53.840399000" lon="-1.802026000">
  <ele>129.000000</ele>
  <time>2015-02-24T11:13:16Z</time>
  <name>WPT 1151</name>
</trkpt>
<trkpt lat="53.840444000" lon="-1.802074000">
  <ele>129.000000</ele>
  <time>2015-02-24T11:13:19Z</time>
  <name>WPT 1152</name>
</trkpt>
<trkpt lat="53.840491000" lon="-1.802106000">
  <ele>128.000000</ele>
  <time>2015-02-24T11:13:24Z</time>
  <name>WPT 1153</name>
</trkpt>
<trkpt lat="53.840527000" lon="-1.802156000">
  <ele>128.000000</ele>
  <time>2015-02-24T11:13:27Z</time>
  <name>WPT 1154</name>
</trkpt>
<trkpt lat="53.840571000" lon="-1.802189000">
  <ele>128.000000</ele>
  <time>2015-02-24T11:13:30Z</time>
  <name>WPT 1155</name>
</trkpt>
<trkpt lat="53.840614000" lon="-1.802232000">
  <ele>127.000000</ele>
  <time>2015-02-24T11:13:34Z</time>
  <name>WPT 1156</name>
</trkpt>
<trkpt lat="53.840658000" lon="-1.802271000">
  <ele>127.000000</ele>
  <time>2015-02-24T11:13:37Z</time>
  <name>WPT 1157</name>
</trkpt>
<trkpt lat="53.840701000" lon="-1.802307000">
  <ele>127.000000</ele>
  <time>2015-02-24T11:13:40Z</time>
  <name>WPT 1158</name>
</trkpt>
<trkpt lat="53.840748000" lon="-1.802329000">
  <ele>127.000000</ele>
  <time>2015-02-24T11:13:42Z</time>
  <name>WPT 1159</name>
</trkpt>
<trkpt lat="53.840806000" lon="-1.802325000">
  <ele>126.000000</ele>
  <time>2015-02-24T11:13:47Z</time>
  <name>WPT 1160</name>
</trkpt>
<trkpt lat="53.840849000" lon="-1.802280000">
  <ele>125.000000</ele>
  <time>2015-02-24T11:13:53Z</time>
  <name>WPT 1161</name>
</trkpt>
<trkpt lat="53.840871000" lon="-1.802211000">
  <ele>125.000000</ele>
  <time>2015-02-24T11:13:59Z</time>
  <name>WPT 1162</name>
</trkpt>
<trkpt lat="53.840881000" lon="-1.802132000">
  <ele>124.000000</ele>
  <time>2015-02-24T11:14:05Z</time>
  <name>WPT 1163</name>
</trkpt>
<trkpt lat="53.840898000" lon="-1.802046000">
  <ele>124.000000</ele>
  <time>2015-02-24T11:14:11Z</time>
  <name>WPT 1164</name>
</trkpt>
<trkpt lat="53.840870000" lon="-1.801971000">
  <ele>125.000000</ele>
  <time>2015-02-24T11:14:16Z</time>
  <name>WPT 1165</name>
</trkpt>
<trkpt lat="53.840861000" lon="-1.801890000">
  <ele>126.000000</ele>
  <time>2015-02-24T11:14:20Z</time>
  <name>WPT 1166</name>
</trkpt>
<trkpt lat="53.840850000" lon="-1.801796000">
  <ele>127.000000</ele>
  <time>2015-02-24T11:14:25Z</time>
  <name>WPT 1167</name>
</trkpt>
<trkpt lat="53.840842000" lon="-1.801699000">
  <ele>130.000000</ele>
  <time>2015-02-24T11:14:36Z</time>
  <name>WPT 1168</name>
</trkpt>
<trkpt lat="53.840868000" lon="-1.801636000">
  <ele>129.000000</ele>
  <time>2015-02-24T11:14:54Z</time>
  <name>WPT 1169</name>
</trkpt>
<trkpt lat="53.840888000" lon="-1.801562000">
  <ele>129.000000</ele>
  <time>2015-02-24T11:14:57Z</time>
  <name>WPT 1170</name>
</trkpt>
<trkpt lat="53.840901000" lon="-1.801472000">
  <ele>129.000000</ele>
  <time>2015-02-24T11:15:01Z</time>
  <name>WPT 1171</name>
</trkpt>
<trkpt lat="53.840902000" lon="-1.801376000">
  <ele>129.000000</ele>
  <time>2015-02-24T11:15:05Z</time>
  <name>WPT 1172</name>
</trkpt>
<trkpt lat="53.840866000" lon="-1.801320000">
  <ele>129.000000</ele>
  <time>2015-02-24T11:15:10Z</time>
  <name>WPT 1173</name>
</trkpt>
<trkpt lat="53.840814000" lon="-1.801288000">
  <ele>129.000000</ele>
  <time>2015-02-24T11:15:13Z</time>
  <name>WPT 1174</name>
</trkpt>
<trkpt lat="53.840772000" lon="-1.801191000">
  <ele>129.000000</ele>
  <time>2015-02-24T11:15:15Z</time>
  <name>WPT 1175</name>
</trkpt>
<trkpt lat="53.840775000" lon="-1.801092000">
  <ele>129.000000</ele>
  <time>2015-02-24T11:15:17Z</time>
  <name>WPT 1176</name>
</trkpt>
<trkpt lat="53.840805000" lon="-1.801020000">
  <ele>128.000000</ele>
  <time>2015-02-24T11:15:19Z</time>
  <name>WPT 1177</name>
</trkpt>
<trkpt lat="53.840852000" lon="-1.801003000">
  <ele>128.000000</ele>
  <time>2015-02-24T11:15:23Z</time>
  <name>WPT 1178</name>
</trkpt>
<trkpt lat="53.840899000" lon="-1.800985000">
  <ele>128.000000</ele>
  <time>2015-02-24T11:15:31Z</time>
  <name>WPT 1179</name>
</trkpt>
<trkpt lat="53.840944000" lon="-1.800977000">
  <ele>128.000000</ele>
  <time>2015-02-24T11:15:35Z</time>
  <name>WPT 1180</name>
</trkpt>
<trkpt lat="53.840997000" lon="-1.800955000">
  <ele>128.000000</ele>
  <time>2015-02-24T11:15:37Z</time>
  <name>WPT 1181</name>
</trkpt>
<trkpt lat="53.841042000" lon="-1.800914000">
  <ele>127.000000</ele>
  <time>2015-02-24T11:15:40Z</time>
  <name>WPT 1182</name>
</trkpt>
<trkpt lat="53.841091000" lon="-1.800900000">
  <ele>127.000000</ele>
  <time>2015-02-24T11:15:42Z</time>
  <name>WPT 1183</name>
</trkpt>
<trkpt lat="53.841139000" lon="-1.800858000">
  <ele>127.000000</ele>
  <time>2015-02-24T11:15:44Z</time>
  <name>WPT 1184</name>
</trkpt>
<trkpt lat="53.841179000" lon="-1.800795000">
  <ele>127.000000</ele>
  <time>2015-02-24T11:15:48Z</time>
  <name>WPT 1185</name>
</trkpt>
<trkpt lat="53.841205000" lon="-1.800725000">
  <ele>125.000000</ele>
  <time>2015-02-24T11:16:07Z</time>
  <name>WPT 1186</name>
</trkpt>
<trkpt lat="53.841245000" lon="-1.800677000">
  <ele>124.000000</ele>
  <time>2015-02-24T11:16:15Z</time>
  <name>WPT 1187</name>
</trkpt>
<trkpt lat="53.841290000" lon="-1.800630000">
  <ele>124.000000</ele>
  <time>2015-02-24T11:16:17Z</time>
  <name>WPT 1188</name>
</trkpt>
<trkpt lat="53.841367000" lon="-1.800644000">
  <ele>124.000000</ele>
  <time>2015-02-24T11:16:22Z</time>
  <name>WPT 1189</name>
</trkpt>
<trkpt lat="53.841426000" lon="-1.800677000">
  <ele>124.000000</ele>
  <time>2015-02-24T11:16:25Z</time>
  <name>WPT 1190</name>
</trkpt>
<trkpt lat="53.841442000" lon="-1.800757000">
  <ele>122.000000</ele>
  <time>2015-02-24T11:16:32Z</time>
  <name>WPT 1191</name>
</trkpt>
<trkpt lat="53.841459000" lon="-1.800833000">
  <ele>122.000000</ele>
  <time>2015-02-24T11:16:37Z</time>
  <name>WPT 1192</name>
</trkpt>
<trkpt lat="53.841477000" lon="-1.800921000">
  <ele>121.000000</ele>
  <time>2015-02-24T11:16:39Z</time>
  <name>WPT 1193</name>
</trkpt>
<trkpt lat="53.841481000" lon="-1.800998000">
  <ele>121.000000</ele>
  <time>2015-02-24T11:16:44Z</time>
  <name>WPT 1194</name>
</trkpt>
<trkpt lat="53.841491000" lon="-1.801075000">
  <ele>120.000000</ele>
  <time>2015-02-24T11:16:50Z</time>
  <name>WPT 1195</name>
</trkpt>
<trkpt lat="53.841500000" lon="-1.801151000">
  <ele>119.000000</ele>
  <time>2015-02-24T11:16:55Z</time>
  <name>WPT 1196</name>
</trkpt>
<trkpt lat="53.841532000" lon="-1.801226000">
  <ele>119.000000</ele>
  <time>2015-02-24T11:16:59Z</time>
  <name>WPT 1197</name>
</trkpt>
<trkpt lat="53.841573000" lon="-1.801318000">
  <ele>119.000000</ele>
  <time>2015-02-24T11:17:06Z</time>
  <name>WPT 1198</name>
</trkpt>
<trkpt lat="53.841589000" lon="-1.801391000">
  <ele>118.000000</ele>
  <time>2015-02-24T11:17:09Z</time>
  <name>WPT 1199</name>
</trkpt>
<trkpt lat="53.841622000" lon="-1.801497000">
  <ele>117.000000</ele>
  <time>2015-02-24T11:17:14Z</time>
  <name>WPT 1200</name>
</trkpt>
<trkpt lat="53.841589000" lon="-1.801561000">
  <ele>116.000000</ele>
  <time>2015-02-24T11:17:19Z</time>
  <name>WPT 1201</name>
</trkpt>
<trkpt lat="53.841622000" lon="-1.801623000">
  <ele>115.000000</ele>
  <time>2015-02-24T11:17:28Z</time>
  <name>WPT 1202</name>
</trkpt>
<trkpt lat="53.841657000" lon="-1.801687000">
  <ele>115.000000</ele>
  <time>2015-02-24T11:17:30Z</time>
  <name>WPT 1203</name>
</trkpt>
<trkpt lat="53.841689000" lon="-1.801754000">
  <ele>115.000000</ele>
  <time>2015-02-24T11:17:33Z</time>
  <name>WPT 1204</name>
</trkpt>
<trkpt lat="53.841728000" lon="-1.801797000">
  <ele>115.000000</ele>
  <time>2015-02-24T11:17:36Z</time>
  <name>WPT 1205</name>
</trkpt>
<trkpt lat="53.841764000" lon="-1.801847000">
  <ele>115.000000</ele>
  <time>2015-02-24T11:17:41Z</time>
  <name>WPT 1206</name>
</trkpt>
<trkpt lat="53.841757000" lon="-1.801952000">
  <ele>115.000000</ele>
  <time>2015-02-24T11:17:49Z</time>
  <name>WPT 1207</name>
</trkpt>
<trkpt lat="53.841785000" lon="-1.802049000">
  <ele>115.000000</ele>
  <time>2015-02-24T11:17:53Z</time>
  <name>WPT 1208</name>
</trkpt>
<trkpt lat="53.841800000" lon="-1.802122000">
  <ele>115.000000</ele>
  <time>2015-02-24T11:18:01Z</time>
  <name>WPT 1209</name>
</trkpt>
<trkpt lat="53.841839000" lon="-1.802195000">
  <ele>116.000000</ele>
  <time>2015-02-24T11:18:05Z</time>
  <name>WPT 1210</name>
</trkpt>
<trkpt lat="53.841864000" lon="-1.802278000">
  <ele>116.000000</ele>
  <time>2015-02-24T11:18:10Z</time>
  <name>WPT 1211</name>
</trkpt>
<trkpt lat="53.841890000" lon="-1.802351000">
  <ele>116.000000</ele>
  <time>2015-02-24T11:18:14Z</time>
  <name>WPT 1212</name>
</trkpt>
<trkpt lat="53.841865000" lon="-1.802426000">
  <ele>115.000000</ele>
  <time>2015-02-24T11:18:22Z</time>
  <name>WPT 1213</name>
</trkpt>
<trkpt lat="53.841855000" lon="-1.802503000">
  <ele>114.000000</ele>
  <time>2015-02-24T11:18:31Z</time>
  <name>WPT 1214</name>
</trkpt>
<trkpt lat="53.841899000" lon="-1.802535000">
  <ele>114.000000</ele>
  <time>2015-02-24T11:18:44Z</time>
  <name>WPT 1215</name>
</trkpt>
<trkpt lat="53.841944000" lon="-1.802560000">
  <ele>115.000000</ele>
  <time>2015-02-24T11:18:47Z</time>
  <name>WPT 1216</name>
</trkpt>
<trkpt lat="53.841972000" lon="-1.802497000">
  <ele>115.000000</ele>
  <time>2015-02-24T11:18:53Z</time>
  <name>WPT 1217</name>
</trkpt>
<trkpt lat="53.842015000" lon="-1.802434000">
  <ele>115.000000</ele>
  <time>2015-02-24T11:18:57Z</time>
  <name>WPT 1218</name>
</trkpt>
<trkpt lat="53.842047000" lon="-1.802351000">
  <ele>116.000000</ele>
  <time>2015-02-24T11:19:02Z</time>
  <name>WPT 1219</name>
</trkpt>
<trkpt lat="53.842096000" lon="-1.802336000">
  <ele>116.000000</ele>
  <time>2015-02-24T11:19:05Z</time>
  <name>WPT 1220</name>
</trkpt>
<trkpt lat="53.842145000" lon="-1.802314000">
  <ele>116.000000</ele>
  <time>2015-02-24T11:19:10Z</time>
  <name>WPT 1221</name>
</trkpt>
<trkpt lat="53.842192000" lon="-1.802322000">
  <ele>116.000000</ele>
  <time>2015-02-24T11:19:14Z</time>
  <name>WPT 1222</name>
</trkpt>
<trkpt lat="53.842246000" lon="-1.802310000">
  <ele>118.000000</ele>
  <time>2015-02-24T11:19:22Z</time>
  <name>WPT 1223</name>
</trkpt>
<trkpt lat="53.842300000" lon="-1.802318000">
  <ele>118.000000</ele>
  <time>2015-02-24T11:19:24Z</time>
  <name>WPT 1224</name>
</trkpt>
<trkpt lat="53.842355000" lon="-1.802292000">
  <ele>118.000000</ele>
  <time>2015-02-24T11:19:27Z</time>
  <name>WPT 1225</name>
</trkpt>
<trkpt lat="53.842399000" lon="-1.802333000">
  <ele>118.000000</ele>
  <time>2015-02-24T11:19:32Z</time>
  <name>WPT 1226</name>
</trkpt>
<trkpt lat="53.842447000" lon="-1.802335000">
  <ele>120.000000</ele>
  <time>2015-02-24T11:19:36Z</time>
  <name>WPT 1227</name>
</trkpt>
<trkpt lat="53.842496000" lon="-1.802342000">
  <ele>120.000000</ele>
  <time>2015-02-24T11:19:38Z</time>
  <name>WPT 1228</name>
</trkpt>
<trkpt lat="53.842539000" lon="-1.802397000">
  <ele>120.000000</ele>
  <time>2015-02-24T11:19:42Z</time>
  <name>WPT 1229</name>
</trkpt>
<trkpt lat="53.842584000" lon="-1.802436000">
  <ele>121.000000</ele>
  <time>2015-02-24T11:19:47Z</time>
  <name>WPT 1230</name>
</trkpt>
<trkpt lat="53.842627000" lon="-1.802457000">
  <ele>121.000000</ele>
  <time>2015-02-24T11:19:51Z</time>
  <name>WPT 1231</name>
</trkpt>
<trkpt lat="53.842665000" lon="-1.802507000">
  <ele>121.000000</ele>
  <time>2015-02-24T11:19:54Z</time>
  <name>WPT 1232</name>
</trkpt>
<trkpt lat="53.842718000" lon="-1.802588000">
  <ele>121.000000</ele>
  <time>2015-02-24T11:19:57Z</time>
  <name>WPT 1233</name>
</trkpt>
<trkpt lat="53.842765000" lon="-1.802633000">
  <ele>120.000000</ele>
  <time>2015-02-24T11:20:00Z</time>
  <name>WPT 1234</name>
</trkpt>
<trkpt lat="53.842802000" lon="-1.802677000">
  <ele>120.000000</ele>
  <time>2015-02-24T11:20:04Z</time>
  <name>WPT 1235</name>
</trkpt>
<trkpt lat="53.842855000" lon="-1.802663000">
  <ele>119.000000</ele>
  <time>2015-02-24T11:20:06Z</time>
  <name>WPT 1236</name>
</trkpt>
<trkpt lat="53.842901000" lon="-1.802663000">
  <ele>119.000000</ele>
  <time>2015-02-24T11:20:08Z</time>
  <name>WPT 1237</name>
</trkpt>
<trkpt lat="53.842950000" lon="-1.802669000">
  <ele>119.000000</ele>
  <time>2015-02-24T11:20:15Z</time>
  <name>WPT 1238</name>
</trkpt>
<trkpt lat="53.843002000" lon="-1.802668000">
  <ele>119.000000</ele>
  <time>2015-02-24T11:20:18Z</time>
  <name>WPT 1239</name>
</trkpt>
<trkpt lat="53.843083000" lon="-1.802674000">
  <ele>119.000000</ele>
  <time>2015-02-24T11:20:21Z</time>
  <name>WPT 1240</name>
</trkpt>
<trkpt lat="53.843140000" lon="-1.802650000">
  <ele>119.000000</ele>
  <time>2015-02-24T11:20:25Z</time>
  <name>WPT 1241</name>
</trkpt>
<trkpt lat="53.843195000" lon="-1.802636000">
  <ele>119.000000</ele>
  <time>2015-02-24T11:20:30Z</time>
  <name>WPT 1242</name>
</trkpt>
<trkpt lat="53.843242000" lon="-1.802616000">
  <ele>119.000000</ele>
  <time>2015-02-24T11:20:33Z</time>
  <name>WPT 1243</name>
</trkpt>
<trkpt lat="53.843289000" lon="-1.802609000">
  <ele>119.000000</ele>
  <time>2015-02-24T11:20:37Z</time>
  <name>WPT 1244</name>
</trkpt>
<trkpt lat="53.843341000" lon="-1.802625000">
  <ele>119.000000</ele>
  <time>2015-02-24T11:20:43Z</time>
  <name>WPT 1245</name>
</trkpt>
<trkpt lat="53.843390000" lon="-1.802614000">
  <ele>119.000000</ele>
  <time>2015-02-24T11:20:49Z</time>
  <name>WPT 1246</name>
</trkpt>
<trkpt lat="53.843436000" lon="-1.802618000">
  <ele>119.000000</ele>
  <time>2015-02-24T11:21:01Z</time>
  <name>WPT 1247</name>
</trkpt>
<trkpt lat="53.843491000" lon="-1.802617000">
  <ele>119.000000</ele>
  <time>2015-02-24T11:21:06Z</time>
  <name>WPT 1248</name>
</trkpt>
<trkpt lat="53.843530000" lon="-1.802700000">
  <ele>118.000000</ele>
  <time>2015-02-24T11:21:15Z</time>
  <name>WPT 1249</name>
</trkpt>
<trkpt lat="53.843538000" lon="-1.802777000">
  <ele>118.000000</ele>
  <time>2015-02-24T11:21:18Z</time>
  <name>WPT 1250</name>
</trkpt>
<trkpt lat="53.843551000" lon="-1.802853000">
  <ele>119.000000</ele>
  <time>2015-02-24T11:21:21Z</time>
  <name>WPT 1251</name>
</trkpt>
<trkpt lat="53.843584000" lon="-1.802977000">
  <ele>120.000000</ele>
  <time>2015-02-24T11:21:28Z</time>
  <name>WPT 1252</name>
</trkpt>
<trkpt lat="53.843592000" lon="-1.803063000">
  <ele>120.000000</ele>
  <time>2015-02-24T11:21:31Z</time>
  <name>WPT 1253</name>
</trkpt>
<trkpt lat="53.843587000" lon="-1.803151000">
  <ele>120.000000</ele>
  <time>2015-02-24T11:21:35Z</time>
  <name>WPT 1254</name>
</trkpt>
<trkpt lat="53.843602000" lon="-1.803227000">
  <ele>120.000000</ele>
  <time>2015-02-24T11:21:38Z</time>
  <name>WPT 1255</name>
</trkpt>
<trkpt lat="53.843618000" lon="-1.803318000">
  <ele>121.000000</ele>
  <time>2015-02-24T11:21:46Z</time>
  <name>WPT 1256</name>
</trkpt>
<trkpt lat="53.843627000" lon="-1.803408000">
  <ele>123.000000</ele>
  <time>2015-02-24T11:21:51Z</time>
  <name>WPT 1257</name>
</trkpt>
<trkpt lat="53.843646000" lon="-1.803582000">
  <ele>123.000000</ele>
  <time>2015-02-24T11:21:56Z</time>
  <name>WPT 1258</name>
</trkpt>
<trkpt lat="53.843674000" lon="-1.803684000">
  <ele>123.000000</ele>
  <time>2015-02-24T11:21:58Z</time>
  <name>WPT 1259</name>
</trkpt>
<trkpt lat="53.843678000" lon="-1.803816000">
  <ele>124.000000</ele>
  <time>2015-02-24T11:22:04Z</time>
  <name>WPT 1260</name>
</trkpt>
<trkpt lat="53.843693000" lon="-1.803911000">
  <ele>124.000000</ele>
  <time>2015-02-24T11:22:08Z</time>
  <name>WPT 1261</name>
</trkpt>
<trkpt lat="53.843704000" lon="-1.803989000">
  <ele>124.000000</ele>
  <time>2015-02-24T11:22:11Z</time>
  <name>WPT 1262</name>
</trkpt>
<trkpt lat="53.843718000" lon="-1.804071000">
  <ele>124.000000</ele>
  <time>2015-02-24T11:22:15Z</time>
  <name>WPT 1263</name>
</trkpt>
<trkpt lat="53.843727000" lon="-1.804170000">
  <ele>124.000000</ele>
  <time>2015-02-24T11:22:19Z</time>
  <name>WPT 1264</name>
</trkpt>
<trkpt lat="53.843751000" lon="-1.804243000">
  <ele>125.000000</ele>
  <time>2015-02-24T11:22:22Z</time>
  <name>WPT 1265</name>
</trkpt>
<trkpt lat="53.843779000" lon="-1.804307000">
  <ele>126.000000</ele>
  <time>2015-02-24T11:22:29Z</time>
  <name>WPT 1266</name>
</trkpt>
<trkpt lat="53.843772000" lon="-1.804447000">
  <ele>127.000000</ele>
  <time>2015-02-24T11:22:35Z</time>
  <name>WPT 1267</name>
</trkpt>
<trkpt lat="53.843765000" lon="-1.804526000">
  <ele>127.000000</ele>
  <time>2015-02-24T11:22:40Z</time>
  <name>WPT 1268</name>
</trkpt>
<trkpt lat="53.843786000" lon="-1.804610000">
  <ele>128.000000</ele>
  <time>2015-02-24T11:22:44Z</time>
  <name>WPT 1269</name>
</trkpt>
<trkpt lat="53.843779000" lon="-1.804728000">
  <ele>129.000000</ele>
  <time>2015-02-24T11:22:50Z</time>
  <name>WPT 1270</name>
</trkpt>
<trkpt lat="53.843803000" lon="-1.804819000">
  <ele>130.000000</ele>
  <time>2015-02-24T11:23:01Z</time>
  <name>WPT 1271</name>
</trkpt>
<trkpt lat="53.843781000" lon="-1.804885000">
  <ele>130.000000</ele>
  <time>2015-02-24T11:23:07Z</time>
  <name>WPT 1272</name>
</trkpt>
<trkpt lat="53.843800000" lon="-1.804978000">
  <ele>130.000000</ele>
  <time>2015-02-24T11:23:12Z</time>
  <name>WPT 1273</name>
</trkpt>
<trkpt lat="53.843795000" lon="-1.805067000">
  <ele>130.000000</ele>
  <time>2015-02-24T11:23:18Z</time>
  <name>WPT 1274</name>
</trkpt>
<trkpt lat="53.843832000" lon="-1.805178000">
  <ele>130.000000</ele>
  <time>2015-02-24T11:23:22Z</time>
  <name>WPT 1275</name>
</trkpt>
<trkpt lat="53.843833000" lon="-1.805299000">
  <ele>129.000000</ele>
  <time>2015-02-24T11:23:31Z</time>
  <name>WPT 1276</name>
</trkpt>
<trkpt lat="53.843820000" lon="-1.805376000">
  <ele>129.000000</ele>
  <time>2015-02-24T11:23:35Z</time>
  <name>WPT 1277</name>
</trkpt>
<trkpt lat="53.843823000" lon="-1.805465000">
  <ele>129.000000</ele>
  <time>2015-02-24T11:23:39Z</time>
  <name>WPT 1278</name>
</trkpt>
<trkpt lat="53.843842000" lon="-1.805562000">
  <ele>128.000000</ele>
  <time>2015-02-24T11:23:43Z</time>
  <name>WPT 1279</name>
</trkpt>
<trkpt lat="53.843879000" lon="-1.805690000">
  <ele>128.000000</ele>
  <time>2015-02-24T11:23:49Z</time>
  <name>WPT 1280</name>
</trkpt>
<trkpt lat="53.843867000" lon="-1.805764000">
  <ele>129.000000</ele>
  <time>2015-02-24T11:23:56Z</time>
  <name>WPT 1281</name>
</trkpt>
<trkpt lat="53.843869000" lon="-1.805841000">
  <ele>129.000000</ele>
  <time>2015-02-24T11:23:58Z</time>
  <name>WPT 1282</name>
</trkpt>
<trkpt lat="53.843890000" lon="-1.805926000">
  <ele>129.000000</ele>
  <time>2015-02-24T11:24:01Z</time>
  <name>WPT 1283</name>
</trkpt>
<trkpt lat="53.843900000" lon="-1.806001000">
  <ele>130.000000</ele>
  <time>2015-02-24T11:24:10Z</time>
  <name>WPT 1284</name>
</trkpt>
<trkpt lat="53.843938000" lon="-1.806089000">
  <ele>129.000000</ele>
  <time>2015-02-24T11:24:16Z</time>
  <name>WPT 1285</name>
</trkpt>
<trkpt lat="53.843964000" lon="-1.806162000">
  <ele>129.000000</ele>
  <time>2015-02-24T11:24:18Z</time>
  <name>WPT 1286</name>
</trkpt>
<trkpt lat="53.843997000" lon="-1.806237000">
  <ele>129.000000</ele>
  <time>2015-02-24T11:24:25Z</time>
  <name>WPT 1287</name>
</trkpt>
<trkpt lat="53.843996000" lon="-1.806327000">
  <ele>130.000000</ele>
  <time>2015-02-24T11:24:29Z</time>
  <name>WPT 1288</name>
</trkpt>
<trkpt lat="53.843986000" lon="-1.806418000">
  <ele>130.000000</ele>
  <time>2015-02-24T11:24:33Z</time>
  <name>WPT 1289</name>
</trkpt>
<trkpt lat="53.844002000" lon="-1.806515000">
  <ele>130.000000</ele>
  <time>2015-02-24T11:24:37Z</time>
  <name>WPT 1290</name>
</trkpt>
<trkpt lat="53.844015000" lon="-1.806600000">
  <ele>130.000000</ele>
  <time>2015-02-24T11:24:42Z</time>
  <name>WPT 1291</name>
</trkpt>
<trkpt lat="53.844003000" lon="-1.806687000">
  <ele>131.000000</ele>
  <time>2015-02-24T11:25:01Z</time>
  <name>WPT 1292</name>
</trkpt>
<trkpt lat="53.844045000" lon="-1.806784000">
  <ele>131.000000</ele>
  <time>2015-02-24T11:25:04Z</time>
  <name>WPT 1293</name>
</trkpt>
<trkpt lat="53.844059000" lon="-1.806886000">
  <ele>131.000000</ele>
  <time>2015-02-24T11:25:08Z</time>
  <name>WPT 1294</name>
</trkpt>
<trkpt lat="53.844072000" lon="-1.806970000">
  <ele>131.000000</ele>
  <time>2015-02-24T11:25:18Z</time>
  <name>WPT 1295</name>
</trkpt>
<trkpt lat="53.844090000" lon="-1.807041000">
  <ele>132.000000</ele>
  <time>2015-02-24T11:25:20Z</time>
  <name>WPT 1296</name>
</trkpt>
<trkpt lat="53.844131000" lon="-1.807075000">
  <ele>133.000000</ele>
  <time>2015-02-24T11:25:27Z</time>
  <name>WPT 1297</name>
</trkpt>
<trkpt lat="53.844166000" lon="-1.807164000">
  <ele>133.000000</ele>
  <time>2015-02-24T11:25:30Z</time>
  <name>WPT 1298</name>
</trkpt>
<trkpt lat="53.844139000" lon="-1.807243000">
  <ele>134.000000</ele>
  <time>2015-02-24T11:25:37Z</time>
  <name>WPT 1299</name>
</trkpt>
<trkpt lat="53.844121000" lon="-1.807320000">
  <ele>135.000000</ele>
  <time>2015-02-24T11:25:45Z</time>
  <name>WPT 1300</name>
</trkpt>
<trkpt lat="53.844126000" lon="-1.807397000">
  <ele>136.000000</ele>
  <time>2015-02-24T11:25:50Z</time>
  <name>WPT 1301</name>
</trkpt>
<trkpt lat="53.844122000" lon="-1.807503000">
  <ele>135.000000</ele>
  <time>2015-02-24T11:25:54Z</time>
  <name>WPT 1302</name>
</trkpt>
<trkpt lat="53.844100000" lon="-1.807590000">
  <ele>135.000000</ele>
  <time>2015-02-24T11:25:57Z</time>
  <name>WPT 1303</name>
</trkpt>
<trkpt lat="53.844124000" lon="-1.807661000">
  <ele>135.000000</ele>
  <time>2015-02-24T11:26:05Z</time>
  <name>WPT 1304</name>
</trkpt>
<trkpt lat="53.844183000" lon="-1.807760000">
  <ele>135.000000</ele>
  <time>2015-02-24T11:26:07Z</time>
  <name>WPT 1305</name>
</trkpt>
<trkpt lat="53.844174000" lon="-1.807888000">
  <ele>135.000000</ele>
  <time>2015-02-24T11:26:13Z</time>
  <name>WPT 1306</name>
</trkpt>
<trkpt lat="53.844170000" lon="-1.807974000">
  <ele>136.000000</ele>
  <time>2015-02-24T11:26:17Z</time>
  <name>WPT 1307</name>
</trkpt>
<trkpt lat="53.844188000" lon="-1.808051000">
  <ele>137.000000</ele>
  <time>2015-02-24T11:26:22Z</time>
  <name>WPT 1308</name>
</trkpt>
<trkpt lat="53.844181000" lon="-1.808133000">
  <ele>139.000000</ele>
  <time>2015-02-24T11:26:31Z</time>
  <name>WPT 1309</name>
</trkpt>
<trkpt lat="53.844202000" lon="-1.808291000">
  <ele>139.000000</ele>
  <time>2015-02-24T11:26:35Z</time>
  <name>WPT 1310</name>
</trkpt>
<trkpt lat="53.844189000" lon="-1.808367000">
  <ele>138.000000</ele>
  <time>2015-02-24T11:26:46Z</time>
  <name>WPT 1311</name>
</trkpt>
<trkpt lat="53.844206000" lon="-1.808479000">
  <ele>139.000000</ele>
  <time>2015-02-24T11:26:50Z</time>
  <name>WPT 1312</name>
</trkpt>
<trkpt lat="53.844223000" lon="-1.808563000">
  <ele>140.000000</ele>
  <time>2015-02-24T11:26:52Z</time>
  <name>WPT 1313</name>
</trkpt>
<trkpt lat="53.844195000" lon="-1.808710000">
  <ele>141.000000</ele>
  <time>2015-02-24T11:26:55Z</time>
  <name>WPT 1314</name>
</trkpt>
<trkpt lat="53.844223000" lon="-1.808867000">
  <ele>142.000000</ele>
  <time>2015-02-24T11:27:00Z</time>
  <name>WPT 1315</name>
</trkpt>
<trkpt lat="53.844239000" lon="-1.808952000">
  <ele>142.000000</ele>
  <time>2015-02-24T11:27:02Z</time>
  <name>WPT 1316</name>
</trkpt>
<trkpt lat="53.844268000" lon="-1.809052000">
  <ele>142.000000</ele>
  <time>2015-02-24T11:27:04Z</time>
  <name>WPT 1317</name>
</trkpt>
<trkpt lat="53.844297000" lon="-1.809121000">
  <ele>142.000000</ele>
  <time>2015-02-24T11:27:11Z</time>
  <name>WPT 1318</name>
</trkpt>
<trkpt lat="53.844305000" lon="-1.809214000">
  <ele>142.000000</ele>
  <time>2015-02-24T11:27:17Z</time>
  <name>WPT 1319</name>
</trkpt>
<trkpt lat="53.844306000" lon="-1.809306000">
  <ele>143.000000</ele>
  <time>2015-02-24T11:27:26Z</time>
  <name>WPT 1320</name>
</trkpt>
<trkpt lat="53.844318000" lon="-1.809414000">
  <ele>143.000000</ele>
  <time>2015-02-24T11:27:29Z</time>
  <name>WPT 1321</name>
</trkpt>
<trkpt lat="53.844366000" lon="-1.809543000">
  <ele>143.000000</ele>
  <time>2015-02-24T11:27:33Z</time>
  <name>WPT 1322</name>
</trkpt>
<trkpt lat="53.844398000" lon="-1.809647000">
  <ele>143.000000</ele>
  <time>2015-02-24T11:27:35Z</time>
  <name>WPT 1323</name>
</trkpt>
<trkpt lat="53.844427000" lon="-1.809708000">
  <ele>143.000000</ele>
  <time>2015-02-24T11:27:40Z</time>
  <name>WPT 1324</name>
</trkpt>
<trkpt lat="53.844464000" lon="-1.809776000">
  <ele>143.000000</ele>
  <time>2015-02-24T11:27:44Z</time>
  <name>WPT 1325</name>
</trkpt>
<trkpt lat="53.844475000" lon="-1.809902000">
  <ele>146.000000</ele>
  <time>2015-02-24T11:28:32Z</time>
  <name>WPT 1330</name>
</trkpt>
<trkpt lat="53.844443000" lon="-1.810019000">
  <ele>142.000000</ele>
  <time>2015-02-24T11:29:51Z</time>
  <name>WPT 1333</name>
</trkpt>
<trkpt lat="53.844458000" lon="-1.810102000">
  <ele>143.000000</ele>
  <time>2015-02-24T11:29:57Z</time>
  <name>WPT 1334</name>
</trkpt>
<trkpt lat="53.844487000" lon="-1.810176000">
  <ele>144.000000</ele>
  <time>2015-02-24T11:30:00Z</time>
  <name>WPT 1335</name>
</trkpt>
<trkpt lat="53.844539000" lon="-1.810202000">
  <ele>145.000000</ele>
  <time>2015-02-24T11:30:10Z</time>
  <name>WPT 1336</name>
</trkpt>
<trkpt lat="53.844567000" lon="-1.810332000">
  <ele>145.000000</ele>
  <time>2015-02-24T11:30:18Z</time>
  <name>WPT 1337</name>
</trkpt>
<trkpt lat="53.844589000" lon="-1.810422000">
  <ele>146.000000</ele>
  <time>2015-02-24T11:30:23Z</time>
  <name>WPT 1338</name>
</trkpt>
<trkpt lat="53.844610000" lon="-1.810505000">
  <ele>147.000000</ele>
  <time>2015-02-24T11:30:25Z</time>
  <name>WPT 1339</name>
</trkpt>
<trkpt lat="53.844598000" lon="-1.810623000">
  <ele>148.000000</ele>
  <time>2015-02-24T11:30:39Z</time>
  <name>WPT 1340</name>
</trkpt>
<trkpt lat="53.844623000" lon="-1.810725000">
  <ele>149.000000</ele>
  <time>2015-02-24T11:30:47Z</time>
  <name>WPT 1341</name>
</trkpt>
<trkpt lat="53.844706000" lon="-1.810843000">
  <ele>150.000000</ele>
  <time>2015-02-24T11:30:49Z</time>
  <name>WPT 1342</name>
</trkpt>
<trkpt lat="53.844738000" lon="-1.810922000">
  <ele>150.000000</ele>
  <time>2015-02-24T11:30:51Z</time>
  <name>WPT 1343</name>
</trkpt>
<trkpt lat="53.844751000" lon="-1.811121000">
  <ele>150.000000</ele>
  <time>2015-02-24T11:30:53Z</time>
  <name>WPT 1344</name>
</trkpt>
<trkpt lat="53.844783000" lon="-1.811177000">
  <ele>150.000000</ele>
  <time>2015-02-24T11:30:56Z</time>
  <name>WPT 1345</name>
</trkpt>
<trkpt lat="53.844808000" lon="-1.811248000">
  <ele>152.000000</ele>
  <time>2015-02-24T11:30:59Z</time>
  <name>WPT 1346</name>
</trkpt>
<trkpt lat="53.844811000" lon="-1.811331000">
  <ele>153.000000</ele>
  <time>2015-02-24T11:31:06Z</time>
  <name>WPT 1347</name>
</trkpt>
<trkpt lat="53.844854000" lon="-1.811411000">
  <ele>153.000000</ele>
  <time>2015-02-24T11:31:13Z</time>
  <name>WPT 1348</name>
</trkpt>
<trkpt lat="53.844915000" lon="-1.811466000">
  <ele>153.000000</ele>
  <time>2015-02-24T11:31:15Z</time>
  <name>WPT 1349</name>
</trkpt>
<trkpt lat="53.844956000" lon="-1.811513000">
  <ele>154.000000</ele>
  <time>2015-02-24T11:31:17Z</time>
  <name>WPT 1350</name>
</trkpt>
<trkpt lat="53.844978000" lon="-1.811598000">
  <ele>154.000000</ele>
  <time>2015-02-24T11:31:21Z</time>
  <name>WPT 1351</name>
</trkpt>
<trkpt lat="53.845029000" lon="-1.811655000">
  <ele>154.000000</ele>
  <time>2015-02-24T11:31:24Z</time>
  <name>WPT 1352</name>
</trkpt>
<trkpt lat="53.845066000" lon="-1.811715000">
  <ele>154.000000</ele>
  <time>2015-02-24T11:31:33Z</time>
  <name>WPT 1353</name>
</trkpt>
<trkpt lat="53.845127000" lon="-1.811752000">
  <ele>154.000000</ele>
  <time>2015-02-24T11:31:36Z</time>
  <name>WPT 1354</name>
</trkpt>
<trkpt lat="53.845172000" lon="-1.811744000">
  <ele>154.000000</ele>
  <time>2015-02-24T11:31:38Z</time>
  <name>WPT 1355</name>
</trkpt>
<trkpt lat="53.845221000" lon="-1.811765000">
  <ele>154.000000</ele>
  <time>2015-02-24T11:31:44Z</time>
  <name>WPT 1356</name>
</trkpt>
<trkpt lat="53.845289000" lon="-1.811834000">
  <ele>154.000000</ele>
  <time>2015-02-24T11:31:48Z</time>
  <name>WPT 1357</name>
</trkpt>
<trkpt lat="53.845332000" lon="-1.811895000">
  <ele>154.000000</ele>
  <time>2015-02-24T11:31:51Z</time>
  <name>WPT 1358</name>
</trkpt>
<trkpt lat="53.845366000" lon="-1.811949000">
  <ele>154.000000</ele>
  <time>2015-02-24T11:31:56Z</time>
  <name>WPT 1359</name>
</trkpt>
<trkpt lat="53.845423000" lon="-1.811912000">
  <ele>155.000000</ele>
  <time>2015-02-24T11:32:00Z</time>
  <name>WPT 1360</name>
</trkpt>
<trkpt lat="53.845485000" lon="-1.811971000">
  <ele>155.000000</ele>
  <time>2015-02-24T11:32:02Z</time>
  <name>WPT 1361</name>
</trkpt>
<trkpt lat="53.845538000" lon="-1.811986000">
  <ele>155.000000</ele>
  <time>2015-02-24T11:32:04Z</time>
  <name>WPT 1362</name>
</trkpt>
<trkpt lat="53.845586000" lon="-1.811998000">
  <ele>157.000000</ele>
  <time>2015-02-24T11:32:12Z</time>
  <name>WPT 1363</name>
</trkpt>
<trkpt lat="53.845628000" lon="-1.812033000">
  <ele>157.000000</ele>
  <time>2015-02-24T11:32:14Z</time>
  <name>WPT 1364</name>
</trkpt>
<trkpt lat="53.845674000" lon="-1.812045000">
  <ele>157.000000</ele>
  <time>2015-02-24T11:32:18Z</time>
  <name>WPT 1365</name>
</trkpt>
<trkpt lat="53.845741000" lon="-1.812049000">
  <ele>158.000000</ele>
  <time>2015-02-24T11:32:24Z</time>
  <name>WPT 1366</name>
</trkpt>
<trkpt lat="53.845814000" lon="-1.812063000">
  <ele>158.000000</ele>
  <time>2015-02-24T11:32:28Z</time>
  <name>WPT 1367</name>
</trkpt>
<trkpt lat="53.845863000" lon="-1.812079000">
  <ele>158.000000</ele>
  <time>2015-02-24T11:32:33Z</time>
  <name>WPT 1368</name>
</trkpt>
<trkpt lat="53.845908000" lon="-1.812098000">
  <ele>159.000000</ele>
  <time>2015-02-24T11:32:35Z</time>
  <name>WPT 1369</name>
</trkpt>
<trkpt lat="53.845953000" lon="-1.812127000">
  <ele>159.000000</ele>
  <time>2015-02-24T11:32:39Z</time>
  <name>WPT 1370</name>
</trkpt>
<trkpt lat="53.845996000" lon="-1.812155000">
  <ele>161.000000</ele>
  <time>2015-02-24T11:32:46Z</time>
  <name>WPT 1371</name>
</trkpt>
<trkpt lat="53.846045000" lon="-1.812195000">
  <ele>161.000000</ele>
  <time>2015-02-24T11:32:50Z</time>
  <name>WPT 1372</name>
</trkpt>
<trkpt lat="53.846088000" lon="-1.812247000">
  <ele>162.000000</ele>
  <time>2015-02-24T11:32:54Z</time>
  <name>WPT 1373</name>
</trkpt>
<trkpt lat="53.846124000" lon="-1.812296000">
  <ele>162.000000</ele>
  <time>2015-02-24T11:32:56Z</time>
  <name>WPT 1374</name>
</trkpt>
<trkpt lat="53.846165000" lon="-1.812330000">
  <ele>162.000000</ele>
  <time>2015-02-24T11:32:59Z</time>
  <name>WPT 1375</name>
</trkpt>
<trkpt lat="53.846179000" lon="-1.812405000">
  <ele>161.000000</ele>
  <time>2015-02-24T11:33:12Z</time>
  <name>WPT 1376</name>
</trkpt>
<trkpt lat="53.846200000" lon="-1.812546000">
  <ele>161.000000</ele>
  <time>2015-02-24T11:33:18Z</time>
  <name>WPT 1377</name>
</trkpt>
<trkpt lat="53.846221000" lon="-1.812675000">
  <ele>164.000000</ele>
  <time>2015-02-24T11:33:23Z</time>
  <name>WPT 1378</name>
</trkpt>
<trkpt lat="53.846188000" lon="-1.812776000">
  <ele>165.000000</ele>
  <time>2015-02-24T11:33:27Z</time>
  <name>WPT 1379</name>
</trkpt>
<trkpt lat="53.846187000" lon="-1.812855000">
  <ele>165.000000</ele>
  <time>2015-02-24T11:33:31Z</time>
  <name>WPT 1380</name>
</trkpt>
<trkpt lat="53.846228000" lon="-1.812914000">
  <ele>164.000000</ele>
  <time>2015-02-24T11:33:43Z</time>
  <name>WPT 1381</name>
</trkpt>
<trkpt lat="53.846230000" lon="-1.813008000">
  <ele>164.000000</ele>
  <time>2015-02-24T11:33:46Z</time>
  <name>WPT 1382</name>
</trkpt>
<trkpt lat="53.846188000" lon="-1.813057000">
  <ele>164.000000</ele>
  <time>2015-02-24T11:33:54Z</time>
  <name>WPT 1383</name>
</trkpt>
<trkpt lat="53.846164000" lon="-1.813135000">
  <ele>164.000000</ele>
  <time>2015-02-24T11:34:01Z</time>
  <name>WPT 1384</name>
</trkpt>
<trkpt lat="53.846153000" lon="-1.813217000">
  <ele>164.000000</ele>
  <time>2015-02-24T11:34:05Z</time>
  <name>WPT 1385</name>
</trkpt>
<trkpt lat="53.846153000" lon="-1.813314000">
  <ele>164.000000</ele>
  <time>2015-02-24T11:34:08Z</time>
  <name>WPT 1386</name>
</trkpt>
<trkpt lat="53.846133000" lon="-1.813383000">
  <ele>164.000000</ele>
  <time>2015-02-24T11:34:12Z</time>
  <name>WPT 1387</name>
</trkpt>
<trkpt lat="53.846087000" lon="-1.813395000">
  <ele>164.000000</ele>
  <time>2015-02-24T11:34:17Z</time>
  <name>WPT 1388</name>
</trkpt>
<trkpt lat="53.846117000" lon="-1.813456000">
  <ele>164.000000</ele>
  <time>2015-02-24T11:34:22Z</time>
  <name>WPT 1389</name>
</trkpt>
<trkpt lat="53.846091000" lon="-1.813546000">
  <ele>164.000000</ele>
  <time>2015-02-24T11:34:28Z</time>
  <name>WPT 1390</name>
</trkpt>
<trkpt lat="53.846053000" lon="-1.813640000">
  <ele>165.000000</ele>
  <time>2015-02-24T11:34:34Z</time>
  <name>WPT 1391</name>
</trkpt>
<trkpt lat="53.846043000" lon="-1.813736000">
  <ele>165.000000</ele>
  <time>2015-02-24T11:34:37Z</time>
  <name>WPT 1392</name>
</trkpt>
<trkpt lat="53.846076000" lon="-1.813837000">
  <ele>165.000000</ele>
  <time>2015-02-24T11:34:44Z</time>
  <name>WPT 1393</name>
</trkpt>
<trkpt lat="53.846103000" lon="-1.813908000">
  <ele>164.000000</ele>
  <time>2015-02-24T11:34:48Z</time>
  <name>WPT 1394</name>
</trkpt>
<trkpt lat="53.846093000" lon="-1.813994000">
  <ele>164.000000</ele>
  <time>2015-02-24T11:34:53Z</time>
  <name>WPT 1395</name>
</trkpt>
<trkpt lat="53.846074000" lon="-1.814100000">
  <ele>164.000000</ele>
  <time>2015-02-24T11:34:55Z</time>
  <name>WPT 1396</name>
</trkpt>
<trkpt lat="53.846072000" lon="-1.814190000">
  <ele>164.000000</ele>
  <time>2015-02-24T11:34:59Z</time>
  <name>WPT 1397</name>
</trkpt>
<trkpt lat="53.846084000" lon="-1.814292000">
  <ele>164.000000</ele>
  <time>2015-02-24T11:35:01Z</time>
  <name>WPT 1398</name>
</trkpt>
<trkpt lat="53.846098000" lon="-1.814374000">
  <ele>166.000000</ele>
  <time>2015-02-24T11:35:12Z</time>
  <name>WPT 1399</name>
</trkpt>
<trkpt lat="53.846121000" lon="-1.814446000">
  <ele>168.000000</ele>
  <time>2015-02-24T11:35:17Z</time>
  <name>WPT 1400</name>
</trkpt>
<trkpt lat="53.846166000" lon="-1.814523000">
  <ele>169.000000</ele>
  <time>2015-02-24T11:35:21Z</time>
  <name>WPT 1401</name>
</trkpt>
<trkpt lat="53.846137000" lon="-1.814612000">
  <ele>170.000000</ele>
  <time>2015-02-24T11:35:26Z</time>
  <name>WPT 1402</name>
</trkpt>
<trkpt lat="53.846168000" lon="-1.814692000">
  <ele>171.000000</ele>
  <time>2015-02-24T11:35:28Z</time>
  <name>WPT 1403</name>
</trkpt>
<trkpt lat="53.846148000" lon="-1.814770000">
  <ele>172.000000</ele>
  <time>2015-02-24T11:35:39Z</time>
  <name>WPT 1404</name>
</trkpt>
<trkpt lat="53.846121000" lon="-1.814852000">
  <ele>173.000000</ele>
  <time>2015-02-24T11:35:49Z</time>
  <name>WPT 1405</name>
</trkpt>
<trkpt lat="53.846114000" lon="-1.814945000">
  <ele>174.000000</ele>
  <time>2015-02-24T11:35:51Z</time>
  <name>WPT 1406</name>
</trkpt>
<trkpt lat="53.846105000" lon="-1.815022000">
  <ele>176.000000</ele>
  <time>2015-02-24T11:36:04Z</time>
  <name>WPT 1407</name>
</trkpt>
<trkpt lat="53.846063000" lon="-1.815079000">
  <ele>178.000000</ele>
  <time>2015-02-24T11:36:15Z</time>
  <name>WPT 1408</name>
</trkpt>
<trkpt lat="53.846020000" lon="-1.815047000">
  <ele>178.000000</ele>
  <time>2015-02-24T11:36:17Z</time>
  <name>WPT 1409</name>
</trkpt>
<trkpt lat="53.845968000" lon="-1.814980000">
  <ele>178.000000</ele>
  <time>2015-02-24T11:36:20Z</time>
  <name>WPT 1410</name>
</trkpt>
<trkpt lat="53.845915000" lon="-1.814984000">
  <ele>180.000000</ele>
  <time>2015-02-24T11:36:27Z</time>
  <name>WPT 1411</name>
</trkpt>
<trkpt lat="53.845871000" lon="-1.814929000">
  <ele>181.000000</ele>
  <time>2015-02-24T11:36:35Z</time>
  <name>WPT 1412</name>
</trkpt>
<trkpt lat="53.845815000" lon="-1.814889000">
  <ele>180.000000</ele>
  <time>2015-02-24T11:36:39Z</time>
  <name>WPT 1413</name>
</trkpt>
<trkpt lat="53.845779000" lon="-1.814840000">
  <ele>180.000000</ele>
  <time>2015-02-24T11:36:41Z</time>
  <name>WPT 1414</name>
</trkpt>
<trkpt lat="53.845747000" lon="-1.814785000">
  <ele>179.000000</ele>
  <time>2015-02-24T11:36:43Z</time>
  <name>WPT 1415</name>
</trkpt>
<trkpt lat="53.845682000" lon="-1.814713000">
  <ele>179.000000</ele>
  <time>2015-02-24T11:36:46Z</time>
  <name>WPT 1416</name>
</trkpt>
<trkpt lat="53.845644000" lon="-1.814658000">
  <ele>175.000000</ele>
  <time>2015-02-24T11:36:59Z</time>
  <name>WPT 1417</name>
</trkpt>
<trkpt lat="53.845579000" lon="-1.814648000">
  <ele>175.000000</ele>
  <time>2015-02-24T11:37:13Z</time>
  <name>WPT 1418</name>
</trkpt>
<trkpt lat="53.845528000" lon="-1.814584000">
  <ele>175.000000</ele>
  <time>2015-02-24T11:37:15Z</time>
  <name>WPT 1419</name>
</trkpt>
<trkpt lat="53.845475000" lon="-1.814500000">
  <ele>175.000000</ele>
  <time>2015-02-24T11:37:18Z</time>
  <name>WPT 1420</name>
</trkpt>
<trkpt lat="53.845413000" lon="-1.814455000">
  <ele>175.000000</ele>
  <time>2015-02-24T11:37:20Z</time>
  <name>WPT 1421</name>
</trkpt>
<trkpt lat="53.845368000" lon="-1.814421000">
  <ele>175.000000</ele>
  <time>2015-02-24T11:37:23Z</time>
  <name>WPT 1422</name>
</trkpt>
<trkpt lat="53.845312000" lon="-1.814404000">
  <ele>175.000000</ele>
  <time>2015-02-24T11:37:25Z</time>
  <name>WPT 1423</name>
</trkpt>
<trkpt lat="53.845273000" lon="-1.814355000">
  <ele>171.000000</ele>
  <time>2015-02-24T11:37:35Z</time>
  <name>WPT 1424</name>
</trkpt>
<trkpt lat="53.845242000" lon="-1.814449000">
  <ele>171.000000</ele>
  <time>2015-02-24T11:37:38Z</time>
  <name>WPT 1425</name>
</trkpt>
<trkpt lat="53.845183000" lon="-1.814515000">
  <ele>171.000000</ele>
  <time>2015-02-24T11:37:40Z</time>
  <name>WPT 1426</name>
</trkpt>
<trkpt lat="53.845155000" lon="-1.814585000">
  <ele>170.000000</ele>
  <time>2015-02-24T11:37:51Z</time>
  <name>WPT 1427</name>
</trkpt>
<trkpt lat="53.845160000" lon="-1.814697000">
  <ele>171.000000</ele>
  <time>2015-02-24T11:37:59Z</time>
  <name>WPT 1428</name>
</trkpt>
<trkpt lat="53.845104000" lon="-1.814770000">
  <ele>170.000000</ele>
  <time>2015-02-24T11:38:07Z</time>
  <name>WPT 1429</name>
</trkpt>
<trkpt lat="53.845072000" lon="-1.814856000">
  <ele>171.000000</ele>
  <time>2015-02-24T11:38:10Z</time>
  <name>WPT 1430</name>
</trkpt>
<trkpt lat="53.845068000" lon="-1.814945000">
  <ele>171.000000</ele>
  <time>2015-02-24T11:38:15Z</time>
  <name>WPT 1431</name>
</trkpt>
<trkpt lat="53.845025000" lon="-1.814992000">
  <ele>171.000000</ele>
  <time>2015-02-24T11:38:18Z</time>
  <name>WPT 1432</name>
</trkpt>
<trkpt lat="53.845010000" lon="-1.815070000">
  <ele>171.000000</ele>
  <time>2015-02-24T11:38:30Z</time>
  <name>WPT 1433</name>
</trkpt>
<trkpt lat="53.845009000" lon="-1.815168000">
  <ele>171.000000</ele>
  <time>2015-02-24T11:38:33Z</time>
  <name>WPT 1434</name>
</trkpt>
<trkpt lat="53.844996000" lon="-1.815245000">
  <ele>172.000000</ele>
  <time>2015-02-24T11:38:39Z</time>
  <name>WPT 1435</name>
</trkpt>
<trkpt lat="53.844960000" lon="-1.815304000">
  <ele>172.000000</ele>
  <time>2015-02-24T11:38:44Z</time>
  <name>WPT 1436</name>
</trkpt>
<trkpt lat="53.844923000" lon="-1.815392000">
  <ele>172.000000</ele>
  <time>2015-02-24T11:38:46Z</time>
  <name>WPT 1437</name>
</trkpt>
<trkpt lat="53.844889000" lon="-1.815458000">
  <ele>172.000000</ele>
  <time>2015-02-24T11:38:54Z</time>
  <name>WPT 1438</name>
</trkpt>
<trkpt lat="53.844898000" lon="-1.815538000">
  <ele>172.000000</ele>
  <time>2015-02-24T11:39:00Z</time>
  <name>WPT 1439</name>
</trkpt>
<trkpt lat="53.844927000" lon="-1.815629000">
  <ele>172.000000</ele>
  <time>2015-02-24T11:39:08Z</time>
  <name>WPT 1440</name>
</trkpt>
<trkpt lat="53.844971000" lon="-1.815755000">
  <ele>173.000000</ele>
  <time>2015-02-24T11:39:12Z</time>
  <name>WPT 1441</name>
</trkpt>
<trkpt lat="53.844983000" lon="-1.815853000">
  <ele>173.000000</ele>
  <time>2015-02-24T11:39:16Z</time>
  <name>WPT 1442</name>
</trkpt>
<trkpt lat="53.844993000" lon="-1.815965000">
  <ele>173.000000</ele>
  <time>2015-02-24T11:39:19Z</time>
  <name>WPT 1443</name>
</trkpt>
<trkpt lat="53.844957000" lon="-1.816013000">
  <ele>172.000000</ele>
  <time>2015-02-24T11:39:23Z</time>
  <name>WPT 1444</name>
</trkpt>
<trkpt lat="53.844949000" lon="-1.816144000">
  <ele>172.000000</ele>
  <time>2015-02-24T11:39:35Z</time>
  <name>WPT 1445</name>
</trkpt>
<trkpt lat="53.844980000" lon="-1.816276000">
  <ele>172.000000</ele>
  <time>2015-02-24T11:39:38Z</time>
  <name>WPT 1446</name>
</trkpt>
<trkpt lat="53.845007000" lon="-1.816416000">
  <ele>172.000000</ele>
  <time>2015-02-24T11:39:42Z</time>
  <name>WPT 1447</name>
</trkpt>
<trkpt lat="53.845023000" lon="-1.816518000">
  <ele>172.000000</ele>
  <time>2015-02-24T11:39:46Z</time>
  <name>WPT 1448</name>
</trkpt>
<trkpt lat="53.844993000" lon="-1.816582000">
  <ele>172.000000</ele>
  <time>2015-02-24T11:39:54Z</time>
  <name>WPT 1449</name>
</trkpt>
<trkpt lat="53.845033000" lon="-1.816633000">
  <ele>173.000000</ele>
  <time>2015-02-24T11:40:01Z</time>
  <name>WPT 1450</name>
</trkpt>
<trkpt lat="53.845083000" lon="-1.816677000">
  <ele>173.000000</ele>
  <time>2015-02-24T11:40:04Z</time>
  <name>WPT 1451</name>
</trkpt>
<trkpt lat="53.845130000" lon="-1.816691000">
  <ele>173.000000</ele>
  <time>2015-02-24T11:40:08Z</time>
  <name>WPT 1452</name>
</trkpt>
<trkpt lat="53.845120000" lon="-1.816804000">
  <ele>173.000000</ele>
  <time>2015-02-24T11:40:10Z</time>
  <name>WPT 1453</name>
</trkpt>
<trkpt lat="53.845179000" lon="-1.816782000">
  <ele>173.000000</ele>
  <time>2015-02-24T11:40:14Z</time>
  <name>WPT 1454</name>
</trkpt>
<trkpt lat="53.845247000" lon="-1.816842000">
  <ele>173.000000</ele>
  <time>2015-02-24T11:40:18Z</time>
  <name>WPT 1455</name>
</trkpt>
<trkpt lat="53.845292000" lon="-1.816827000">
  <ele>174.000000</ele>
  <time>2015-02-24T11:40:25Z</time>
  <name>WPT 1456</name>
</trkpt>
<trkpt lat="53.845349000" lon="-1.816808000">
  <ele>174.000000</ele>
  <time>2015-02-24T11:40:36Z</time>
  <name>WPT 1457</name>
</trkpt>
<trkpt lat="53.845398000" lon="-1.816779000">
  <ele>174.000000</ele>
  <time>2015-02-24T11:40:45Z</time>
  <name>WPT 1458</name>
</trkpt>
<trkpt lat="53.845451000" lon="-1.816747000">
  <ele>174.000000</ele>
  <time>2015-02-24T11:40:49Z</time>
  <name>WPT 1459</name>
</trkpt>
<trkpt lat="53.845512000" lon="-1.816736000">
  <ele>174.000000</ele>
  <time>2015-02-24T11:40:52Z</time>
  <name>WPT 1460</name>
</trkpt>
<trkpt lat="53.845566000" lon="-1.816787000">
  <ele>174.000000</ele>
  <time>2015-02-24T11:40:56Z</time>
  <name>WPT 1461</name>
</trkpt>
<trkpt lat="53.845614000" lon="-1.816820000">
  <ele>174.000000</ele>
  <time>2015-02-24T11:41:01Z</time>
  <name>WPT 1462</name>
</trkpt>
<trkpt lat="53.845663000" lon="-1.816856000">
  <ele>175.000000</ele>
  <time>2015-02-24T11:41:07Z</time>
  <name>WPT 1463</name>
</trkpt>
<trkpt lat="53.845708000" lon="-1.816915000">
  <ele>176.000000</ele>
  <time>2015-02-24T11:41:26Z</time>
  <name>WPT 1464</name>
</trkpt>
<trkpt lat="53.845759000" lon="-1.816869000">
  <ele>178.000000</ele>
  <time>2015-02-24T11:41:36Z</time>
  <name>WPT 1465</name>
</trkpt>
<trkpt lat="53.845816000" lon="-1.816874000">
  <ele>178.000000</ele>
  <time>2015-02-24T11:41:41Z</time>
  <name>WPT 1466</name>
</trkpt>
<trkpt lat="53.845860000" lon="-1.816836000">
  <ele>179.000000</ele>
  <time>2015-02-24T11:41:47Z</time>
  <name>WPT 1467</name>
</trkpt>
<trkpt lat="53.845902000" lon="-1.816808000">
  <ele>181.000000</ele>
  <time>2015-02-24T11:41:56Z</time>
  <name>WPT 1468</name>
</trkpt>
<trkpt lat="53.845923000" lon="-1.816731000">
  <ele>183.000000</ele>
  <time>2015-02-24T11:42:09Z</time>
  <name>WPT 1469</name>
</trkpt>
<trkpt lat="53.845950000" lon="-1.816640000">
  <ele>183.000000</ele>
  <time>2015-02-24T11:42:13Z</time>
  <name>WPT 1470</name>
</trkpt>
<trkpt lat="53.846013000" lon="-1.816593000">
  <ele>184.000000</ele>
  <time>2015-02-24T11:42:20Z</time>
  <name>WPT 1471</name>
</trkpt>
<trkpt lat="53.846063000" lon="-1.816556000">
  <ele>185.000000</ele>
  <time>2015-02-24T11:42:31Z</time>
  <name>WPT 1472</name>
</trkpt>
<trkpt lat="53.846114000" lon="-1.816584000">
  <ele>185.000000</ele>
  <time>2015-02-24T11:42:33Z</time>
  <name>WPT 1473</name>
</trkpt>
<trkpt lat="53.846184000" lon="-1.816580000">
  <ele>185.000000</ele>
  <time>2015-02-24T11:42:35Z</time>
  <name>WPT 1474</name>
</trkpt>
<trkpt lat="53.846233000" lon="-1.816593000">
  <ele>186.000000</ele>
  <time>2015-02-24T11:42:39Z</time>
  <name>WPT 1475</name>
</trkpt>
<trkpt lat="53.846282000" lon="-1.816605000">
  <ele>186.000000</ele>
  <time>2015-02-24T11:42:46Z</time>
  <name>WPT 1476</name>
</trkpt>
<trkpt lat="53.846333000" lon="-1.816592000">
  <ele>186.000000</ele>
  <time>2015-02-24T11:42:48Z</time>
  <name>WPT 1477</name>
</trkpt>
<trkpt lat="53.846384000" lon="-1.816576000">
  <ele>185.000000</ele>
  <time>2015-02-24T11:42:53Z</time>
  <name>WPT 1478</name>
</trkpt>
<trkpt lat="53.846428000" lon="-1.816626000">
  <ele>185.000000</ele>
  <time>2015-02-24T11:42:58Z</time>
  <name>WPT 1479</name>
</trkpt>
<trkpt lat="53.846445000" lon="-1.816723000">
  <ele>184.000000</ele>
  <time>2015-02-24T11:43:05Z</time>
  <name>WPT 1480</name>
</trkpt>
<trkpt lat="53.846479000" lon="-1.816798000">
  <ele>184.000000</ele>
  <time>2015-02-24T11:43:08Z</time>
  <name>WPT 1481</name>
</trkpt>
<trkpt lat="53.846525000" lon="-1.816793000">
  <ele>184.000000</ele>
  <time>2015-02-24T11:43:17Z</time>
  <name>WPT 1482</name>
</trkpt>
<trkpt lat="53.846529000" lon="-1.816878000">
  <ele>186.000000</ele>
  <time>2015-02-24T11:43:33Z</time>
  <name>WPT 1483</name>
</trkpt>
<trkpt lat="53.846585000" lon="-1.816941000">
  <ele>186.000000</ele>
  <time>2015-02-24T11:43:38Z</time>
  <name>WPT 1484</name>
</trkpt>
<trkpt lat="53.846612000" lon="-1.817003000">
  <ele>186.000000</ele>
  <time>2015-02-24T11:43:40Z</time>
  <name>WPT 1485</name>
</trkpt>
<trkpt lat="53.846595000" lon="-1.817092000">
  <ele>186.000000</ele>
  <time>2015-02-24T11:43:53Z</time>
  <name>WPT 1486</name>
</trkpt>
<trkpt lat="53.846598000" lon="-1.817175000">
  <ele>186.000000</ele>
  <time>2015-02-24T11:43:58Z</time>
  <name>WPT 1487</name>
</trkpt>
<trkpt lat="53.846658000" lon="-1.817228000">
  <ele>186.000000</ele>
  <time>2015-02-24T11:44:03Z</time>
  <name>WPT 1488</name>
</trkpt>
<trkpt lat="53.846697000" lon="-1.817275000">
  <ele>186.000000</ele>
  <time>2015-02-24T11:44:07Z</time>
  <name>WPT 1489</name>
</trkpt>
<trkpt lat="53.846742000" lon="-1.817311000">
  <ele>186.000000</ele>
  <time>2015-02-24T11:44:11Z</time>
  <name>WPT 1490</name>
</trkpt>
<trkpt lat="53.846791000" lon="-1.817363000">
  <ele>186.000000</ele>
  <time>2015-02-24T11:44:17Z</time>
  <name>WPT 1491</name>
</trkpt>
<trkpt lat="53.846828000" lon="-1.817412000">
  <ele>186.000000</ele>
  <time>2015-02-24T11:44:21Z</time>
  <name>WPT 1492</name>
</trkpt>
<trkpt lat="53.846859000" lon="-1.817468000">
  <ele>186.000000</ele>
  <time>2015-02-24T11:44:25Z</time>
  <name>WPT 1493</name>
</trkpt>
<trkpt lat="53.846914000" lon="-1.817507000">
  <ele>186.000000</ele>
  <time>2015-02-24T11:44:29Z</time>
  <name>WPT 1494</name>
</trkpt>
<trkpt lat="53.846955000" lon="-1.817542000">
  <ele>186.000000</ele>
  <time>2015-02-24T11:44:33Z</time>
  <name>WPT 1495</name>
</trkpt>
<trkpt lat="53.847002000" lon="-1.817587000">
  <ele>186.000000</ele>
  <time>2015-02-24T11:44:36Z</time>
  <name>WPT 1496</name>
</trkpt>
<trkpt lat="53.847047000" lon="-1.817648000">
  <ele>186.000000</ele>
  <time>2015-02-24T11:44:39Z</time>
  <name>WPT 1497</name>
</trkpt>
<trkpt lat="53.847084000" lon="-1.817692000">
  <ele>186.000000</ele>
  <time>2015-02-24T11:44:42Z</time>
  <name>WPT 1498</name>
</trkpt>
<trkpt lat="53.847102000" lon="-1.817774000">
  <ele>186.000000</ele>
  <time>2015-02-24T11:44:48Z</time>
  <name>WPT 1499</name>
</trkpt>
<trkpt lat="53.847127000" lon="-1.817850000">
  <ele>187.000000</ele>
  <time>2015-02-24T11:44:53Z</time>
  <name>WPT 1500</name>
</trkpt>
<trkpt lat="53.847160000" lon="-1.817919000">
  <ele>187.000000</ele>
  <time>2015-02-24T11:44:58Z</time>
  <name>WPT 1501</name>
</trkpt>
<trkpt lat="53.847199000" lon="-1.817991000">
  <ele>188.000000</ele>
  <time>2015-02-24T11:45:02Z</time>
  <name>WPT 1502</name>
</trkpt>
<trkpt lat="53.847223000" lon="-1.818058000">
  <ele>188.000000</ele>
  <time>2015-02-24T11:45:07Z</time>
  <name>WPT 1503</name>
</trkpt>
<trkpt lat="53.847317000" lon="-1.818141000">
  <ele>190.000000</ele>
  <time>2015-02-24T11:45:22Z</time>
  <name>WPT 1505</name>
</trkpt>
<trkpt lat="53.847379000" lon="-1.818404000">
  <ele>193.000000</ele>
  <time>2015-02-24T11:46:56Z</time>
  <name>WPT 1526</name>
</trkpt>
<trkpt lat="53.847421000" lon="-1.818445000">
  <ele>194.000000</ele>
  <time>2015-02-24T11:47:01Z</time>
  <name>WPT 1527</name>
</trkpt>
<trkpt lat="53.847461000" lon="-1.818478000">
  <ele>195.000000</ele>
  <time>2015-02-24T11:47:20Z</time>
  <name>WPT 1528</name>
</trkpt>
<trkpt lat="53.847457000" lon="-1.818557000">
  <ele>196.000000</ele>
  <time>2015-02-24T11:47:32Z</time>
  <name>WPT 1529</name>
</trkpt>
<trkpt lat="53.847422000" lon="-1.818641000">
  <ele>196.000000</ele>
  <time>2015-02-24T11:47:40Z</time>
  <name>WPT 1530</name>
</trkpt>
<trkpt lat="53.847390000" lon="-1.818702000">
  <ele>197.000000</ele>
  <time>2015-02-24T11:47:44Z</time>
  <name>WPT 1531</name>
</trkpt>
<trkpt lat="53.847345000" lon="-1.818759000">
  <ele>197.000000</ele>
  <time>2015-02-24T11:47:48Z</time>
  <name>WPT 1532</name>
</trkpt>
<trkpt lat="53.847299000" lon="-1.818820000">
  <ele>197.000000</ele>
  <time>2015-02-24T11:47:52Z</time>
  <name>WPT 1533</name>
</trkpt>
<trkpt lat="53.847268000" lon="-1.818878000">
  <ele>197.000000</ele>
  <time>2015-02-24T11:47:55Z</time>
  <name>WPT 1534</name>
</trkpt>
<trkpt lat="53.847226000" lon="-1.818941000">
  <ele>197.000000</ele>
  <time>2015-02-24T11:47:59Z</time>
  <name>WPT 1535</name>
</trkpt>
<trkpt lat="53.847193000" lon="-1.819011000">
  <ele>198.000000</ele>
  <time>2015-02-24T11:48:06Z</time>
  <name>WPT 1536</name>
</trkpt>
<trkpt lat="53.847173000" lon="-1.819096000">
  <ele>199.000000</ele>
  <time>2015-02-24T11:48:10Z</time>
  <name>WPT 1537</name>
</trkpt>
<trkpt lat="53.847148000" lon="-1.819169000">
  <ele>199.000000</ele>
  <time>2015-02-24T11:48:13Z</time>
  <name>WPT 1538</name>
</trkpt>
<trkpt lat="53.847133000" lon="-1.819266000">
  <ele>199.000000</ele>
  <time>2015-02-24T11:48:16Z</time>
  <name>WPT 1539</name>
</trkpt>
<trkpt lat="53.847121000" lon="-1.819355000">
  <ele>200.000000</ele>
  <time>2015-02-24T11:48:21Z</time>
  <name>WPT 1540</name>
</trkpt>
<trkpt lat="53.847123000" lon="-1.819443000">
  <ele>200.000000</ele>
  <time>2015-02-24T11:48:24Z</time>
  <name>WPT 1541</name>
</trkpt>
<trkpt lat="53.847124000" lon="-1.819523000">
  <ele>200.000000</ele>
  <time>2015-02-24T11:48:28Z</time>
  <name>WPT 1542</name>
</trkpt>
<trkpt lat="53.847132000" lon="-1.819602000">
  <ele>200.000000</ele>
  <time>2015-02-24T11:48:32Z</time>
  <name>WPT 1543</name>
</trkpt>
<trkpt lat="53.847122000" lon="-1.819689000">
  <ele>200.000000</ele>
  <time>2015-02-24T11:48:37Z</time>
  <name>WPT 1544</name>
</trkpt>
<trkpt lat="53.847106000" lon="-1.819784000">
  <ele>200.000000</ele>
  <time>2015-02-24T11:48:41Z</time>
  <name>WPT 1545</name>
</trkpt>
<trkpt lat="53.847087000" lon="-1.819858000">
  <ele>200.000000</ele>
  <time>2015-02-24T11:48:43Z</time>
  <name>WPT 1546</name>
</trkpt>
<trkpt lat="53.847065000" lon="-1.819939000">
  <ele>200.000000</ele>
  <time>2015-02-24T11:48:46Z</time>
  <name>WPT 1547</name>
</trkpt>
<trkpt lat="53.847047000" lon="-1.820019000">
  <ele>201.000000</ele>
  <time>2015-02-24T11:48:54Z</time>
  <name>WPT 1548</name>
</trkpt>
<trkpt lat="53.847066000" lon="-1.820097000">
  <ele>200.000000</ele>
  <time>2015-02-24T11:48:59Z</time>
  <name>WPT 1549</name>
</trkpt>
<trkpt lat="53.847080000" lon="-1.820176000">
  <ele>201.000000</ele>
  <time>2015-02-24T11:49:13Z</time>
  <name>WPT 1550</name>
</trkpt>
<trkpt lat="53.847140000" lon="-1.820205000">
  <ele>201.000000</ele>
  <time>2015-02-24T11:49:16Z</time>
  <name>WPT 1551</name>
</trkpt>
<trkpt lat="53.847193000" lon="-1.820330000">
  <ele>201.000000</ele>
  <time>2015-02-24T11:49:18Z</time>
  <name>WPT 1552</name>
</trkpt>
<trkpt lat="53.847206000" lon="-1.820424000">
  <ele>201.000000</ele>
  <time>2015-02-24T11:49:21Z</time>
  <name>WPT 1553</name>
</trkpt>
<trkpt lat="53.847259000" lon="-1.820476000">
  <ele>201.000000</ele>
  <time>2015-02-24T11:49:24Z</time>
  <name>WPT 1554</name>
</trkpt>
<trkpt lat="53.847308000" lon="-1.820492000">
  <ele>201.000000</ele>
  <time>2015-02-24T11:49:26Z</time>
  <name>WPT 1555</name>
</trkpt>
<trkpt lat="53.847351000" lon="-1.820524000">
  <ele>201.000000</ele>
  <time>2015-02-24T11:49:29Z</time>
  <name>WPT 1556</name>
</trkpt>
<trkpt lat="53.847396000" lon="-1.820615000">
  <ele>200.000000</ele>
  <time>2015-02-24T11:49:36Z</time>
  <name>WPT 1557</name>
</trkpt>
<trkpt lat="53.847438000" lon="-1.820659000">
  <ele>200.000000</ele>
  <time>2015-02-24T11:49:40Z</time>
  <name>WPT 1558</name>
</trkpt>
<trkpt lat="53.847476000" lon="-1.820711000">
  <ele>200.000000</ele>
  <time>2015-02-24T11:49:45Z</time>
  <name>WPT 1559</name>
</trkpt>
<trkpt lat="53.847516000" lon="-1.820783000">
  <ele>200.000000</ele>
  <time>2015-02-24T11:49:51Z</time>
  <name>WPT 1560</name>
</trkpt>
<trkpt lat="53.847564000" lon="-1.820812000">
  <ele>200.000000</ele>
  <time>2015-02-24T11:49:58Z</time>
  <name>WPT 1561</name>
</trkpt>
<trkpt lat="53.847611000" lon="-1.820837000">
  <ele>200.000000</ele>
  <time>2015-02-24T11:50:05Z</time>
  <name>WPT 1562</name>
</trkpt>
<trkpt lat="53.847669000" lon="-1.820836000">
  <ele>199.000000</ele>
  <time>2015-02-24T11:50:11Z</time>
  <name>WPT 1563</name>
</trkpt>
<trkpt lat="53.847713000" lon="-1.820859000">
  <ele>199.000000</ele>
  <time>2015-02-24T11:50:15Z</time>
  <name>WPT 1564</name>
</trkpt>
<trkpt lat="53.847757000" lon="-1.820910000">
  <ele>199.000000</ele>
  <time>2015-02-24T11:50:21Z</time>
  <name>WPT 1565</name>
</trkpt>
<trkpt lat="53.847759000" lon="-1.821018000">
  <ele>199.000000</ele>
  <time>2015-02-24T11:50:26Z</time>
  <name>WPT 1566</name>
</trkpt>
<trkpt lat="53.847799000" lon="-1.821105000">
  <ele>199.000000</ele>
  <time>2015-02-24T11:50:29Z</time>
  <name>WPT 1567</name>
</trkpt>
<trkpt lat="53.847828000" lon="-1.821166000">
  <ele>198.000000</ele>
  <time>2015-02-24T11:50:32Z</time>
  <name>WPT 1568</name>
</trkpt>
<trkpt lat="53.847852000" lon="-1.821243000">
  <ele>198.000000</ele>
  <time>2015-02-24T11:50:35Z</time>
  <name>WPT 1569</name>
</trkpt>
<trkpt lat="53.847852000" lon="-1.821341000">
  <ele>198.000000</ele>
  <time>2015-02-24T11:50:39Z</time>
  <name>WPT 1570</name>
</trkpt>
<trkpt lat="53.847861000" lon="-1.821418000">
  <ele>198.000000</ele>
  <time>2015-02-24T11:50:44Z</time>
  <name>WPT 1571</name>
</trkpt>
<trkpt lat="53.847882000" lon="-1.821493000">
  <ele>198.000000</ele>
  <time>2015-02-24T11:50:48Z</time>
  <name>WPT 1572</name>
</trkpt>
<trkpt lat="53.847905000" lon="-1.821560000">
  <ele>198.000000</ele>
  <time>2015-02-24T11:50:51Z</time>
  <name>WPT 1573</name>
</trkpt>
<trkpt lat="53.847929000" lon="-1.821656000">
  <ele>198.000000</ele>
  <time>2015-02-24T11:50:55Z</time>
  <name>WPT 1574</name>
</trkpt>
<trkpt lat="53.847931000" lon="-1.821751000">
  <ele>198.000000</ele>
  <time>2015-02-24T11:50:59Z</time>
  <name>WPT 1575</name>
</trkpt>
<trkpt lat="53.847947000" lon="-1.821851000">
  <ele>198.000000</ele>
  <time>2015-02-24T11:51:03Z</time>
  <name>WPT 1576</name>
</trkpt>
<trkpt lat="53.847959000" lon="-1.821931000">
  <ele>198.000000</ele>
  <time>2015-02-24T11:51:06Z</time>
  <name>WPT 1577</name>
</trkpt>
<trkpt lat="53.847981000" lon="-1.822001000">
  <ele>198.000000</ele>
  <time>2015-02-24T11:51:10Z</time>
  <name>WPT 1578</name>
</trkpt>
<trkpt lat="53.848004000" lon="-1.822079000">
  <ele>198.000000</ele>
  <time>2015-02-24T11:51:14Z</time>
  <name>WPT 1579</name>
</trkpt>
<trkpt lat="53.848030000" lon="-1.822161000">
  <ele>198.000000</ele>
  <time>2015-02-24T11:51:19Z</time>
  <name>WPT 1580</name>
</trkpt>
<trkpt lat="53.848060000" lon="-1.822239000">
  <ele>198.000000</ele>
  <time>2015-02-24T11:51:23Z</time>
  <name>WPT 1581</name>
</trkpt>
<trkpt lat="53.848078000" lon="-1.822330000">
  <ele>198.000000</ele>
  <time>2015-02-24T11:51:26Z</time>
  <name>WPT 1582</name>
</trkpt>
<trkpt lat="53.848093000" lon="-1.822410000">
  <ele>198.000000</ele>
  <time>2015-02-24T11:51:31Z</time>
  <name>WPT 1583</name>
</trkpt>
<trkpt lat="53.848111000" lon="-1.822481000">
  <ele>198.000000</ele>
  <time>2015-02-24T11:51:36Z</time>
  <name>WPT 1584</name>
</trkpt>
<trkpt lat="53.848126000" lon="-1.822554000">
  <ele>198.000000</ele>
  <time>2015-02-24T11:51:39Z</time>
  <name>WPT 1585</name>
</trkpt>
<trkpt lat="53.848150000" lon="-1.822623000">
  <ele>198.000000</ele>
  <time>2015-02-24T11:51:41Z</time>
  <name>WPT 1586</name>
</trkpt>
<trkpt lat="53.848173000" lon="-1.822689000">
  <ele>198.000000</ele>
  <time>2015-02-24T11:51:44Z</time>
  <name>WPT 1587</name>
</trkpt>
<trkpt lat="53.848206000" lon="-1.822760000">
  <ele>198.000000</ele>
  <time>2015-02-24T11:51:50Z</time>
  <name>WPT 1588</name>
</trkpt>
<trkpt lat="53.848214000" lon="-1.822841000">
  <ele>198.000000</ele>
  <time>2015-02-24T11:51:53Z</time>
  <name>WPT 1589</name>
</trkpt>
<trkpt lat="53.848241000" lon="-1.822913000">
  <ele>198.000000</ele>
  <time>2015-02-24T11:51:56Z</time>
  <name>WPT 1590</name>
</trkpt>
<trkpt lat="53.848291000" lon="-1.822965000">
  <ele>198.000000</ele>
  <time>2015-02-24T11:52:01Z</time>
  <name>WPT 1591</name>
</trkpt>
<trkpt lat="53.848337000" lon="-1.823026000">
  <ele>198.000000</ele>
  <time>2015-02-24T11:52:04Z</time>
  <name>WPT 1592</name>
</trkpt>
<trkpt lat="53.848383000" lon="-1.823087000">
  <ele>199.000000</ele>
  <time>2015-02-24T11:52:08Z</time>
  <name>WPT 1593</name>
</trkpt>
<trkpt lat="53.848425000" lon="-1.823130000">
  <ele>199.000000</ele>
  <time>2015-02-24T11:52:12Z</time>
  <name>WPT 1594</name>
</trkpt>
<trkpt lat="53.848459000" lon="-1.823181000">
  <ele>199.000000</ele>
  <time>2015-02-24T11:52:15Z</time>
  <name>WPT 1595</name>
</trkpt>
<trkpt lat="53.848499000" lon="-1.823231000">
  <ele>200.000000</ele>
  <time>2015-02-24T11:52:23Z</time>
  <name>WPT 1596</name>
</trkpt>
<trkpt lat="53.848533000" lon="-1.823293000">
  <ele>200.000000</ele>
  <time>2015-02-24T11:52:34Z</time>
  <name>WPT 1597</name>
</trkpt>
<trkpt lat="53.848583000" lon="-1.823363000">
  <ele>201.000000</ele>
  <time>2015-02-24T11:52:39Z</time>
  <name>WPT 1598</name>
</trkpt>
<trkpt lat="53.848624000" lon="-1.823415000">
  <ele>201.000000</ele>
  <time>2015-02-24T11:52:45Z</time>
  <name>WPT 1599</name>
</trkpt>
<trkpt lat="53.848662000" lon="-1.823507000">
  <ele>201.000000</ele>
  <time>2015-02-24T11:52:48Z</time>
  <name>WPT 1600</name>
</trkpt>
<trkpt lat="53.848720000" lon="-1.823483000">
  <ele>201.000000</ele>
  <time>2015-02-24T11:52:56Z</time>
  <name>WPT 1601</name>
</trkpt>
<trkpt lat="53.848778000" lon="-1.823507000">
  <ele>202.000000</ele>
  <time>2015-02-24T11:52:59Z</time>
  <name>WPT 1602</name>
</trkpt>
<trkpt lat="53.848832000" lon="-1.823570000">
  <ele>203.000000</ele>
  <time>2015-02-24T11:53:05Z</time>
  <name>WPT 1603</name>
</trkpt>
<trkpt lat="53.848878000" lon="-1.823597000">
  <ele>203.000000</ele>
  <time>2015-02-24T11:53:09Z</time>
  <name>WPT 1604</name>
</trkpt>
<trkpt lat="53.848924000" lon="-1.823627000">
  <ele>203.000000</ele>
  <time>2015-02-24T11:53:13Z</time>
  <name>WPT 1605</name>
</trkpt>
<trkpt lat="53.848979000" lon="-1.823635000">
  <ele>203.000000</ele>
  <time>2015-02-24T11:53:16Z</time>
  <name>WPT 1606</name>
</trkpt>
<trkpt lat="53.849027000" lon="-1.823660000">
  <ele>203.000000</ele>
  <time>2015-02-24T11:53:20Z</time>
  <name>WPT 1607</name>
</trkpt>
<trkpt lat="53.849070000" lon="-1.823621000">
  <ele>202.000000</ele>
  <time>2015-02-24T11:53:24Z</time>
  <name>WPT 1608</name>
</trkpt>
<trkpt lat="53.849117000" lon="-1.823626000">
  <ele>204.000000</ele>
  <time>2015-02-24T11:53:36Z</time>
  <name>WPT 1609</name>
</trkpt>
<trkpt lat="53.849173000" lon="-1.823673000">
  <ele>205.000000</ele>
  <time>2015-02-24T11:53:40Z</time>
  <name>WPT 1610</name>
</trkpt>
<trkpt lat="53.849227000" lon="-1.823734000">
  <ele>205.000000</ele>
  <time>2015-02-24T11:53:47Z</time>
  <name>WPT 1611</name>
</trkpt>
<trkpt lat="53.849285000" lon="-1.823763000">
  <ele>205.000000</ele>
  <time>2015-02-24T11:53:54Z</time>
  <name>WPT 1612</name>
</trkpt>
<trkpt lat="53.849329000" lon="-1.823746000">
  <ele>205.000000</ele>
  <time>2015-02-24T11:54:05Z</time>
  <name>WPT 1613</name>
</trkpt>
<trkpt lat="53.849373000" lon="-1.823765000">
  <ele>205.000000</ele>
  <time>2015-02-24T11:54:11Z</time>
  <name>WPT 1614</name>
</trkpt>
<trkpt lat="53.849414000" lon="-1.823797000">
  <ele>206.000000</ele>
  <time>2015-02-24T11:54:19Z</time>
  <name>WPT 1615</name>
</trkpt>
<trkpt lat="53.849469000" lon="-1.823817000">
  <ele>207.000000</ele>
  <time>2015-02-24T11:54:32Z</time>
  <name>WPT 1616</name>
</trkpt>
<trkpt lat="53.849508000" lon="-1.823771000">
  <ele>208.000000</ele>
  <time>2015-02-24T11:54:46Z</time>
  <name>WPT 1617</name>
</trkpt>
<trkpt lat="53.849550000" lon="-1.823805000">
  <ele>211.000000</ele>
  <time>2015-02-24T11:55:15Z</time>
  <name>WPT 1618</name>
</trkpt>
<trkpt lat="53.849600000" lon="-1.823801000">
  <ele>211.000000</ele>
  <time>2015-02-24T11:55:25Z</time>
  <name>WPT 1619</name>
</trkpt>
<trkpt lat="53.849653000" lon="-1.823764000">
  <ele>211.000000</ele>
  <time>2015-02-24T11:55:29Z</time>
  <name>WPT 1620</name>
</trkpt>
<trkpt lat="53.849692000" lon="-1.823702000">
  <ele>211.000000</ele>
  <time>2015-02-24T11:55:33Z</time>
  <name>WPT 1621</name>
</trkpt>
<trkpt lat="53.849740000" lon="-1.823642000">
  <ele>212.000000</ele>
  <time>2015-02-24T11:55:51Z</time>
  <name>WPT 1622</name>
</trkpt>
<trkpt lat="53.849770000" lon="-1.823570000">
  <ele>213.000000</ele>
  <time>2015-02-24T11:55:55Z</time>
  <name>WPT 1623</name>
</trkpt>
<trkpt lat="53.849809000" lon="-1.823487000">
  <ele>214.000000</ele>
  <time>2015-02-24T11:55:59Z</time>
  <name>WPT 1624</name>
</trkpt>
<trkpt lat="53.849844000" lon="-1.823418000">
  <ele>214.000000</ele>
  <time>2015-02-24T11:56:03Z</time>
  <name>WPT 1625</name>
</trkpt>
<trkpt lat="53.849884000" lon="-1.823359000">
  <ele>215.000000</ele>
  <time>2015-02-24T11:56:06Z</time>
  <name>WPT 1626</name>
</trkpt>
<trkpt lat="53.849930000" lon="-1.823349000">
  <ele>216.000000</ele>
  <time>2015-02-24T11:56:24Z</time>
  <name>WPT 1627</name>
</trkpt>
<trkpt lat="53.849980000" lon="-1.823329000">
  <ele>215.000000</ele>
  <time>2015-02-24T11:56:41Z</time>
  <name>WPT 1628</name>
</trkpt>
<trkpt lat="53.850019000" lon="-1.823277000">
  <ele>215.000000</ele>
  <time>2015-02-24T11:56:45Z</time>
  <name>WPT 1629</name>
</trkpt>
<trkpt lat="53.850064000" lon="-1.823238000">
  <ele>215.000000</ele>
  <time>2015-02-24T11:56:48Z</time>
  <name>WPT 1630</name>
</trkpt>
<trkpt lat="53.850108000" lon="-1.823198000">
  <ele>216.000000</ele>
  <time>2015-02-24T11:56:53Z</time>
  <name>WPT 1631</name>
</trkpt>
<trkpt lat="53.850159000" lon="-1.823128000">
  <ele>217.000000</ele>
  <time>2015-02-24T11:56:57Z</time>
  <name>WPT 1632</name>
</trkpt>
<trkpt lat="53.850217000" lon="-1.823101000">
  <ele>217.000000</ele>
  <time>2015-02-24T11:57:01Z</time>
  <name>WPT 1633</name>
</trkpt>
<trkpt lat="53.850255000" lon="-1.823151000">
  <ele>217.000000</ele>
  <time>2015-02-24T11:57:05Z</time>
  <name>WPT 1634</name>
</trkpt>
<trkpt lat="53.850301000" lon="-1.823211000">
  <ele>217.000000</ele>
  <time>2015-02-24T11:57:08Z</time>
  <name>WPT 1635</name>
</trkpt>
<trkpt lat="53.850340000" lon="-1.823266000">
  <ele>217.000000</ele>
  <time>2015-02-24T11:57:12Z</time>
  <name>WPT 1636</name>
</trkpt>
<trkpt lat="53.850378000" lon="-1.823316000">
  <ele>217.000000</ele>
  <time>2015-02-24T11:57:15Z</time>
  <name>WPT 1637</name>
</trkpt>
<trkpt lat="53.850415000" lon="-1.823381000">
  <ele>218.000000</ele>
  <time>2015-02-24T11:57:19Z</time>
  <name>WPT 1638</name>
</trkpt>
<trkpt lat="53.850448000" lon="-1.823434000">
  <ele>218.000000</ele>
  <time>2015-02-24T11:57:26Z</time>
  <name>WPT 1639</name>
</trkpt>
<trkpt lat="53.850499000" lon="-1.823454000">
  <ele>218.000000</ele>
  <time>2015-02-24T11:57:30Z</time>
  <name>WPT 1640</name>
</trkpt>
<trkpt lat="53.850544000" lon="-1.823473000">
  <ele>218.000000</ele>
  <time>2015-02-24T11:57:34Z</time>
  <name>WPT 1641</name>
</trkpt>
<trkpt lat="53.850588000" lon="-1.823498000">
  <ele>219.000000</ele>
  <time>2015-02-24T11:57:37Z</time>
  <name>WPT 1642</name>
</trkpt>
<trkpt lat="53.850634000" lon="-1.823521000">
  <ele>219.000000</ele>
  <time>2015-02-24T11:57:41Z</time>
  <name>WPT 1643</name>
</trkpt>
<trkpt lat="53.850688000" lon="-1.823528000">
  <ele>219.000000</ele>
  <time>2015-02-24T11:57:45Z</time>
  <name>WPT 1644</name>
</trkpt>
<trkpt lat="53.850734000" lon="-1.823564000">
  <ele>219.000000</ele>
  <time>2015-02-24T11:57:49Z</time>
  <name>WPT 1645</name>
</trkpt>
<trkpt lat="53.850789000" lon="-1.823595000">
  <ele>219.000000</ele>
  <time>2015-02-24T11:57:52Z</time>
  <name>WPT 1646</name>
</trkpt>
<trkpt lat="53.850840000" lon="-1.823599000">
  <ele>219.000000</ele>
  <time>2015-02-24T11:57:55Z</time>
  <name>WPT 1647</name>
</trkpt>
<trkpt lat="53.850892000" lon="-1.823629000">
  <ele>219.000000</ele>
  <time>2015-02-24T11:57:59Z</time>
  <name>WPT 1648</name>
</trkpt>
<trkpt lat="53.850940000" lon="-1.823667000">
  <ele>220.000000</ele>
  <time>2015-02-24T11:58:03Z</time>
  <name>WPT 1649</name>
</trkpt>
<trkpt lat="53.850981000" lon="-1.823714000">
  <ele>220.000000</ele>
  <time>2015-02-24T11:58:10Z</time>
  <name>WPT 1650</name>
</trkpt>
<trkpt lat="53.851033000" lon="-1.823733000">
  <ele>221.000000</ele>
  <time>2015-02-24T11:58:15Z</time>
  <name>WPT 1651</name>
</trkpt>
<trkpt lat="53.851083000" lon="-1.823745000">
  <ele>221.000000</ele>
  <time>2015-02-24T11:58:26Z</time>
  <name>WPT 1652</name>
</trkpt>
<trkpt lat="53.851133000" lon="-1.823812000">
  <ele>221.000000</ele>
  <time>2015-02-24T11:58:34Z</time>
  <name>WPT 1653</name>
</trkpt>
<trkpt lat="53.851165000" lon="-1.823878000">
  <ele>222.000000</ele>
  <time>2015-02-24T11:58:38Z</time>
  <name>WPT 1654</name>
</trkpt>
<trkpt lat="53.851195000" lon="-1.823937000">
  <ele>223.000000</ele>
  <time>2015-02-24T11:58:45Z</time>
  <name>WPT 1655</name>
</trkpt>
<trkpt lat="53.851211000" lon="-1.824036000">
  <ele>223.000000</ele>
  <time>2015-02-24T11:58:47Z</time>
  <name>WPT 1656</name>
</trkpt>
<trkpt lat="53.851219000" lon="-1.824117000">
  <ele>223.000000</ele>
  <time>2015-02-24T11:58:50Z</time>
  <name>WPT 1657</name>
</trkpt>
<trkpt lat="53.851256000" lon="-1.824165000">
  <ele>224.000000</ele>
  <time>2015-02-24T11:58:52Z</time>
  <name>WPT 1658</name>
</trkpt>
<trkpt lat="53.851302000" lon="-1.824177000">
  <ele>224.000000</ele>
  <time>2015-02-24T11:58:58Z</time>
  <name>WPT 1659</name>
</trkpt>
<trkpt lat="53.851346000" lon="-1.824203000">
  <ele>225.000000</ele>
  <time>2015-02-24T11:59:06Z</time>
  <name>WPT 1660</name>
</trkpt>
<trkpt lat="53.851380000" lon="-1.824263000">
  <ele>226.000000</ele>
  <time>2015-02-24T11:59:24Z</time>
  <name>WPT 1661</name>
</trkpt>
<trkpt lat="53.851422000" lon="-1.824297000">
  <ele>226.000000</ele>
  <time>2015-02-24T11:59:27Z</time>
  <name>WPT 1662</name>
</trkpt>
<trkpt lat="53.851463000" lon="-1.824328000">
  <ele>227.000000</ele>
  <time>2015-02-24T11:59:30Z</time>
  <name>WPT 1663</name>
</trkpt>
<trkpt lat="53.851511000" lon="-1.824379000">
  <ele>227.000000</ele>
  <time>2015-02-24T11:59:33Z</time>
  <name>WPT 1664</name>
</trkpt>
<trkpt lat="53.851553000" lon="-1.824426000">
  <ele>228.000000</ele>
  <time>2015-02-24T11:59:36Z</time>
  <name>WPT 1665</name>
</trkpt>
<trkpt lat="53.851604000" lon="-1.824478000">
  <ele>228.000000</ele>
  <time>2015-02-24T11:59:40Z</time>
  <name>WPT 1666</name>
</trkpt>
<trkpt lat="53.851649000" lon="-1.824500000">
  <ele>228.000000</ele>
  <time>2015-02-24T11:59:44Z</time>
  <name>WPT 1667</name>
</trkpt>
<trkpt lat="53.851699000" lon="-1.824504000">
  <ele>228.000000</ele>
  <time>2015-02-24T11:59:46Z</time>
  <name>WPT 1668</name>
</trkpt>
<trkpt lat="53.851745000" lon="-1.824499000">
  <ele>229.000000</ele>
  <time>2015-02-24T11:59:52Z</time>
  <name>WPT 1669</name>
</trkpt>
<trkpt lat="53.851794000" lon="-1.824502000">
  <ele>229.000000</ele>
  <time>2015-02-24T11:59:58Z</time>
  <name>WPT 1670</name>
</trkpt>
<trkpt lat="53.851840000" lon="-1.824505000">
  <ele>229.000000</ele>
  <time>2015-02-24T12:00:04Z</time>
  <name>WPT 1671</name>
</trkpt>
<trkpt lat="53.851889000" lon="-1.824557000">
  <ele>229.000000</ele>
  <time>2015-02-24T12:00:07Z</time>
  <name>WPT 1672</name>
</trkpt>
<trkpt lat="53.851944000" lon="-1.824593000">
  <ele>229.000000</ele>
  <time>2015-02-24T12:00:11Z</time>
  <name>WPT 1673</name>
</trkpt>
<trkpt lat="53.851993000" lon="-1.824635000">
  <ele>230.000000</ele>
  <time>2015-02-24T12:00:19Z</time>
  <name>WPT 1674</name>
</trkpt>
<trkpt lat="53.852044000" lon="-1.824652000">
  <ele>230.000000</ele>
  <time>2015-02-24T12:00:22Z</time>
  <name>WPT 1675</name>
</trkpt>
<trkpt lat="53.852109000" lon="-1.824661000">
  <ele>230.000000</ele>
  <time>2015-02-24T12:00:26Z</time>
  <name>WPT 1676</name>
</trkpt>
<trkpt lat="53.852167000" lon="-1.824679000">
  <ele>230.000000</ele>
  <time>2015-02-24T12:00:30Z</time>
  <name>WPT 1677</name>
</trkpt>
<trkpt lat="53.852218000" lon="-1.824694000">
  <ele>230.000000</ele>
  <time>2015-02-24T12:00:34Z</time>
  <name>WPT 1678</name>
</trkpt>
<trkpt lat="53.852265000" lon="-1.824684000">
  <ele>231.000000</ele>
  <time>2015-02-24T12:00:39Z</time>
  <name>WPT 1679</name>
</trkpt>
<trkpt lat="53.852326000" lon="-1.824689000">
  <ele>231.000000</ele>
  <time>2015-02-24T12:00:54Z</time>
  <name>WPT 1680</name>
</trkpt>
<trkpt lat="53.852380000" lon="-1.824730000">
  <ele>231.000000</ele>
  <time>2015-02-24T12:01:05Z</time>
  <name>WPT 1681</name>
</trkpt>
<trkpt lat="53.852437000" lon="-1.824730000">
  <ele>231.000000</ele>
  <time>2015-02-24T12:01:09Z</time>
  <name>WPT 1682</name>
</trkpt>
<trkpt lat="53.852486000" lon="-1.824714000">
  <ele>231.000000</ele>
  <time>2015-02-24T12:01:15Z</time>
  <name>WPT 1683</name>
</trkpt>
<trkpt lat="53.852554000" lon="-1.824703000">
  <ele>232.000000</ele>
  <time>2015-02-24T12:01:20Z</time>
  <name>WPT 1684</name>
</trkpt>
<trkpt lat="53.852600000" lon="-1.824693000">
  <ele>232.000000</ele>
  <time>2015-02-24T12:01:22Z</time>
  <name>WPT 1685</name>
</trkpt>
<trkpt lat="53.852654000" lon="-1.824697000">
  <ele>232.000000</ele>
  <time>2015-02-24T12:01:25Z</time>
  <name>WPT 1686</name>
</trkpt>
<trkpt lat="53.852694000" lon="-1.824733000">
  <ele>232.000000</ele>
  <time>2015-02-24T12:01:29Z</time>
  <name>WPT 1687</name>
</trkpt>
<trkpt lat="53.852743000" lon="-1.824740000">
  <ele>232.000000</ele>
  <time>2015-02-24T12:01:35Z</time>
  <name>WPT 1688</name>
</trkpt>
<trkpt lat="53.852790000" lon="-1.824739000">
  <ele>233.000000</ele>
  <time>2015-02-24T12:01:39Z</time>
  <name>WPT 1689</name>
</trkpt>
<trkpt lat="53.852849000" lon="-1.824743000">
  <ele>233.000000</ele>
  <time>2015-02-24T12:01:42Z</time>
  <name>WPT 1690</name>
</trkpt>
<trkpt lat="53.852894000" lon="-1.824804000">
  <ele>233.000000</ele>
  <time>2015-02-24T12:01:46Z</time>
  <name>WPT 1691</name>
</trkpt>
<trkpt lat="53.852940000" lon="-1.824823000">
  <ele>233.000000</ele>
  <time>2015-02-24T12:01:55Z</time>
  <name>WPT 1692</name>
</trkpt>
<trkpt lat="53.852987000" lon="-1.824850000">
  <ele>234.000000</ele>
  <time>2015-02-24T12:02:01Z</time>
  <name>WPT 1693</name>
</trkpt>
<trkpt lat="53.853038000" lon="-1.824820000">
  <ele>234.000000</ele>
  <time>2015-02-24T12:02:05Z</time>
  <name>WPT 1694</name>
</trkpt>
<trkpt lat="53.853097000" lon="-1.824791000">
  <ele>233.000000</ele>
  <time>2015-02-24T12:02:08Z</time>
  <name>WPT 1695</name>
</trkpt>
<trkpt lat="53.853149000" lon="-1.824785000">
  <ele>233.000000</ele>
  <time>2015-02-24T12:02:12Z</time>
  <name>WPT 1696</name>
</trkpt>
<trkpt lat="53.853185000" lon="-1.824845000">
  <ele>233.000000</ele>
  <time>2015-02-24T12:02:15Z</time>
  <name>WPT 1697</name>
</trkpt>
<trkpt lat="53.853232000" lon="-1.824866000">
  <ele>233.000000</ele>
  <time>2015-02-24T12:02:18Z</time>
  <name>WPT 1698</name>
</trkpt>
<trkpt lat="53.853283000" lon="-1.824865000">
  <ele>233.000000</ele>
  <time>2015-02-24T12:02:22Z</time>
  <name>WPT 1699</name>
</trkpt>
<trkpt lat="53.853328000" lon="-1.824857000">
  <ele>233.000000</ele>
  <time>2015-02-24T12:02:26Z</time>
  <name>WPT 1700</name>
</trkpt>
<trkpt lat="53.853380000" lon="-1.824861000">
  <ele>233.000000</ele>
  <time>2015-02-24T12:02:29Z</time>
  <name>WPT 1701</name>
</trkpt>
<trkpt lat="53.853427000" lon="-1.824861000">
  <ele>233.000000</ele>
  <time>2015-02-24T12:02:33Z</time>
  <name>WPT 1702</name>
</trkpt>
<trkpt lat="53.853478000" lon="-1.824859000">
  <ele>234.000000</ele>
  <time>2015-02-24T12:02:38Z</time>
  <name>WPT 1703</name>
</trkpt>
<trkpt lat="53.853532000" lon="-1.824844000">
  <ele>234.000000</ele>
  <time>2015-02-24T12:02:43Z</time>
  <name>WPT 1704</name>
</trkpt>
<trkpt lat="53.853590000" lon="-1.824826000">
  <ele>234.000000</ele>
  <time>2015-02-24T12:02:48Z</time>
  <name>WPT 1705</name>
</trkpt>
<trkpt lat="53.853631000" lon="-1.824786000">
  <ele>235.000000</ele>
  <time>2015-02-24T12:02:52Z</time>
  <name>WPT 1706</name>
</trkpt>
<trkpt lat="53.853678000" lon="-1.824742000">
  <ele>235.000000</ele>
  <time>2015-02-24T12:02:57Z</time>
  <name>WPT 1707</name>
</trkpt>
<trkpt lat="53.853731000" lon="-1.824742000">
  <ele>235.000000</ele>
  <time>2015-02-24T12:03:03Z</time>
  <name>WPT 1708</name>
</trkpt>
<trkpt lat="53.853774000" lon="-1.824781000">
  <ele>235.000000</ele>
  <time>2015-02-24T12:03:09Z</time>
  <name>WPT 1709</name>
</trkpt>
<trkpt lat="53.853834000" lon="-1.824803000">
  <ele>235.000000</ele>
  <time>2015-02-24T12:03:14Z</time>
  <name>WPT 1710</name>
</trkpt>
<trkpt lat="53.853887000" lon="-1.824807000">
  <ele>235.000000</ele>
  <time>2015-02-24T12:03:17Z</time>
  <name>WPT 1711</name>
</trkpt>
<trkpt lat="53.853945000" lon="-1.824811000">
  <ele>235.000000</ele>
  <time>2015-02-24T12:03:21Z</time>
  <name>WPT 1712</name>
</trkpt>
<trkpt lat="53.853989000" lon="-1.824789000">
  <ele>235.000000</ele>
  <time>2015-02-24T12:03:27Z</time>
  <name>WPT 1713</name>
</trkpt>
<trkpt lat="53.854053000" lon="-1.824773000">
  <ele>235.000000</ele>
  <time>2015-02-24T12:03:30Z</time>
  <name>WPT 1714</name>
</trkpt>
<trkpt lat="53.854102000" lon="-1.824740000">
  <ele>235.000000</ele>
  <time>2015-02-24T12:03:35Z</time>
  <name>WPT 1715</name>
</trkpt>
<trkpt lat="53.854142000" lon="-1.824656000">
  <ele>235.000000</ele>
  <time>2015-02-24T12:03:40Z</time>
  <name>WPT 1716</name>
</trkpt>
<trkpt lat="53.854139000" lon="-1.824580000">
  <ele>235.000000</ele>
  <time>2015-02-24T12:03:45Z</time>
  <name>WPT 1717</name>
</trkpt>
<trkpt lat="53.854132000" lon="-1.824500000">
  <ele>235.000000</ele>
  <time>2015-02-24T12:03:51Z</time>
  <name>WPT 1718</name>
</trkpt>
<trkpt lat="53.854112000" lon="-1.824416000">
  <ele>235.000000</ele>
  <time>2015-02-24T12:03:55Z</time>
  <name>WPT 1719</name>
</trkpt>
<trkpt lat="53.854127000" lon="-1.824341000">
  <ele>235.000000</ele>
  <time>2015-02-24T12:03:58Z</time>
  <name>WPT 1720</name>
</trkpt>
<trkpt lat="53.854129000" lon="-1.824248000">
  <ele>235.000000</ele>
  <time>2015-02-24T12:04:01Z</time>
  <name>WPT 1721</name>
</trkpt>
<trkpt lat="53.854144000" lon="-1.824165000">
  <ele>236.000000</ele>
  <time>2015-02-24T12:04:05Z</time>
  <name>WPT 1722</name>
</trkpt>
<trkpt lat="53.854174000" lon="-1.824083000">
  <ele>236.000000</ele>
  <time>2015-02-24T12:04:09Z</time>
  <name>WPT 1723</name>
</trkpt>
<trkpt lat="53.854221000" lon="-1.824079000">
  <ele>236.000000</ele>
  <time>2015-02-24T12:04:13Z</time>
  <name>WPT 1724</name>
</trkpt>
<trkpt lat="53.854261000" lon="-1.824113000">
  <ele>236.000000</ele>
  <time>2015-02-24T12:04:15Z</time>
  <name>WPT 1725</name>
</trkpt>
<trkpt lat="53.854320000" lon="-1.824141000">
  <ele>235.000000</ele>
  <time>2015-02-24T12:04:20Z</time>
  <name>WPT 1726</name>
</trkpt>
<trkpt lat="53.854362000" lon="-1.824169000">
  <ele>235.000000</ele>
  <time>2015-02-24T12:04:23Z</time>
  <name>WPT 1727</name>
</trkpt>
<trkpt lat="53.854405000" lon="-1.824191000">
  <ele>235.000000</ele>
  <time>2015-02-24T12:04:28Z</time>
  <name>WPT 1728</name>
</trkpt>
<trkpt lat="53.854450000" lon="-1.824210000">
  <ele>235.000000</ele>
  <time>2015-02-24T12:04:32Z</time>
  <name>WPT 1729</name>
</trkpt>
<trkpt lat="53.854495000" lon="-1.824201000">
  <ele>235.000000</ele>
  <time>2015-02-24T12:04:34Z</time>
  <name>WPT 1730</name>
</trkpt>
<trkpt lat="53.854543000" lon="-1.824179000">
  <ele>235.000000</ele>
  <time>2015-02-24T12:04:37Z</time>
  <name>WPT 1731</name>
</trkpt>
<trkpt lat="53.854577000" lon="-1.824125000">
  <ele>235.000000</ele>
  <time>2015-02-24T12:04:41Z</time>
  <name>WPT 1732</name>
</trkpt>
<trkpt lat="53.854639000" lon="-1.824139000">
  <ele>235.000000</ele>
  <time>2015-02-24T12:04:46Z</time>
  <name>WPT 1733</name>
</trkpt>
<trkpt lat="53.854685000" lon="-1.824156000">
  <ele>235.000000</ele>
  <time>2015-02-24T12:04:48Z</time>
  <name>WPT 1734</name>
</trkpt>
<trkpt lat="53.854746000" lon="-1.824153000">
  <ele>235.000000</ele>
  <time>2015-02-24T12:04:53Z</time>
  <name>WPT 1735</name>
</trkpt>
<trkpt lat="53.854796000" lon="-1.824160000">
  <ele>235.000000</ele>
  <time>2015-02-24T12:04:56Z</time>
  <name>WPT 1736</name>
</trkpt>
<trkpt lat="53.854842000" lon="-1.824187000">
  <ele>235.000000</ele>
  <time>2015-02-24T12:05:00Z</time>
  <name>WPT 1737</name>
</trkpt>
<trkpt lat="53.854902000" lon="-1.824205000">
  <ele>235.000000</ele>
  <time>2015-02-24T12:05:05Z</time>
  <name>WPT 1738</name>
</trkpt>
<trkpt lat="53.854952000" lon="-1.824222000">
  <ele>235.000000</ele>
  <time>2015-02-24T12:05:08Z</time>
  <name>WPT 1739</name>
</trkpt>
<trkpt lat="53.854998000" lon="-1.824205000">
  <ele>236.000000</ele>
  <time>2015-02-24T12:05:13Z</time>
  <name>WPT 1740</name>
</trkpt>
<trkpt lat="53.855045000" lon="-1.824190000">
  <ele>236.000000</ele>
  <time>2015-02-24T12:05:17Z</time>
  <name>WPT 1741</name>
</trkpt>
<trkpt lat="53.855092000" lon="-1.824186000">
  <ele>236.000000</ele>
  <time>2015-02-24T12:05:20Z</time>
  <name>WPT 1742</name>
</trkpt>
<trkpt lat="53.855142000" lon="-1.824187000">
  <ele>236.000000</ele>
  <time>2015-02-24T12:05:24Z</time>
  <name>WPT 1743</name>
</trkpt>
<trkpt lat="53.855187000" lon="-1.824198000">
  <ele>236.000000</ele>
  <time>2015-02-24T12:05:27Z</time>
  <name>WPT 1744</name>
</trkpt>
<trkpt lat="53.855239000" lon="-1.824171000">
  <ele>237.000000</ele>
  <time>2015-02-24T12:05:32Z</time>
  <name>WPT 1745</name>
</trkpt>
<trkpt lat="53.855287000" lon="-1.824120000">
  <ele>237.000000</ele>
  <time>2015-02-24T12:05:36Z</time>
  <name>WPT 1746</name>
</trkpt>
<trkpt lat="53.855332000" lon="-1.824077000">
  <ele>237.000000</ele>
  <time>2015-02-24T12:05:39Z</time>
  <name>WPT 1747</name>
</trkpt>
<trkpt lat="53.855355000" lon="-1.823998000">
  <ele>238.000000</ele>
  <time>2015-02-24T12:05:43Z</time>
  <name>WPT 1748</name>
</trkpt>
<trkpt lat="53.855400000" lon="-1.823920000">
  <ele>238.000000</ele>
  <time>2015-02-24T12:05:46Z</time>
  <name>WPT 1749</name>
</trkpt>
<trkpt lat="53.855437000" lon="-1.823871000">
  <ele>239.000000</ele>
  <time>2015-02-24T12:05:50Z</time>
  <name>WPT 1750</name>
</trkpt>
<trkpt lat="53.855476000" lon="-1.823808000">
  <ele>239.000000</ele>
  <time>2015-02-24T12:05:54Z</time>
  <name>WPT 1751</name>
</trkpt>
<trkpt lat="53.855507000" lon="-1.823750000">
  <ele>239.000000</ele>
  <time>2015-02-24T12:06:10Z</time>
  <name>WPT 1752</name>
</trkpt>
<trkpt lat="53.855536000" lon="-1.823670000">
  <ele>239.000000</ele>
  <time>2015-02-24T12:06:15Z</time>
  <name>WPT 1753</name>
</trkpt>
<trkpt lat="53.855568000" lon="-1.823597000">
  <ele>240.000000</ele>
  <time>2015-02-24T12:06:20Z</time>
  <name>WPT 1754</name>
</trkpt>
<trkpt lat="53.855588000" lon="-1.823514000">
  <ele>241.000000</ele>
  <time>2015-02-24T12:06:24Z</time>
  <name>WPT 1755</name>
</trkpt>
<trkpt lat="53.855614000" lon="-1.823443000">
  <ele>242.000000</ele>
  <time>2015-02-24T12:06:28Z</time>
  <name>WPT 1756</name>
</trkpt>
<trkpt lat="53.855659000" lon="-1.823379000">
  <ele>243.000000</ele>
  <time>2015-02-24T12:06:33Z</time>
  <name>WPT 1757</name>
</trkpt>
<trkpt lat="53.855700000" lon="-1.823344000">
  <ele>243.000000</ele>
  <time>2015-02-24T12:06:38Z</time>
  <name>WPT 1758</name>
</trkpt>
<trkpt lat="53.855749000" lon="-1.823328000">
  <ele>243.000000</ele>
  <time>2015-02-24T12:06:40Z</time>
  <name>WPT 1759</name>
</trkpt>
<trkpt lat="53.855805000" lon="-1.823272000">
  <ele>243.000000</ele>
  <time>2015-02-24T12:06:42Z</time>
  <name>WPT 1760</name>
</trkpt>
<trkpt lat="53.855849000" lon="-1.823328000">
  <ele>243.000000</ele>
  <time>2015-02-24T12:06:47Z</time>
  <name>WPT 1761</name>
</trkpt>
<trkpt lat="53.855918000" lon="-1.823361000">
  <ele>243.000000</ele>
  <time>2015-02-24T12:06:51Z</time>
  <name>WPT 1762</name>
</trkpt>
<trkpt lat="53.855973000" lon="-1.823380000">
  <ele>243.000000</ele>
  <time>2015-02-24T12:06:55Z</time>
  <name>WPT 1763</name>
</trkpt>
<trkpt lat="53.856010000" lon="-1.823428000">
  <ele>242.000000</ele>
  <time>2015-02-24T12:07:02Z</time>
  <name>WPT 1764</name>
</trkpt>
<trkpt lat="53.856045000" lon="-1.823481000">
  <ele>242.000000</ele>
  <time>2015-02-24T12:07:04Z</time>
  <name>WPT 1765</name>
</trkpt>
<trkpt lat="53.856084000" lon="-1.823527000">
  <ele>242.000000</ele>
  <time>2015-02-24T12:07:09Z</time>
  <name>WPT 1766</name>
</trkpt>
<trkpt lat="53.856139000" lon="-1.823530000">
  <ele>242.000000</ele>
  <time>2015-02-24T12:07:17Z</time>
  <name>WPT 1767</name>
</trkpt>
<trkpt lat="53.856187000" lon="-1.823533000">
  <ele>242.000000</ele>
  <time>2015-02-24T12:07:20Z</time>
  <name>WPT 1768</name>
</trkpt>
<trkpt lat="53.856241000" lon="-1.823581000">
  <ele>242.000000</ele>
  <time>2015-02-24T12:07:24Z</time>
  <name>WPT 1769</name>
</trkpt>
<trkpt lat="53.856290000" lon="-1.823626000">
  <ele>242.000000</ele>
  <time>2015-02-24T12:07:28Z</time>
  <name>WPT 1770</name>
</trkpt>
<trkpt lat="53.856335000" lon="-1.823615000">
  <ele>242.000000</ele>
  <time>2015-02-24T12:07:33Z</time>
  <name>WPT 1771</name>
</trkpt>
<trkpt lat="53.856387000" lon="-1.823646000">
  <ele>242.000000</ele>
  <time>2015-02-24T12:07:38Z</time>
  <name>WPT 1772</name>
</trkpt>
<trkpt lat="53.856423000" lon="-1.823716000">
  <ele>242.000000</ele>
  <time>2015-02-24T12:07:41Z</time>
  <name>WPT 1773</name>
</trkpt>
<trkpt lat="53.856482000" lon="-1.823732000">
  <ele>242.000000</ele>
  <time>2015-02-24T12:07:43Z</time>
  <name>WPT 1774</name>
</trkpt>
<trkpt lat="53.856528000" lon="-1.823729000">
  <ele>242.000000</ele>
  <time>2015-02-24T12:07:46Z</time>
  <name>WPT 1775</name>
</trkpt>
<trkpt lat="53.856579000" lon="-1.823746000">
  <ele>243.000000</ele>
  <time>2015-02-24T12:07:51Z</time>
  <name>WPT 1776</name>
</trkpt>
<trkpt lat="53.856628000" lon="-1.823785000">
  <ele>242.000000</ele>
  <time>2015-02-24T12:07:57Z</time>
  <name>WPT 1777</name>
</trkpt>
<trkpt lat="53.856677000" lon="-1.823754000">
  <ele>242.000000</ele>
  <time>2015-02-24T12:08:01Z</time>
  <name>WPT 1778</name>
</trkpt>
<trkpt lat="53.856707000" lon="-1.823834000">
  <ele>242.000000</ele>
  <time>2015-02-24T12:08:07Z</time>
  <name>WPT 1779</name>
</trkpt>
<trkpt lat="53.856691000" lon="-1.823930000">
  <ele>242.000000</ele>
  <time>2015-02-24T12:08:11Z</time>
  <name>WPT 1780</name>
</trkpt>
<trkpt lat="53.856661000" lon="-1.823991000">
  <ele>243.000000</ele>
  <time>2015-02-24T12:08:18Z</time>
  <name>WPT 1781</name>
</trkpt>
<trkpt lat="53.856616000" lon="-1.824040000">
  <ele>244.000000</ele>
  <time>2015-02-24T12:08:25Z</time>
  <name>WPT 1782</name>
</trkpt>
<trkpt lat="53.856594000" lon="-1.824138000">
  <ele>244.000000</ele>
  <time>2015-02-24T12:08:28Z</time>
  <name>WPT 1783</name>
</trkpt>
<trkpt lat="53.856586000" lon="-1.824234000">
  <ele>244.000000</ele>
  <time>2015-02-24T12:08:30Z</time>
  <name>WPT 1784</name>
</trkpt>
<trkpt lat="53.856587000" lon="-1.824338000">
  <ele>245.000000</ele>
  <time>2015-02-24T12:08:35Z</time>
  <name>WPT 1785</name>
</trkpt>
<trkpt lat="53.856573000" lon="-1.824423000">
  <ele>245.000000</ele>
  <time>2015-02-24T12:08:38Z</time>
  <name>WPT 1786</name>
</trkpt>
<trkpt lat="53.856573000" lon="-1.824515000">
  <ele>245.000000</ele>
  <time>2015-02-24T12:08:41Z</time>
  <name>WPT 1787</name>
</trkpt>
<trkpt lat="53.856592000" lon="-1.824591000">
  <ele>244.000000</ele>
  <time>2015-02-24T12:08:47Z</time>
  <name>WPT 1788</name>
</trkpt>
<trkpt lat="53.856572000" lon="-1.824672000">
  <ele>243.000000</ele>
  <time>2015-02-24T12:08:54Z</time>
  <name>WPT 1789</name>
</trkpt>
<trkpt lat="53.856556000" lon="-1.824771000">
  <ele>243.000000</ele>
  <time>2015-02-24T12:08:56Z</time>
  <name>WPT 1790</name>
</trkpt>
<trkpt lat="53.856536000" lon="-1.824849000">
  <ele>243.000000</ele>
  <time>2015-02-24T12:08:58Z</time>
  <name>WPT 1791</name>
</trkpt>
<trkpt lat="53.856556000" lon="-1.824925000">
  <ele>242.000000</ele>
  <time>2015-02-24T12:09:01Z</time>
  <name>WPT 1792</name>
</trkpt>
<trkpt lat="53.856605000" lon="-1.824966000">
  <ele>242.000000</ele>
  <time>2015-02-24T12:09:05Z</time>
  <name>WPT 1793</name>
</trkpt>
<trkpt lat="53.856648000" lon="-1.825016000">
  <ele>241.000000</ele>
  <time>2015-02-24T12:09:13Z</time>
  <name>WPT 1794</name>
</trkpt>
<trkpt lat="53.856699000" lon="-1.825074000">
  <ele>240.000000</ele>
  <time>2015-02-24T12:09:17Z</time>
  <name>WPT 1795</name>
</trkpt>
<trkpt lat="53.856740000" lon="-1.825106000">
  <ele>240.000000</ele>
  <time>2015-02-24T12:09:21Z</time>
  <name>WPT 1796</name>
</trkpt>
<trkpt lat="53.856797000" lon="-1.825166000">
  <ele>239.000000</ele>
  <time>2015-02-24T12:09:39Z</time>
  <name>WPT 1797</name>
</trkpt>
<trkpt lat="53.856842000" lon="-1.825198000">
  <ele>237.000000</ele>
  <time>2015-02-24T12:10:29Z</time>
  <name>WPT 1798</name>
</trkpt>
<trkpt lat="53.856865000" lon="-1.825270000">
  <ele>237.000000</ele>
  <time>2015-02-24T12:10:36Z</time>
  <name>WPT 1799</name>
</trkpt>
<trkpt lat="53.856894000" lon="-1.825395000">
  <ele>236.000000</ele>
  <time>2015-02-24T12:10:54Z</time>
  <name>WPT 1800</name>
</trkpt>
<trkpt lat="53.856902000" lon="-1.825476000">
  <ele>235.000000</ele>
  <time>2015-02-24T12:10:59Z</time>
  <name>WPT 1801</name>
</trkpt>
<trkpt lat="53.856856000" lon="-1.825581000">
  <ele>235.000000</ele>
  <time>2015-02-24T12:11:08Z</time>
  <name>WPT 1802</name>
</trkpt>
<trkpt lat="53.856831000" lon="-1.825665000">
  <ele>235.000000</ele>
  <time>2015-02-24T12:11:10Z</time>
  <name>WPT 1803</name>
</trkpt>
<trkpt lat="53.856814000" lon="-1.825758000">
  <ele>235.000000</ele>
  <time>2015-02-24T12:11:13Z</time>
  <name>WPT 1804</name>
</trkpt>
<trkpt lat="53.856798000" lon="-1.825848000">
  <ele>235.000000</ele>
  <time>2015-02-24T12:11:19Z</time>
  <name>WPT 1805</name>
</trkpt>
<trkpt lat="53.856770000" lon="-1.825909000">
  <ele>235.000000</ele>
  <time>2015-02-24T12:11:24Z</time>
  <name>WPT 1806</name>
</trkpt>
<trkpt lat="53.856762000" lon="-1.826006000">
  <ele>235.000000</ele>
  <time>2015-02-24T12:11:30Z</time>
  <name>WPT 1807</name>
</trkpt>
<trkpt lat="53.856788000" lon="-1.826087000">
  <ele>235.000000</ele>
  <time>2015-02-24T12:11:33Z</time>
  <name>WPT 1808</name>
</trkpt>
<trkpt lat="53.856807000" lon="-1.826183000">
  <ele>235.000000</ele>
  <time>2015-02-24T12:11:36Z</time>
  <name>WPT 1809</name>
</trkpt>
<trkpt lat="53.856826000" lon="-1.826268000">
  <ele>235.000000</ele>
  <time>2015-02-24T12:11:40Z</time>
  <name>WPT 1810</name>
</trkpt>
<trkpt lat="53.856835000" lon="-1.826359000">
  <ele>235.000000</ele>
  <time>2015-02-24T12:11:44Z</time>
  <name>WPT 1811</name>
</trkpt>
<trkpt lat="53.856843000" lon="-1.826474000">
  <ele>233.000000</ele>
  <time>2015-02-24T12:11:50Z</time>
  <name>WPT 1812</name>
</trkpt>
<trkpt lat="53.856857000" lon="-1.826565000">
  <ele>231.000000</ele>
  <time>2015-02-24T12:12:04Z</time>
  <name>WPT 1813</name>
</trkpt>
<trkpt lat="53.856886000" lon="-1.826646000">
  <ele>230.000000</ele>
  <time>2015-02-24T12:12:09Z</time>
  <name>WPT 1814</name>
</trkpt>
<trkpt lat="53.856910000" lon="-1.826716000">
  <ele>230.000000</ele>
  <time>2015-02-24T12:12:14Z</time>
  <name>WPT 1815</name>
</trkpt>
<trkpt lat="53.856949000" lon="-1.826768000">
  <ele>229.000000</ele>
  <time>2015-02-24T12:12:18Z</time>
  <name>WPT 1816</name>
</trkpt>
<trkpt lat="53.856977000" lon="-1.826833000">
  <ele>229.000000</ele>
  <time>2015-02-24T12:12:24Z</time>
  <name>WPT 1817</name>
</trkpt>
<trkpt lat="53.857009000" lon="-1.826890000">
  <ele>229.000000</ele>
  <time>2015-02-24T12:12:27Z</time>
  <name>WPT 1818</name>
</trkpt>
<trkpt lat="53.857048000" lon="-1.826935000">
  <ele>228.000000</ele>
  <time>2015-02-24T12:12:31Z</time>
  <name>WPT 1819</name>
</trkpt>
<trkpt lat="53.857094000" lon="-1.826955000">
  <ele>228.000000</ele>
  <time>2015-02-24T12:12:34Z</time>
  <name>WPT 1820</name>
</trkpt>
<trkpt lat="53.857147000" lon="-1.826990000">
  <ele>228.000000</ele>
  <time>2015-02-24T12:12:37Z</time>
  <name>WPT 1821</name>
</trkpt>
<trkpt lat="53.857188000" lon="-1.827032000">
  <ele>227.000000</ele>
  <time>2015-02-24T12:12:39Z</time>
  <name>WPT 1822</name>
</trkpt>
<trkpt lat="53.857244000" lon="-1.827069000">
  <ele>227.000000</ele>
  <time>2015-02-24T12:12:43Z</time>
  <name>WPT 1823</name>
</trkpt>
<trkpt lat="53.857280000" lon="-1.827011000">
  <ele>227.000000</ele>
  <time>2015-02-24T12:13:00Z</time>
  <name>WPT 1824</name>
</trkpt>
<trkpt lat="53.857316000" lon="-1.827057000">
  <ele>227.000000</ele>
  <time>2015-02-24T12:13:09Z</time>
  <name>WPT 1825</name>
</trkpt>
<trkpt lat="53.857355000" lon="-1.827111000">
  <ele>228.000000</ele>
  <time>2015-02-24T12:13:13Z</time>
  <name>WPT 1826</name>
</trkpt>
<trkpt lat="53.857388000" lon="-1.827162000">
  <ele>228.000000</ele>
  <time>2015-02-24T12:13:16Z</time>
  <name>WPT 1827</name>
</trkpt>
<trkpt lat="53.857426000" lon="-1.827202000">
  <ele>229.000000</ele>
  <time>2015-02-24T12:13:20Z</time>
  <name>WPT 1828</name>
</trkpt>
<trkpt lat="53.857464000" lon="-1.827246000">
  <ele>230.000000</ele>
  <time>2015-02-24T12:13:25Z</time>
  <name>WPT 1829</name>
</trkpt>
<trkpt lat="53.857512000" lon="-1.827274000">
  <ele>231.000000</ele>
  <time>2015-02-24T12:13:30Z</time>
  <name>WPT 1830</name>
</trkpt>
<trkpt lat="53.857577000" lon="-1.827300000">
  <ele>231.000000</ele>
  <time>2015-02-24T12:13:34Z</time>
  <name>WPT 1831</name>
</trkpt>
<trkpt lat="53.857635000" lon="-1.827305000">
  <ele>231.000000</ele>
  <time>2015-02-24T12:13:37Z</time>
  <name>WPT 1832</name>
</trkpt>
<trkpt lat="53.857681000" lon="-1.827305000">
  <ele>230.000000</ele>
  <time>2015-02-24T12:13:40Z</time>
  <name>WPT 1833</name>
</trkpt>
<trkpt lat="53.857726000" lon="-1.827295000">
  <ele>230.000000</ele>
  <time>2015-02-24T12:13:43Z</time>
  <name>WPT 1834</name>
</trkpt>
<trkpt lat="53.857772000" lon="-1.827295000">
  <ele>231.000000</ele>
  <time>2015-02-24T12:13:50Z</time>
  <name>WPT 1835</name>
</trkpt>
<trkpt lat="53.857838000" lon="-1.827332000">
  <ele>231.000000</ele>
  <time>2015-02-24T12:13:54Z</time>
  <name>WPT 1836</name>
</trkpt>
<trkpt lat="53.857892000" lon="-1.827349000">
  <ele>232.000000</ele>
  <time>2015-02-24T12:13:57Z</time>
  <name>WPT 1837</name>
</trkpt>
<trkpt lat="53.857961000" lon="-1.827329000">
  <ele>233.000000</ele>
  <time>2015-02-24T12:14:00Z</time>
  <name>WPT 1838</name>
</trkpt>
<trkpt lat="53.858021000" lon="-1.827311000">
  <ele>234.000000</ele>
  <time>2015-02-24T12:14:04Z</time>
  <name>WPT 1839</name>
</trkpt>
<trkpt lat="53.858087000" lon="-1.827299000">
  <ele>236.000000</ele>
  <time>2015-02-24T12:14:10Z</time>
  <name>WPT 1840</name>
</trkpt>
<trkpt lat="53.858151000" lon="-1.827272000">
  <ele>236.000000</ele>
  <time>2015-02-24T12:14:13Z</time>
  <name>WPT 1841</name>
</trkpt>
<trkpt lat="53.858202000" lon="-1.827229000">
  <ele>237.000000</ele>
  <time>2015-02-24T12:14:16Z</time>
  <name>WPT 1842</name>
</trkpt>
<trkpt lat="53.858246000" lon="-1.827205000">
  <ele>237.000000</ele>
  <time>2015-02-24T12:14:21Z</time>
  <name>WPT 1843</name>
</trkpt>
<trkpt lat="53.858293000" lon="-1.827244000">
  <ele>237.000000</ele>
  <time>2015-02-24T12:14:25Z</time>
  <name>WPT 1844</name>
</trkpt>
<trkpt lat="53.858378000" lon="-1.827276000">
  <ele>237.000000</ele>
  <time>2015-02-24T12:14:31Z</time>
  <name>WPT 1845</name>
</trkpt>
<trkpt lat="53.858428000" lon="-1.827297000">
  <ele>236.000000</ele>
  <time>2015-02-24T12:14:33Z</time>
  <name>WPT 1846</name>
</trkpt>
<trkpt lat="53.858468000" lon="-1.827251000">
  <ele>236.000000</ele>
  <time>2015-02-24T12:14:40Z</time>
  <name>WPT 1847</name>
</trkpt>
<trkpt lat="53.858471000" lon="-1.827380000">
  <ele>235.000000</ele>
  <time>2015-02-24T12:14:48Z</time>
  <name>WPT 1848</name>
</trkpt>
<trkpt lat="53.858424000" lon="-1.827402000">
  <ele>232.000000</ele>
  <time>2015-02-24T12:15:00Z</time>
  <name>WPT 1849</name>
</trkpt>
<trkpt lat="53.858375000" lon="-1.827422000">
  <ele>232.000000</ele>
  <time>2015-02-24T12:15:03Z</time>
  <name>WPT 1850</name>
</trkpt>
<trkpt lat="53.858320000" lon="-1.827434000">
  <ele>232.000000</ele>
  <time>2015-02-24T12:15:05Z</time>
  <name>WPT 1851</name>
</trkpt>
<trkpt lat="53.858271000" lon="-1.827531000">
  <ele>231.000000</ele>
  <time>2015-02-24T12:15:07Z</time>
  <name>WPT 1852</name>
</trkpt>
<trkpt lat="53.858245000" lon="-1.827599000">
  <ele>230.000000</ele>
  <time>2015-02-24T12:15:11Z</time>
  <name>WPT 1853</name>
</trkpt>
<trkpt lat="53.858200000" lon="-1.827683000">
  <ele>229.000000</ele>
  <time>2015-02-24T12:15:14Z</time>
  <name>WPT 1854</name>
</trkpt>
<trkpt lat="53.858168000" lon="-1.827769000">
  <ele>228.000000</ele>
  <time>2015-02-24T12:15:17Z</time>
  <name>WPT 1855</name>
</trkpt>
<trkpt lat="53.858117000" lon="-1.827791000">
  <ele>227.000000</ele>
  <time>2015-02-24T12:15:22Z</time>
  <name>WPT 1856</name>
</trkpt>
<trkpt lat="53.858073000" lon="-1.827805000">
  <ele>227.000000</ele>
  <time>2015-02-24T12:15:24Z</time>
  <name>WPT 1857</name>
</trkpt>
<trkpt lat="53.858025000" lon="-1.827823000">
  <ele>226.000000</ele>
  <time>2015-02-24T12:15:28Z</time>
  <name>WPT 1858</name>
</trkpt>
<trkpt lat="53.857995000" lon="-1.827890000">
  <ele>225.000000</ele>
  <time>2015-02-24T12:15:31Z</time>
  <name>WPT 1859</name>
</trkpt>
<trkpt lat="53.858001000" lon="-1.827976000">
  <ele>223.000000</ele>
  <time>2015-02-24T12:15:35Z</time>
  <name>WPT 1860</name>
</trkpt>
<trkpt lat="53.858017000" lon="-1.828052000">
  <ele>222.000000</ele>
  <time>2015-02-24T12:15:37Z</time>
  <name>WPT 1861</name>
</trkpt>
<trkpt lat="53.858015000" lon="-1.828130000">
  <ele>221.000000</ele>
  <time>2015-02-24T12:15:39Z</time>
  <name>WPT 1862</name>
</trkpt>
<trkpt lat="53.857975000" lon="-1.828206000">
  <ele>219.000000</ele>
  <time>2015-02-24T12:15:47Z</time>
  <name>WPT 1863</name>
</trkpt>
<trkpt lat="53.857972000" lon="-1.828293000">
  <ele>217.000000</ele>
  <time>2015-02-24T12:15:51Z</time>
  <name>WPT 1864</name>
</trkpt>
<trkpt lat="53.857976000" lon="-1.828373000">
  <ele>215.000000</ele>
  <time>2015-02-24T12:15:54Z</time>
  <name>WPT 1865</name>
</trkpt>
<trkpt lat="53.857972000" lon="-1.828451000">
  <ele>214.000000</ele>
  <time>2015-02-24T12:15:58Z</time>
  <name>WPT 1866</name>
</trkpt>
<trkpt lat="53.857988000" lon="-1.828529000">
  <ele>213.000000</ele>
  <time>2015-02-24T12:16:03Z</time>
  <name>WPT 1867</name>
</trkpt>
<trkpt lat="53.857971000" lon="-1.828614000">
  <ele>212.000000</ele>
  <time>2015-02-24T12:16:07Z</time>
  <name>WPT 1868</name>
</trkpt>
<trkpt lat="53.857925000" lon="-1.828695000">
  <ele>212.000000</ele>
  <time>2015-02-24T12:16:10Z</time>
  <name>WPT 1869</name>
</trkpt>
<trkpt lat="53.857885000" lon="-1.828759000">
  <ele>211.000000</ele>
  <time>2015-02-24T12:16:13Z</time>
  <name>WPT 1870</name>
</trkpt>
<trkpt lat="53.857849000" lon="-1.828808000">
  <ele>210.000000</ele>
  <time>2015-02-24T12:16:17Z</time>
  <name>WPT 1871</name>
</trkpt>
<trkpt lat="53.857807000" lon="-1.828854000">
  <ele>209.000000</ele>
  <time>2015-02-24T12:16:21Z</time>
  <name>WPT 1872</name>
</trkpt>
<trkpt lat="53.857808000" lon="-1.828957000">
  <ele>210.000000</ele>
  <time>2015-02-24T12:16:26Z</time>
  <name>WPT 1873</name>
</trkpt>
<trkpt lat="53.857829000" lon="-1.829028000">
  <ele>209.000000</ele>
  <time>2015-02-24T12:16:30Z</time>
  <name>WPT 1874</name>
</trkpt>
<trkpt lat="53.857890000" lon="-1.829042000">
  <ele>209.000000</ele>
  <time>2015-02-24T12:16:33Z</time>
  <name>WPT 1875</name>
</trkpt>
<trkpt lat="53.857950000" lon="-1.829099000">
  <ele>208.000000</ele>
  <time>2015-02-24T12:16:37Z</time>
  <name>WPT 1876</name>
</trkpt>
<trkpt lat="53.857994000" lon="-1.829139000">
  <ele>207.000000</ele>
  <time>2015-02-24T12:16:41Z</time>
  <name>WPT 1877</name>
</trkpt>
<trkpt lat="53.858047000" lon="-1.829199000">
  <ele>206.000000</ele>
  <time>2015-02-24T12:16:45Z</time>
  <name>WPT 1878</name>
</trkpt>
<trkpt lat="53.858080000" lon="-1.829259000">
  <ele>205.000000</ele>
  <time>2015-02-24T12:16:48Z</time>
  <name>WPT 1879</name>
</trkpt>
<trkpt lat="53.858101000" lon="-1.829350000">
  <ele>205.000000</ele>
  <time>2015-02-24T12:16:51Z</time>
  <name>WPT 1880</name>
</trkpt>
<trkpt lat="53.858129000" lon="-1.829444000">
  <ele>204.000000</ele>
  <time>2015-02-24T12:16:53Z</time>
  <name>WPT 1881</name>
</trkpt>
<trkpt lat="53.858173000" lon="-1.829491000">
  <ele>203.000000</ele>
  <time>2015-02-24T12:16:56Z</time>
  <name>WPT 1882</name>
</trkpt>
<trkpt lat="53.858144000" lon="-1.829572000">
  <ele>197.000000</ele>
  <time>2015-02-24T12:17:24Z</time>
  <name>WPT 1883</name>
</trkpt>
<trkpt lat="53.858102000" lon="-1.829667000">
  <ele>196.000000</ele>
  <time>2015-02-24T12:17:32Z</time>
  <name>WPT 1884</name>
</trkpt>
<trkpt lat="53.858068000" lon="-1.829723000">
  <ele>196.000000</ele>
  <time>2015-02-24T12:17:35Z</time>
  <name>WPT 1885</name>
</trkpt>
<trkpt lat="53.858029000" lon="-1.829765000">
  <ele>196.000000</ele>
  <time>2015-02-24T12:17:38Z</time>
  <name>WPT 1886</name>
</trkpt>
<trkpt lat="53.857988000" lon="-1.829804000">
  <ele>196.000000</ele>
  <time>2015-02-24T12:17:43Z</time>
  <name>WPT 1887</name>
</trkpt>
<trkpt lat="53.857959000" lon="-1.829868000">
  <ele>196.000000</ele>
  <time>2015-02-24T12:17:46Z</time>
  <name>WPT 1888</name>
</trkpt>
<trkpt lat="53.857897000" lon="-1.829925000">
  <ele>196.000000</ele>
  <time>2015-02-24T12:17:49Z</time>
  <name>WPT 1889</name>
</trkpt>
<trkpt lat="53.857845000" lon="-1.829910000">
  <ele>195.000000</ele>
  <time>2015-02-24T12:17:53Z</time>
  <name>WPT 1890</name>
</trkpt>
<trkpt lat="53.857797000" lon="-1.829925000">
  <ele>195.000000</ele>
  <time>2015-02-24T12:17:58Z</time>
  <name>WPT 1891</name>
</trkpt>
<trkpt lat="53.857759000" lon="-1.829977000">
  <ele>196.000000</ele>
  <time>2015-02-24T12:18:06Z</time>
  <name>WPT 1892</name>
</trkpt>
<trkpt lat="53.857732000" lon="-1.830039000">
  <ele>194.000000</ele>
  <time>2015-02-24T12:18:14Z</time>
  <name>WPT 1893</name>
</trkpt>
<trkpt lat="53.857684000" lon="-1.830107000">
  <ele>193.000000</ele>
  <time>2015-02-24T12:18:18Z</time>
  <name>WPT 1894</name>
</trkpt>
<trkpt lat="53.857611000" lon="-1.830075000">
  <ele>193.000000</ele>
  <time>2015-02-24T12:18:20Z</time>
  <name>WPT 1895</name>
</trkpt>
<trkpt lat="53.857546000" lon="-1.830097000">
  <ele>193.000000</ele>
  <time>2015-02-24T12:18:23Z</time>
  <name>WPT 1896</name>
</trkpt>
<trkpt lat="53.857500000" lon="-1.830145000">
  <ele>192.000000</ele>
  <time>2015-02-24T12:18:29Z</time>
  <name>WPT 1897</name>
</trkpt>
<trkpt lat="53.857396000" lon="-1.830201000">
  <ele>192.000000</ele>
  <time>2015-02-24T12:18:34Z</time>
  <name>WPT 1898</name>
</trkpt>
<trkpt lat="53.857294000" lon="-1.830261000">
  <ele>192.000000</ele>
  <time>2015-02-24T12:18:36Z</time>
  <name>WPT 1899</name>
</trkpt>
<trkpt lat="53.857209000" lon="-1.830293000">
  <ele>192.000000</ele>
  <time>2015-02-24T12:18:38Z</time>
  <name>WPT 1900</name>
</trkpt>
<trkpt lat="53.857136000" lon="-1.830320000">
  <ele>191.000000</ele>
  <time>2015-02-24T12:18:40Z</time>
  <name>WPT 1901</name>
</trkpt>
<trkpt lat="53.857091000" lon="-1.830324000">
  <ele>191.000000</ele>
  <time>2015-02-24T12:18:42Z</time>
  <name>WPT 1902</name>
</trkpt>
<trkpt lat="53.857047000" lon="-1.830277000">
  <ele>191.000000</ele>
  <time>2015-02-24T12:18:45Z</time>
  <name>WPT 1903</name>
</trkpt>
<trkpt lat="53.856975000" lon="-1.830326000">
  <ele>190.000000</ele>
  <time>2015-02-24T12:18:49Z</time>
  <name>WPT 1904</name>
</trkpt>
<trkpt lat="53.856914000" lon="-1.830353000">
  <ele>189.000000</ele>
  <time>2015-02-24T12:18:51Z</time>
  <name>WPT 1905</name>
</trkpt>
<trkpt lat="53.856862000" lon="-1.830400000">
  <ele>189.000000</ele>
  <time>2015-02-24T12:18:54Z</time>
  <name>WPT 1906</name>
</trkpt>
<trkpt lat="53.856810000" lon="-1.830438000">
  <ele>188.000000</ele>
  <time>2015-02-24T12:18:59Z</time>
  <name>WPT 1907</name>
</trkpt>
<trkpt lat="53.856767000" lon="-1.830508000">
  <ele>188.000000</ele>
  <time>2015-02-24T12:19:01Z</time>
  <name>WPT 1908</name>
</trkpt>
<trkpt lat="53.856715000" lon="-1.830494000">
  <ele>188.000000</ele>
  <time>2015-02-24T12:19:04Z</time>
  <name>WPT 1909</name>
</trkpt>
<trkpt lat="53.856663000" lon="-1.830494000">
  <ele>187.000000</ele>
  <time>2015-02-24T12:19:07Z</time>
  <name>WPT 1910</name>
</trkpt>
<trkpt lat="53.856619000" lon="-1.830533000">
  <ele>186.000000</ele>
  <time>2015-02-24T12:19:11Z</time>
  <name>WPT 1911</name>
</trkpt>
<trkpt lat="53.856590000" lon="-1.830594000">
  <ele>186.000000</ele>
  <time>2015-02-24T12:19:20Z</time>
  <name>WPT 1912</name>
</trkpt>
<trkpt lat="53.856519000" lon="-1.830626000">
  <ele>185.000000</ele>
  <time>2015-02-24T12:19:28Z</time>
  <name>WPT 1913</name>
</trkpt>
<trkpt lat="53.856472000" lon="-1.830711000">
  <ele>184.000000</ele>
  <time>2015-02-24T12:19:31Z</time>
  <name>WPT 1914</name>
</trkpt>
<trkpt lat="53.856424000" lon="-1.830747000">
  <ele>184.000000</ele>
  <time>2015-02-24T12:19:34Z</time>
  <name>WPT 1915</name>
</trkpt>
<trkpt lat="53.856422000" lon="-1.830831000">
  <ele>181.000000</ele>
  <time>2015-02-24T12:19:49Z</time>
  <name>WPT 1916</name>
</trkpt>
<trkpt lat="53.856451000" lon="-1.830905000">
  <ele>181.000000</ele>
  <time>2015-02-24T12:19:54Z</time>
  <name>WPT 1917</name>
</trkpt>
<trkpt lat="53.856494000" lon="-1.830999000">
  <ele>180.000000</ele>
  <time>2015-02-24T12:19:57Z</time>
  <name>WPT 1918</name>
</trkpt>
<trkpt lat="53.856520000" lon="-1.831079000">
  <ele>179.000000</ele>
  <time>2015-02-24T12:20:01Z</time>
  <name>WPT 1919</name>
</trkpt>
<trkpt lat="53.856495000" lon="-1.831141000">
  <ele>179.000000</ele>
  <time>2015-02-24T12:20:03Z</time>
  <name>WPT 1920</name>
</trkpt>
<trkpt lat="53.856481000" lon="-1.831234000">
  <ele>180.000000</ele>
  <time>2015-02-24T12:20:09Z</time>
  <name>WPT 1921</name>
</trkpt>
<trkpt lat="53.856531000" lon="-1.831310000">
  <ele>180.000000</ele>
  <time>2015-02-24T12:20:12Z</time>
  <name>WPT 1922</name>
</trkpt>
<trkpt lat="53.856554000" lon="-1.831419000">
  <ele>179.000000</ele>
  <time>2015-02-24T12:20:15Z</time>
  <name>WPT 1923</name>
</trkpt>
<trkpt lat="53.856564000" lon="-1.831501000">
  <ele>179.000000</ele>
  <time>2015-02-24T12:20:21Z</time>
  <name>WPT 1924</name>
</trkpt>
<trkpt lat="53.856569000" lon="-1.831578000">
  <ele>178.000000</ele>
  <time>2015-02-24T12:20:32Z</time>
  <name>WPT 1925</name>
</trkpt>
<trkpt lat="53.856613000" lon="-1.831647000">
  <ele>177.000000</ele>
  <time>2015-02-24T12:20:41Z</time>
  <name>WPT 1926</name>
</trkpt>
<trkpt lat="53.856633000" lon="-1.831735000">
  <ele>177.000000</ele>
  <time>2015-02-24T12:20:43Z</time>
  <name>WPT 1927</name>
</trkpt>
<trkpt lat="53.856671000" lon="-1.831782000">
  <ele>174.000000</ele>
  <time>2015-02-24T12:21:00Z</time>
  <name>WPT 1929</name>
</trkpt>
<trkpt lat="53.856673000" lon="-1.831892000">
  <ele>174.000000</ele>
  <time>2015-02-24T12:21:02Z</time>
  <name>WPT 1930</name>
</trkpt>
<trkpt lat="53.856676000" lon="-1.831976000">
  <ele>174.000000</ele>
  <time>2015-02-24T12:21:05Z</time>
  <name>WPT 1931</name>
</trkpt>
<trkpt lat="53.856674000" lon="-1.832057000">
  <ele>174.000000</ele>
  <time>2015-02-24T12:21:09Z</time>
  <name>WPT 1932</name>
</trkpt>
<trkpt lat="53.856698000" lon="-1.832189000">
  <ele>174.000000</ele>
  <time>2015-02-24T12:21:13Z</time>
  <name>WPT 1933</name>
</trkpt>
<trkpt lat="53.856679000" lon="-1.832274000">
  <ele>174.000000</ele>
  <time>2015-02-24T12:21:15Z</time>
  <name>WPT 1934</name>
</trkpt>
<trkpt lat="53.856667000" lon="-1.832353000">
  <ele>173.000000</ele>
  <time>2015-02-24T12:21:19Z</time>
  <name>WPT 1935</name>
</trkpt>
<trkpt lat="53.856655000" lon="-1.832433000">
  <ele>173.000000</ele>
  <time>2015-02-24T12:21:24Z</time>
  <name>WPT 1936</name>
</trkpt>
<trkpt lat="53.856628000" lon="-1.832531000">
  <ele>174.000000</ele>
  <time>2015-02-24T12:21:27Z</time>
  <name>WPT 1937</name>
</trkpt>
<trkpt lat="53.856604000" lon="-1.832595000">
  <ele>174.000000</ele>
  <time>2015-02-24T12:21:30Z</time>
  <name>WPT 1938</name>
</trkpt>
<trkpt lat="53.856586000" lon="-1.832675000">
  <ele>174.000000</ele>
  <time>2015-02-24T12:21:34Z</time>
  <name>WPT 1939</name>
</trkpt>
<trkpt lat="53.856581000" lon="-1.832764000">
  <ele>174.000000</ele>
  <time>2015-02-24T12:21:36Z</time>
  <name>WPT 1940</name>
</trkpt>
<trkpt lat="53.856608000" lon="-1.832858000">
  <ele>174.000000</ele>
  <time>2015-02-24T12:21:40Z</time>
  <name>WPT 1941</name>
</trkpt>
<trkpt lat="53.856610000" lon="-1.832947000">
  <ele>173.000000</ele>
  <time>2015-02-24T12:21:44Z</time>
  <name>WPT 1942</name>
</trkpt>
<trkpt lat="53.856588000" lon="-1.833027000">
  <ele>173.000000</ele>
  <time>2015-02-24T12:21:48Z</time>
  <name>WPT 1943</name>
</trkpt>
<trkpt lat="53.856576000" lon="-1.833117000">
  <ele>173.000000</ele>
  <time>2015-02-24T12:21:51Z</time>
  <name>WPT 1944</name>
</trkpt>
<trkpt lat="53.856595000" lon="-1.833226000">
  <ele>173.000000</ele>
  <time>2015-02-24T12:22:05Z</time>
  <name>WPT 1945</name>
</trkpt>
<trkpt lat="53.856614000" lon="-1.833310000">
  <ele>173.000000</ele>
  <time>2015-02-24T12:22:08Z</time>
  <name>WPT 1946</name>
</trkpt>
<trkpt lat="53.856629000" lon="-1.833407000">
  <ele>174.000000</ele>
  <time>2015-02-24T12:22:14Z</time>
  <name>WPT 1947</name>
</trkpt>
<trkpt lat="53.856641000" lon="-1.833499000">
  <ele>174.000000</ele>
  <time>2015-02-24T12:22:18Z</time>
  <name>WPT 1948</name>
</trkpt>
<trkpt lat="53.856677000" lon="-1.833560000">
  <ele>174.000000</ele>
  <time>2015-02-24T12:22:22Z</time>
  <name>WPT 1949</name>
</trkpt>
<trkpt lat="53.856708000" lon="-1.833622000">
  <ele>174.000000</ele>
  <time>2015-02-24T12:22:25Z</time>
  <name>WPT 1950</name>
</trkpt>
<trkpt lat="53.856744000" lon="-1.833720000">
  <ele>174.000000</ele>
  <time>2015-02-24T12:22:28Z</time>
  <name>WPT 1951</name>
</trkpt>
<trkpt lat="53.856776000" lon="-1.833794000">
  <ele>174.000000</ele>
  <time>2015-02-24T12:22:30Z</time>
  <name>WPT 1952</name>
</trkpt>
<trkpt lat="53.856790000" lon="-1.833874000">
  <ele>174.000000</ele>
  <time>2015-02-24T12:22:34Z</time>
  <name>WPT 1953</name>
</trkpt>
<trkpt lat="53.856813000" lon="-1.833950000">
  <ele>174.000000</ele>
  <time>2015-02-24T12:22:37Z</time>
  <name>WPT 1954</name>
</trkpt>
<trkpt lat="53.856847000" lon="-1.834006000">
  <ele>174.000000</ele>
  <time>2015-02-24T12:22:44Z</time>
  <name>WPT 1955</name>
</trkpt>
<trkpt lat="53.856870000" lon="-1.834083000">
  <ele>174.000000</ele>
  <time>2015-02-24T12:22:52Z</time>
  <name>WPT 1956</name>
</trkpt>
<trkpt lat="53.856898000" lon="-1.834146000">
  <ele>174.000000</ele>
  <time>2015-02-24T12:22:56Z</time>
  <name>WPT 1957</name>
</trkpt>
<trkpt lat="53.856843000" lon="-1.834155000">
  <ele>174.000000</ele>
  <time>2015-02-24T12:22:59Z</time>
  <name>WPT 1958</name>
</trkpt>
<trkpt lat="53.856860000" lon="-1.834229000">
  <ele>173.000000</ele>
  <time>2015-02-24T12:23:07Z</time>
  <name>WPT 1959</name>
</trkpt>
<trkpt lat="53.856816000" lon="-1.834187000">
  <ele>170.000000</ele>
  <time>2015-02-24T12:23:31Z</time>
  <name>WPT 1960</name>
</trkpt>
<trkpt lat="53.856769000" lon="-1.834186000">
  <ele>170.000000</ele>
  <time>2015-02-24T12:23:34Z</time>
  <name>WPT 1961</name>
</trkpt>
<trkpt lat="53.856723000" lon="-1.834223000">
  <ele>170.000000</ele>
  <time>2015-02-24T12:23:36Z</time>
  <name>WPT 1962</name>
</trkpt>
<trkpt lat="53.856675000" lon="-1.834278000">
  <ele>169.000000</ele>
  <time>2015-02-24T12:23:40Z</time>
  <name>WPT 1963</name>
</trkpt>
<trkpt lat="53.856617000" lon="-1.834331000">
  <ele>169.000000</ele>
  <time>2015-02-24T12:23:44Z</time>
  <name>WPT 1964</name>
</trkpt>
<trkpt lat="53.856566000" lon="-1.834368000">
  <ele>169.000000</ele>
  <time>2015-02-24T12:23:46Z</time>
  <name>WPT 1965</name>
</trkpt>
<trkpt lat="53.856523000" lon="-1.834408000">
  <ele>168.000000</ele>
  <time>2015-02-24T12:23:57Z</time>
  <name>WPT 1966</name>
</trkpt>
<trkpt lat="53.856546000" lon="-1.834475000">
  <ele>167.000000</ele>
  <time>2015-02-24T12:24:07Z</time>
  <name>WPT 1967</name>
</trkpt>
<trkpt lat="53.856504000" lon="-1.834502000">
  <ele>165.000000</ele>
  <time>2015-02-24T12:24:16Z</time>
  <name>WPT 1968</name>
</trkpt>
<trkpt lat="53.856446000" lon="-1.834519000">
  <ele>164.000000</ele>
  <time>2015-02-24T12:24:23Z</time>
  <name>WPT 1969</name>
</trkpt>
<trkpt lat="53.856388000" lon="-1.834526000">
  <ele>164.000000</ele>
  <time>2015-02-24T12:24:26Z</time>
  <name>WPT 1970</name>
</trkpt>
<trkpt lat="53.856340000" lon="-1.834541000">
  <ele>164.000000</ele>
  <time>2015-02-24T12:24:28Z</time>
  <name>WPT 1971</name>
</trkpt>
<trkpt lat="53.856293000" lon="-1.834568000">
  <ele>164.000000</ele>
  <time>2015-02-24T12:24:31Z</time>
  <name>WPT 1972</name>
</trkpt>
<trkpt lat="53.856252000" lon="-1.834602000">
  <ele>164.000000</ele>
  <time>2015-02-24T12:24:34Z</time>
  <name>WPT 1973</name>
</trkpt>
<trkpt lat="53.856205000" lon="-1.834626000">
  <ele>163.000000</ele>
  <time>2015-02-24T12:24:38Z</time>
  <name>WPT 1974</name>
</trkpt>
<trkpt lat="53.856165000" lon="-1.834695000">
  <ele>163.000000</ele>
  <time>2015-02-24T12:24:42Z</time>
  <name>WPT 1975</name>
</trkpt>
<trkpt lat="53.856131000" lon="-1.834770000">
  <ele>163.000000</ele>
  <time>2015-02-24T12:24:45Z</time>
  <name>WPT 1976</name>
</trkpt>
<trkpt lat="53.856085000" lon="-1.834828000">
  <ele>163.000000</ele>
  <time>2015-02-24T12:24:47Z</time>
  <name>WPT 1977</name>
</trkpt>
<trkpt lat="53.856039000" lon="-1.834847000">
  <ele>162.000000</ele>
  <time>2015-02-24T12:24:50Z</time>
  <name>WPT 1978</name>
</trkpt>
<trkpt lat="53.855987000" lon="-1.834883000">
  <ele>162.000000</ele>
  <time>2015-02-24T12:24:54Z</time>
  <name>WPT 1979</name>
</trkpt>
<trkpt lat="53.855926000" lon="-1.834911000">
  <ele>161.000000</ele>
  <time>2015-02-24T12:24:57Z</time>
  <name>WPT 1980</name>
</trkpt>
<trkpt lat="53.855881000" lon="-1.834932000">
  <ele>161.000000</ele>
  <time>2015-02-24T12:25:01Z</time>
  <name>WPT 1981</name>
</trkpt>
<trkpt lat="53.855831000" lon="-1.834956000">
  <ele>161.000000</ele>
  <time>2015-02-24T12:25:05Z</time>
  <name>WPT 1982</name>
</trkpt>
<trkpt lat="53.855781000" lon="-1.835006000">
  <ele>160.000000</ele>
  <time>2015-02-24T12:25:09Z</time>
  <name>WPT 1983</name>
</trkpt>
<trkpt lat="53.855707000" lon="-1.835028000">
  <ele>160.000000</ele>
  <time>2015-02-24T12:25:16Z</time>
  <name>WPT 1984</name>
</trkpt>
<trkpt lat="53.855648000" lon="-1.835055000">
  <ele>160.000000</ele>
  <time>2015-02-24T12:25:18Z</time>
  <name>WPT 1985</name>
</trkpt>
<trkpt lat="53.855615000" lon="-1.835123000">
  <ele>160.000000</ele>
  <time>2015-02-24T12:25:21Z</time>
  <name>WPT 1986</name>
</trkpt>
<trkpt lat="53.855626000" lon="-1.835207000">
  <ele>159.000000</ele>
  <time>2015-02-24T12:25:25Z</time>
  <name>WPT 1987</name>
</trkpt>
<trkpt lat="53.855610000" lon="-1.835287000">
  <ele>159.000000</ele>
  <time>2015-02-24T12:25:28Z</time>
  <name>WPT 1988</name>
</trkpt>
<trkpt lat="53.855617000" lon="-1.835371000">
  <ele>159.000000</ele>
  <time>2015-02-24T12:25:32Z</time>
  <name>WPT 1989</name>
</trkpt>
<trkpt lat="53.855655000" lon="-1.835417000">
  <ele>161.000000</ele>
  <time>2015-02-24T12:25:44Z</time>
  <name>WPT 1990</name>
</trkpt>
<trkpt lat="53.855697000" lon="-1.835514000">
  <ele>162.000000</ele>
  <time>2015-02-24T12:25:50Z</time>
  <name>WPT 1991</name>
</trkpt>
<trkpt lat="53.855724000" lon="-1.835581000">
  <ele>162.000000</ele>
  <time>2015-02-24T12:25:52Z</time>
  <name>WPT 1992</name>
</trkpt>
<trkpt lat="53.855737000" lon="-1.835668000">
  <ele>162.000000</ele>
  <time>2015-02-24T12:25:55Z</time>
  <name>WPT 1993</name>
</trkpt>
<trkpt lat="53.855782000" lon="-1.835782000">
  <ele>161.000000</ele>
  <time>2015-02-24T12:26:01Z</time>
  <name>WPT 1994</name>
</trkpt>
<trkpt lat="53.855812000" lon="-1.835861000">
  <ele>161.000000</ele>
  <time>2015-02-24T12:26:03Z</time>
  <name>WPT 1995</name>
</trkpt>
<trkpt lat="53.855861000" lon="-1.835915000">
  <ele>161.000000</ele>
  <time>2015-02-24T12:26:06Z</time>
  <name>WPT 1996</name>
</trkpt>
<trkpt lat="53.855900000" lon="-1.835958000">
  <ele>160.000000</ele>
  <time>2015-02-24T12:26:09Z</time>
  <name>WPT 1997</name>
</trkpt>
<trkpt lat="53.855951000" lon="-1.835977000">
  <ele>160.000000</ele>
  <time>2015-02-24T12:26:12Z</time>
  <name>WPT 1998</name>
</trkpt>
<trkpt lat="53.855989000" lon="-1.836057000">
  <ele>160.000000</ele>
  <time>2015-02-24T12:26:16Z</time>
  <name>WPT 1999</name>
</trkpt>
<trkpt lat="53.856020000" lon="-1.836133000">
  <ele>159.000000</ele>
  <time>2015-02-24T12:26:20Z</time>
  <name>WPT 2000</name>
</trkpt>
<trkpt lat="53.856040000" lon="-1.836204000">
  <ele>159.000000</ele>
  <time>2015-02-24T12:26:24Z</time>
  <name>WPT 2001</name>
</trkpt>
<trkpt lat="53.856086000" lon="-1.836274000">
  <ele>159.000000</ele>
  <time>2015-02-24T12:26:28Z</time>
  <name>WPT 2002</name>
</trkpt>
<trkpt lat="53.856122000" lon="-1.836333000">
  <ele>158.000000</ele>
  <time>2015-02-24T12:26:34Z</time>
  <name>WPT 2003</name>
</trkpt>
<trkpt lat="53.856153000" lon="-1.836409000">
  <ele>158.000000</ele>
  <time>2015-02-24T12:26:37Z</time>
  <name>WPT 2004</name>
</trkpt>
<trkpt lat="53.856191000" lon="-1.836451000">
  <ele>157.000000</ele>
  <time>2015-02-24T12:26:40Z</time>
  <name>WPT 2005</name>
</trkpt>
<trkpt lat="53.856216000" lon="-1.836518000">
  <ele>157.000000</ele>
  <time>2015-02-24T12:26:43Z</time>
  <name>WPT 2006</name>
</trkpt>
<trkpt lat="53.856264000" lon="-1.836570000">
  <ele>157.000000</ele>
  <time>2015-02-24T12:26:47Z</time>
  <name>WPT 2007</name>
</trkpt>
<trkpt lat="53.856303000" lon="-1.836625000">
  <ele>157.000000</ele>
  <time>2015-02-24T12:26:50Z</time>
  <name>WPT 2008</name>
</trkpt>
<trkpt lat="53.856345000" lon="-1.836673000">
  <ele>157.000000</ele>
  <time>2015-02-24T12:26:53Z</time>
  <name>WPT 2009</name>
</trkpt>
<trkpt lat="53.856400000" lon="-1.836719000">
  <ele>157.000000</ele>
  <time>2015-02-24T12:26:57Z</time>
  <name>WPT 2010</name>
</trkpt>
<trkpt lat="53.856429000" lon="-1.836788000">
  <ele>157.000000</ele>
  <time>2015-02-24T12:27:01Z</time>
  <name>WPT 2011</name>
</trkpt>
<trkpt lat="53.856460000" lon="-1.836849000">
  <ele>157.000000</ele>
  <time>2015-02-24T12:27:05Z</time>
  <name>WPT 2012</name>
</trkpt>
<trkpt lat="53.856493000" lon="-1.836909000">
  <ele>157.000000</ele>
  <time>2015-02-24T12:27:08Z</time>
  <name>WPT 2013</name>
</trkpt>
<trkpt lat="53.856534000" lon="-1.836969000">
  <ele>157.000000</ele>
  <time>2015-02-24T12:27:13Z</time>
  <name>WPT 2014</name>
</trkpt>
<trkpt lat="53.856589000" lon="-1.837029000">
  <ele>157.000000</ele>
  <time>2015-02-24T12:27:16Z</time>
  <name>WPT 2015</name>
</trkpt>
<trkpt lat="53.856629000" lon="-1.837085000">
  <ele>157.000000</ele>
  <time>2015-02-24T12:27:21Z</time>
  <name>WPT 2016</name>
</trkpt>
<trkpt lat="53.856664000" lon="-1.837171000">
  <ele>158.000000</ele>
  <time>2015-02-24T12:27:26Z</time>
  <name>WPT 2017</name>
</trkpt>
<trkpt lat="53.856707000" lon="-1.837220000">
  <ele>157.000000</ele>
  <time>2015-02-24T12:27:34Z</time>
  <name>WPT 2018</name>
</trkpt>
<trkpt lat="53.856677000" lon="-1.837285000">
  <ele>158.000000</ele>
  <time>2015-02-24T12:27:43Z</time>
  <name>WPT 2019</name>
</trkpt>
<trkpt lat="53.856652000" lon="-1.837368000">
  <ele>158.000000</ele>
  <time>2015-02-24T12:27:47Z</time>
  <name>WPT 2020</name>
</trkpt>
<trkpt lat="53.856646000" lon="-1.837452000">
  <ele>158.000000</ele>
  <time>2015-02-24T12:27:50Z</time>
  <name>WPT 2021</name>
</trkpt>
<trkpt lat="53.856617000" lon="-1.837542000">
  <ele>158.000000</ele>
  <time>2015-02-24T12:27:53Z</time>
  <name>WPT 2022</name>
</trkpt>
<trkpt lat="53.856578000" lon="-1.837581000">
  <ele>157.000000</ele>
  <time>2015-02-24T12:27:56Z</time>
  <name>WPT 2023</name>
</trkpt>
<trkpt lat="53.856542000" lon="-1.837634000">
  <ele>157.000000</ele>
  <time>2015-02-24T12:28:00Z</time>
  <name>WPT 2024</name>
</trkpt>
<trkpt lat="53.856348380" lon="-1.837888089">
  <ele>97.692416</ele>
  <time>2015-03-15T08:35:24.134Z</time>
  <name>WPT 2024 - WPT 2025</name>
</trkpt>
<trkpt lat="53.856321835" lon="-1.838198337">
  <ele>95.307672</ele>
  <time>2015-03-15T08:35:50.727Z</time>
  <name>WPT 2024 - WPT 2025 - WPT 2025</name>
</trkpt>
<trkpt lat="53.855269941" lon="-1.837983474">
  <ele>90.315923</ele>
  <time>2015-03-15T08:36:34.573Z</time>
  <name>WPT 2024 - WPT 2025 - WPT 2025 - WPT 2025</name>
</trkpt>
<trkpt lat="53.854600925" lon="-1.837758019">
  <ele>88.453219</ele>
  <time>2015-03-15T08:36:47.927Z</time>
  <name>WPT 2024 - WPT 2025 - WPT 2025 - WPT 2025 - WPT 2025</name>
</trkpt>
<trkpt lat="53.853613311" lon="-1.837223679">
  <ele>91.235032</ele>
  <time>2015-03-15T08:37:02.289Z</time>
  <name>WPT 2024 - WPT 2025 - WPT 2025 - WPT 2025 - WPT 2025 - WPT 2025</name>
</trkpt>
<trkpt lat="53.853127735" lon="-1.837061381">
  <ele>92.774084</ele>
  <time>2015-03-15T08:37:12.094Z</time>
  <name>WPT 2024 - WPT 2025 - WPT 2025 - WPT 2025 - WPT 2025 - WPT 2025 - WPT 2025</name>
</trkpt>
<trkpt lat="53.852820506" lon="-1.837181150">
  <ele>92.825817</ele>
  <time>2015-03-15T08:37:31.559Z</time>
  <name>WPT 2024 - WPT 2025 - WPT 2025 - WPT 2025 - WPT 2025 - WPT 2025 - WPT 2025 - WPT 2025</name>
</trkpt>
<trkpt lat="53.852379012" lon="-1.837711885">
  <ele>90.639864</ele>
  <time>2015-03-15T08:37:42.637Z</time>
  <name>WPT 2024 - WPT 2025 - WPT 2025 - WPT 2025 - WPT 2025 - WPT 2025 - WPT 2025 - WPT 2025 - WPT 2025</name>
</trkpt>
<trkpt lat="53.852002290" lon="-1.838287965">
  <ele>87.436663</ele>
  <time>2015-03-15T08:38:15.255Z</time>
  <name>WPT 2024 - WPT 2025 - WPT 2025 - WPT 2025 - WPT 2025 - WPT 2025 - WPT 2025 - WPT 2025 - WPT 2025 - WPT 2025</name>
</trkpt>
<trkpt lat="53.851538963" lon="-1.838627224">
  <ele>85.659188</ele>
  <time>2015-03-15T08:38:25.230Z</time>
  <name>WPT 2024 - WPT 2025 - WPT 2025 - WPT 2025 - WPT 2025 - WPT 2025 - WPT 2025 - WPT 2025 - WPT 2025 - WPT 2025 - WPT 2025</name>
</trkpt>
<trkpt lat="53.851303644" lon="-1.840096584">
  <ele>82.208772</ele>
  <time>2015-03-15T08:38:36.339Z</time>
  <name>WPT 2024 - WPT 2025 - WPT 2025 - WPT 2025 - WPT 2025 - WPT 2025 - WPT 2025 - WPT 2025 - WPT 2025 - WPT 2025 - WPT 2025 - WPT 2025</name>
</trkpt>
<trkpt lat="53.851136844" lon="-1.840379965">
  <ele>82.108748</ele>
  <time>2015-03-15T08:41:23.749Z</time>
  <name>WPT 2024 - WPT 2025 - WPT 2025 - WPT 2025 - WPT 2025 - WPT 2025 - WPT 2025 - WPT 2025 - WPT 2025 - WPT 2025 - WPT 2025 - WPT 2025 - WPT 2024 - WPT 2025 - WPT 2025 - WPT 2025 - WPT 2025 - WPT 2025 - WPT 2025 - WPT 2025 - WPT 2025 - WPT 2025 - WPT 2025 - WPT 2025 - WPT 2025</name>
</trkpt>
<trkpt lat="53.850769877" lon="-1.840189826">
  <ele>83.028701</ele>
  <time>2015-03-15T08:42:20.827Z</time>
  <name>WPT 2024 - WPT 2025 - WPT 2025 - WPT 2025 - WPT 2025 - WPT 2025 - WPT 2025 - WPT 2025 - WPT 2025 - WPT 2025 - WPT 2025 - WPT 2025 - WPT 2024 - WPT 2025 - WPT 2025 - WPT 2025 - WPT 2025 - WPT 2025 - WPT 2025 - WPT 2025 - WPT 2025 - WPT 2025 - WPT 2025 - WPT 2025 - WPT 2025 - WPT 2024 - WPT 2025 - WPT 2025 - WPT 2025 - WPT 2025 - WPT 2025 - WPT 2025 - WPT 2025 - WPT 2025 - WPT 2025 - WPT 2025 - WPT 2025 - WPT 2025</name>
</trkpt>
<trkpt lat="53.850565895" lon="-1.840902015">
  <ele>84.276076</ele>
  <time>2015-03-15T08:39:57.031Z</time>
  <name>WPT 2024 - WPT 2025 - WPT 2025 - WPT 2025 - WPT 2025 - WPT 2025 - WPT 2025 - WPT 2025 - WPT 2025 - WPT 2025 - WPT 2025 - WPT 2025 - WPT 2025</name>
</trkpt>
<trkpt lat="53.849826619" lon="-1.840558239">
  <ele>85.662153</ele>
  <time>2015-03-15T08:42:42.351Z</time>
  <name>WPT 2024 - WPT 2025 - WPT 2025 - WPT 2025 - WPT 2025 - WPT 2025 - WPT 2025 - WPT 2025 - WPT 2025 - WPT 2025 - WPT 2025 - WPT 2025 - WPT 2025 - WPT 2025</name>
</trkpt>
<trkpt lat="53.849437888" lon="-1.840222260">
  <ele>85.653966</ele>
  <time>2015-03-15T08:42:55.219Z</time>
  <name>WPT 2024 - WPT 2025 - WPT 2025 - WPT 2025 - WPT 2025 - WPT 2025 - WPT 2025 - WPT 2025 - WPT 2025 - WPT 2025 - WPT 2025 - WPT 2025 - WPT 2025 - WPT 2025 - WPT 2025</name>
</trkpt>
<trkpt lat="53.848871435" lon="-1.840069372">
  <ele>86.951598</ele>
  <time>2015-03-15T08:43:09.298Z</time>
  <name>WPT 2024 - WPT 2025 - WPT 2025 - WPT 2025 - WPT 2025 - WPT 2025 - WPT 2025 - WPT 2025 - WPT 2025 - WPT 2025 - WPT 2025 - WPT 2025 - WPT 2025 - WPT 2025 - WPT 2025 - WPT 2025</name>
</trkpt>
<trkpt lat="53.848569353" lon="-1.840006682">
  <ele>89.012228</ele>
  <time>2015-03-15T08:43:18.692Z</time>
  <name>WPT 2024 - WPT 2025 - WPT 2025 - WPT 2025 - WPT 2025 - WPT 2025 - WPT 2025 - WPT 2025 - WPT 2025 - WPT 2025 - WPT 2025 - WPT 2025 - WPT 2025 - WPT 2025 - WPT 2025 - WPT 2025 - WPT 2025</name>
</trkpt>
<trkpt lat="53.848310400" lon="-1.839934708">
  <ele>90.783755</ele>
  <time>2015-03-15T08:43:30.966Z</time>
  <name>WPT 2024 - WPT 2025 - WPT 2025 - WPT 2025 - WPT 2025 - WPT 2025 - WPT 2025 - WPT 2025 - WPT 2025 - WPT 2025 - WPT 2025 - WPT 2025 - WPT 2025 - WPT 2025 - WPT 2025 - WPT 2025 - WPT 2025 - WPT 2025</name>
</trkpt>
<trkpt lat="53.848239818" lon="-1.839579291">
  <ele>91.752363</ele>
  <time>2015-03-15T08:44:41.583Z</time>
  <name>WPT 2024 - WPT 2025 - WPT 2025 - WPT 2025 - WPT 2025 - WPT 2025 - WPT 2025 - WPT 2025 - WPT 2025 - WPT 2025 - WPT 2025 - WPT 2025 - WPT 2025 - WPT 2025 - WPT 2025 - WPT 2025 - WPT 2025 - WPT 2025 - WPT 2025</name>
</trkpt>
<trkpt lat="53.848147848" lon="-1.839360759">
  <ele>92.618640</ele>
  <time>2015-03-15T08:44:54.297Z</time>
  <name>WPT 2024 - WPT 2025 - WPT 2025 - WPT 2025 - WPT 2025 - WPT 2025 - WPT 2025 - WPT 2025 - WPT 2025 - WPT 2025 - WPT 2025 - WPT 2025 - WPT 2025 - WPT 2025 - WPT 2025 - WPT 2025 - WPT 2025 - WPT 2025 - WPT 2025 - WPT 2025</name>
</trkpt>
<trkpt lat="53.847974360" lon="-1.838677414">
  <ele>94.168517</ele>
  <time>2015-02-24T12:28:03Z</time>
  <name>WPT 2025</name>
<extensions>
        <drawing v="True" pv="False" pw="4" pc="255|255|255" pt="0" lv="True" lw="4" lc="255|0|0" lt="0" ls="0" lcs="3" fc="255|255|255" ft="120" fs="-1" fsc="0|0|0" xmlns="" />
      </extensions>
</trkpt>
</trkseg>
</trk>
</gpx>
